Time,TemperatureF,DewpointF,PressureIn,WindDirection,WindDirectionDegrees,WindSpeedMPH,WindSpeedGustMPH,Humidity,HourlyPrecipIn,Conditions,Clouds,dailyrainin,SoftwareType,DateUTC
2013-02-28 00:00:00,34.2,33.7,29.26,ESE,112,2.0,2.2,98,0.00,,---,0.20,VWS V14.01,2013-02-28 05:00:00,
2013-02-28 00:01:00,34.2,33.7,29.26,East,90,1.1,2.5,98,0.05,,---,1.83,VWS V14.01,2013-02-28 05:01:00,
2013-02-28 00:02:00,34.2,33.7,29.26,SE,135,1.1,2.2,98,0.05,,---,1.83,VWS V14.01,2013-02-28 05:02:00,
2013-02-28 00:03:00,34.2,33.7,29.26,NE,45,1.6,3.8,98,0.05,,---,1.83,VWS V14.01,2013-02-28 05:03:00,
2013-02-28 00:04:00,34.2,33.7,29.26,East,90,2.5,2.5,98,0.05,,---,1.83,VWS V14.01,2013-02-28 05:04:00,
2013-02-28 00:05:00,34.2,33.7,29.26,East,90,0.9,2.5,98,0.00,,---,1.78,VWS V14.01,2013-02-28 05:05:00,
2013-02-28 00:06:00,34.2,33.7,29.26,East,90,1.3,2.5,98,0.05,,---,1.83,VWS V14.01,2013-02-28 05:06:00,
2013-02-28 00:07:00,34.2,33.7,29.23,ENE,68,0.0,2.0,98,0.05,,---,1.83,VWS V14.01,2013-02-28 05:07:00,
2013-02-28 00:08:00,34.2,33.7,29.23,NE,45,2.5,2.5,98,0.05,,---,1.83,VWS V14.01,2013-02-28 05:08:00,
2013-02-28 00:09:00,34.2,33.7,29.23,NW,315,1.1,2.5,98,0.05,,---,1.83,VWS V14.01,2013-02-28 05:09:00,
2013-02-28 00:10:00,34.2,33.7,29.26,East,90,2.7,4.5,98,0.00,,---,1.78,VWS V14.01,2013-02-28 05:10:00,
2013-02-28 00:11:00,34.2,33.7,29.23,NE,45,2.0,2.2,98,0.05,,---,1.83,VWS V14.01,2013-02-28 05:11:00,
2013-02-28 00:12:00,34.2,33.7,29.23,ENE,68,1.1,2.0,98,0.05,,---,1.83,VWS V14.01,2013-02-28 05:12:00,
2013-02-28 00:13:00,34.2,33.7,29.23,ENE,68,2.7,2.7,98,0.05,,---,1.83,VWS V14.01,2013-02-28 05:13:00,
2013-02-28 00:14:00,34.2,33.7,29.23,NNE,22,1.3,2.7,98,0.05,,---,1.83,VWS V14.01,2013-02-28 05:14:00,
2013-02-28 00:15:00,34.2,33.7,29.26,ESE,112,2.5,2.7,98,0.00,,---,1.78,VWS V14.01,2013-02-28 05:15:00,
2013-02-28 00:16:00,33.6,33.1,29.23,East,90,3.4,3.4,98,0.05,,---,1.83,VWS V14.01,2013-02-28 05:16:00,
2013-02-28 00:17:00,33.6,33.1,29.23,East,90,0.9,3.4,98,0.05,,---,1.83,VWS V14.01,2013-02-28 05:17:00,
2013-02-28 00:18:00,33.6,33.1,29.23,SSW,202,1.1,1.1,98,0.05,,---,1.83,VWS V14.01,2013-02-28 05:18:00,
2013-02-28 00:19:00,33.6,33.1,29.23,East,90,1.1,2.7,98,0.05,,---,1.83,VWS V14.01,2013-02-28 05:19:00,
2013-02-28 00:20:00,34.2,33.7,29.26,West,270,2.9,5.4,98,0.00,,---,1.78,VWS V14.01,2013-02-28 05:20:00,
2013-02-28 00:21:00,33.6,33.1,29.23,East,90,1.3,1.3,98,0.05,,---,1.83,VWS V14.01,2013-02-28 05:21:00,
2013-02-28 00:22:00,33.6,33.1,29.23,East,90,1.6,2.0,98,0.05,,---,1.83,VWS V14.01,2013-02-28 05:22:00,
2013-02-28 00:23:00,33.6,33.1,29.23,East,90,0.9,1.6,98,0.05,,---,1.83,VWS V14.01,2013-02-28 05:23:00,
2013-02-28 00:24:00,33.6,33.1,29.23,East,90,1.6,1.6,98,0.05,,---,1.83,VWS V14.01,2013-02-28 05:24:00,
2013-02-28 00:25:00,34.2,33.7,29.23,East,90,0.9,4.3,98,0.00,,---,1.78,VWS V14.01,2013-02-28 05:25:00,
2013-02-28 00:26:00,33.4,32.9,29.23,West,270,1.6,1.6,98,0.05,,---,1.83,VWS V14.01,2013-02-28 05:26:00,
2013-02-28 00:27:00,33.4,32.9,29.23,East,90,1.1,1.6,98,0.05,,---,1.83,VWS V14.01,2013-02-28 05:27:00,
2013-02-28 00:28:00,33.4,32.9,29.23,East,90,1.1,1.1,98,0.05,,---,1.83,VWS V14.01,2013-02-28 05:28:00,
2013-02-28 00:29:00,33.4,32.9,29.23,East,90,0.9,1.3,98,0.05,,---,1.83,VWS V14.01,2013-02-28 05:29:00,
2013-02-28 00:30:00,34.2,33.7,29.23,East,90,0.0,2.0,98,0.00,,---,1.78,VWS V14.01,2013-02-28 05:30:00,
2013-02-28 00:31:00,33.4,32.9,29.23,NE,45,2.9,2.9,98,0.00,,---,1.83,VWS V14.01,2013-02-28 05:31:00,
2013-02-28 00:32:00,33.4,32.9,29.23,North,0,0.0,2.9,98,0.00,,---,1.83,VWS V14.01,2013-02-28 05:32:00,
2013-02-28 00:33:00,33.4,32.9,29.23,North,0,0.0,0.0,98,0.00,,---,1.83,VWS V14.01,2013-02-28 05:33:00,
2013-02-28 00:34:00,33.3,32.8,29.23,North,0,0.0,0.0,98,0.00,,---,1.83,VWS V14.01,2013-02-28 05:34:00,
2013-02-28 00:35:00,34.2,33.7,29.23,East,90,3.1,3.1,98,0.05,,---,1.83,VWS V14.01,2013-02-28 05:35:00,
2013-02-28 00:36:00,33.3,32.8,29.23,NE,45,2.5,2.5,98,0.00,,---,1.83,VWS V14.01,2013-02-28 05:36:00,
2013-02-28 00:37:00,33.3,32.8,29.26,East,90,1.1,2.5,98,0.00,,---,1.83,VWS V14.01,2013-02-28 05:37:00,
2013-02-28 00:38:00,33.3,32.8,29.26,NW,315,1.3,1.6,98,0.00,,---,1.83,VWS V14.01,2013-02-28 05:38:00,
2013-02-28 00:39:00,33.3,32.8,29.26,East,90,0.9,1.3,98,0.00,,---,1.83,VWS V14.01,2013-02-28 05:39:00,
2013-02-28 00:40:00,34.2,33.7,29.26,WSW,248,0.0,1.3,98,0.05,,---,1.83,VWS V14.01,2013-02-28 05:40:00,
2013-02-28 00:41:00,33.3,32.8,29.26,East,90,0.0,2.2,98,0.00,,---,1.83,VWS V14.01,2013-02-28 05:41:00,
2013-02-28 00:42:00,33.3,32.8,29.26,East,90,0.9,0.9,98,0.00,,---,1.83,VWS V14.01,2013-02-28 05:42:00,
2013-02-28 00:43:00,33.3,32.8,29.26,East,90,2.0,3.4,98,0.00,,---,1.83,VWS V14.01,2013-02-28 05:43:00,
2013-02-28 00:44:00,33.3,32.8,29.26,East,90,0.0,2.0,98,0.00,,---,1.83,VWS V14.01,2013-02-28 05:44:00,
2013-02-28 00:45:00,34.2,33.7,29.26,West,270,2.5,4.0,98,0.05,,---,1.83,VWS V14.01,2013-02-28 05:45:00,
2013-02-28 00:46:00,33.3,32.8,29.26,NE,45,2.9,2.9,98,0.00,,---,1.83,VWS V14.01,2013-02-28 05:46:00,
2013-02-28 00:47:00,33.3,32.8,29.26,NE,45,1.3,2.9,98,0.00,,---,1.83,VWS V14.01,2013-02-28 05:47:00,
2013-02-28 00:48:00,33.3,32.8,29.26,NE,45,1.1,2.2,98,0.00,,---,1.83,VWS V14.01,2013-02-28 05:48:00,
2013-02-28 00:49:00,33.3,32.8,29.26,NE,45,0.0,1.3,98,0.00,,---,1.83,VWS V14.01,2013-02-28 05:49:00,
2013-02-28 00:50:00,34.2,33.7,29.26,East,90,1.1,1.1,98,0.05,,---,1.83,VWS V14.01,2013-02-28 05:50:00,
2013-02-28 00:51:00,33.3,32.8,29.26,NE,45,1.3,2.7,98,0.00,,---,1.83,VWS V14.01,2013-02-28 05:51:00,
2013-02-28 00:52:00,33.3,32.8,29.23,NE,45,2.0,2.0,98,0.00,,---,1.83,VWS V14.01,2013-02-28 05:52:00,
2013-02-28 00:53:00,33.3,32.8,29.23,NNE,22,0.9,2.0,98,0.00,,---,1.83,VWS V14.01,2013-02-28 05:53:00,
2013-02-28 00:54:00,33.3,32.8,29.23,NNE,22,1.1,1.1,98,0.00,,---,1.83,VWS V14.01,2013-02-28 05:54:00,
2013-02-28 00:55:00,34.2,33.7,29.26,East,90,1.1,1.1,98,0.05,,---,1.83,VWS V14.01,2013-02-28 05:55:00,
2013-02-28 00:56:00,33.3,32.8,29.23,NE,45,1.1,2.5,98,0.00,,---,1.83,VWS V14.01,2013-02-28 05:56:00,
2013-02-28 00:57:00,33.3,32.8,29.23,East,90,0.0,1.1,98,0.00,,---,1.83,VWS V14.01,2013-02-28 05:57:00,
2013-02-28 00:58:00,33.3,32.8,29.23,East,90,2.5,2.5,98,0.00,,---,1.83,VWS V14.01,2013-02-28 05:58:00,
2013-02-28 00:59:00,33.3,32.8,29.23,East,90,0.0,2.5,98,0.00,,---,1.83,VWS V14.01,2013-02-28 05:59:00,
2013-02-28 01:00:00,34.2,33.7,29.26,North,0,1.3,2.2,98,0.05,,---,1.83,VWS V14.01,2013-02-28 06:00:00,
2013-02-28 01:01:00,33.3,32.8,29.23,East,90,0.9,0.9,98,0.00,,---,1.83,VWS V14.01,2013-02-28 06:01:00,
2013-02-28 01:02:00,33.3,32.8,29.23,East,90,0.0,0.9,98,0.00,,---,1.83,VWS V14.01,2013-02-28 06:02:00,
2013-02-28 01:03:00,33.3,32.8,29.23,East,90,0.0,0.0,98,0.00,,---,1.83,VWS V14.01,2013-02-28 06:03:00,
2013-02-28 01:04:00,34.2,33.7,29.26,East,90,0.0,2.5,98,0.05,,---,1.83,VWS V14.01,2013-02-28 06:04:00,
2013-02-28 01:05:00,33.3,32.8,29.23,North,0,0.9,0.9,98,0.00,,---,1.83,VWS V14.01,2013-02-28 06:05:00,
2013-02-28 01:06:00,33.3,32.8,29.23,NW,315,1.1,1.1,98,0.00,,---,1.83,VWS V14.01,2013-02-28 06:06:00,
2013-02-28 01:07:00,33.3,32.8,29.23,West,270,1.1,1.1,98,0.00,,---,1.83,VWS V14.01,2013-02-28 06:07:00,
2013-02-28 01:08:00,33.3,32.8,29.23,West,270,0.9,1.1,98,0.00,,---,1.83,VWS V14.01,2013-02-28 06:08:00,
2013-02-28 01:09:00,34.2,33.7,29.23,East,90,3.1,3.1,98,0.05,,---,1.83,VWS V14.01,2013-02-28 06:09:00,
2013-02-28 01:10:00,33.3,32.8,29.23,West,270,0.0,0.0,98,0.00,,---,1.83,VWS V14.01,2013-02-28 06:10:00,
2013-02-28 01:11:00,33.1,32.6,29.23,West,270,1.6,1.6,98,0.00,,---,1.83,VWS V14.01,2013-02-28 06:11:00,
2013-02-28 01:12:00,33.1,32.6,29.23,ESE,112,1.1,1.6,98,0.00,,---,1.83,VWS V14.01,2013-02-28 06:12:00,
2013-02-28 01:13:00,33.1,32.6,29.23,East,90,0.9,1.3,98,0.00,,---,1.83,VWS V14.01,2013-02-28 06:13:00,
2013-02-28 01:14:00,33.6,33.1,29.23,NE,45,0.9,1.3,98,0.05,,---,1.83,VWS V14.01,2013-02-28 06:14:00,
2013-02-28 01:15:00,33.1,32.6,29.23,East,90,0.9,0.9,98,0.00,,---,1.83,VWS V14.01,2013-02-28 06:15:00,
2013-02-28 01:16:00,33.1,32.6,29.23,East,90,1.1,1.6,98,0.00,,---,1.83,VWS V14.01,2013-02-28 06:16:00,
2013-02-28 01:17:00,33.1,32.6,29.23,East,90,1.3,2.2,98,0.00,,---,1.83,VWS V14.01,2013-02-28 06:17:00,
2013-02-28 01:18:00,33.1,32.6,29.23,East,90,0.9,2.0,98,0.00,,---,1.83,VWS V14.01,2013-02-28 06:18:00,
2013-02-28 01:19:00,33.6,33.1,29.23,East,90,0.0,1.1,98,0.05,,---,1.83,VWS V14.01,2013-02-28 06:19:00,
2013-02-28 01:20:00,33.1,32.6,29.23,North,0,0.0,1.1,98,0.00,,---,1.83,VWS V14.01,2013-02-28 06:20:00,
2013-02-28 01:21:00,33.1,32.6,29.23,North,0,0.0,0.0,98,0.00,,---,1.83,VWS V14.01,2013-02-28 06:21:00,
2013-02-28 01:22:00,33.1,32.6,29.23,WSW,248,0.0,1.6,98,0.00,,---,1.83,VWS V14.01,2013-02-28 06:22:00,
2013-02-28 01:23:00,33.1,32.6,29.23,WSW,248,1.1,1.1,98,0.00,,---,1.83,VWS V14.01,2013-02-28 06:23:00,
2013-02-28 01:24:00,33.4,32.9,29.23,West,270,1.6,2.0,98,0.05,,---,1.83,VWS V14.01,2013-02-28 06:24:00,
2013-02-28 01:25:00,33.1,32.6,29.23,WSW,248,2.2,2.2,98,0.00,,---,1.83,VWS V14.01,2013-02-28 06:25:00,
2013-02-28 01:26:00,33.1,32.6,29.23,East,90,1.1,2.2,98,0.00,,---,1.83,VWS V14.01,2013-02-28 06:26:00,
2013-02-28 01:27:00,33.1,32.6,29.23,East,90,1.1,1.6,98,0.00,,---,1.83,VWS V14.01,2013-02-28 06:27:00,
2013-02-28 01:28:00,33.1,32.6,29.23,East,90,0.9,1.6,98,0.00,,---,1.83,VWS V14.01,2013-02-28 06:28:00,
2013-02-28 01:29:00,33.4,32.9,29.23,East,90,1.6,1.6,98,0.05,,---,1.83,VWS V14.01,2013-02-28 06:29:00,
2013-02-28 01:30:00,33.1,32.6,29.23,East,90,0.0,1.6,98,0.00,,---,1.83,VWS V14.01,2013-02-28 06:30:00,
2013-02-28 01:31:00,33.1,32.6,29.23,East,90,0.0,0.0,98,0.00,,---,1.83,VWS V14.01,2013-02-28 06:31:00,
2013-02-28 01:32:00,33.1,32.6,29.23,East,90,0.0,0.0,98,0.00,,---,1.83,VWS V14.01,2013-02-28 06:32:00,
2013-02-28 01:33:00,33.1,32.6,29.23,East,90,0.0,0.0,98,0.00,,---,1.83,VWS V14.01,2013-02-28 06:33:00,
2013-02-28 01:34:00,33.3,32.8,29.23,NNE,22,2.2,2.2,98,0.00,,---,1.83,VWS V14.01,2013-02-28 06:34:00,
2013-02-28 01:35:00,33.1,32.6,29.23,East,90,0.0,0.0,98,0.00,,---,1.83,VWS V14.01,2013-02-28 06:35:00,
2013-02-28 01:36:00,33.1,32.6,29.23,West,270,1.3,1.6,98,0.00,,---,1.83,VWS V14.01,2013-02-28 06:36:00,
2013-02-28 01:37:00,33.1,32.6,29.23,West,270,0.9,2.0,98,0.00,,---,1.83,VWS V14.01,2013-02-28 06:37:00,
2013-02-28 01:38:00,33.1,32.6,29.23,West,270,0.0,1.1,98,0.00,,---,1.83,VWS V14.01,2013-02-28 06:38:00,
2013-02-28 01:39:00,33.3,32.8,29.26,East,90,1.1,1.1,98,0.00,,---,1.83,VWS V14.01,2013-02-28 06:39:00,
2013-02-28 01:40:00,33.1,32.6,29.23,West,270,0.0,0.0,98,0.00,,---,1.83,VWS V14.01,2013-02-28 06:40:00,
2013-02-28 01:41:00,33.1,32.6,29.23,West,270,0.0,1.3,98,0.00,,---,1.83,VWS V14.01,2013-02-28 06:41:00,
2013-02-28 01:42:00,33.1,32.6,29.23,West,270,0.0,0.0,98,0.00,,---,1.83,VWS V14.01,2013-02-28 06:42:00,
2013-02-28 01:43:00,33.1,32.6,29.23,West,270,0.0,0.0,98,0.00,,---,1.83,VWS V14.01,2013-02-28 06:43:00,
2013-02-28 01:44:00,33.3,32.8,29.26,West,270,0.9,1.1,98,0.00,,---,1.83,VWS V14.01,2013-02-28 06:44:00,
2013-02-28 01:45:00,32.9,32.4,29.23,West,270,0.0,0.0,98,0.00,,---,1.83,VWS V14.01,2013-02-28 06:45:00,
2013-02-28 01:46:00,32.9,32.4,29.23,West,270,0.0,0.0,98,0.00,,---,1.83,VWS V14.01,2013-02-28 06:46:00,
2013-02-28 01:47:00,32.9,32.4,29.23,West,270,0.0,0.0,98,0.00,,---,1.83,VWS V14.01,2013-02-28 06:47:00,
2013-02-28 01:48:00,32.9,32.4,29.23,West,270,0.0,0.0,98,0.00,,---,1.83,VWS V14.01,2013-02-28 06:48:00,
2013-02-28 01:49:00,33.3,32.8,29.26,NE,45,1.3,1.3,98,0.00,,---,1.83,VWS V14.01,2013-02-28 06:49:00,
2013-02-28 01:50:00,33.1,32.6,29.23,West,270,0.0,0.0,98,0.00,,---,1.83,VWS V14.01,2013-02-28 06:50:00,
2013-02-28 01:51:00,33.1,32.6,29.23,West,270,0.0,0.0,98,0.00,,---,1.83,VWS V14.01,2013-02-28 06:51:00,
2013-02-28 01:52:00,33.1,32.6,29.26,West,270,0.0,0.0,98,0.00,,---,1.83,VWS V14.01,2013-02-28 06:52:00,
2013-02-28 01:53:00,33.1,32.6,29.26,West,270,0.9,0.9,98,0.00,,---,1.83,VWS V14.01,2013-02-28 06:53:00,
2013-02-28 01:54:00,33.3,32.8,29.23,East,90,1.6,1.6,98,0.00,,---,1.83,VWS V14.01,2013-02-28 06:54:00,
2013-02-28 01:55:00,33.1,32.6,29.26,West,270,0.0,0.0,98,0.00,,---,1.83,VWS V14.01,2013-02-28 06:55:00,
2013-02-28 01:56:00,33.1,32.6,29.26,West,270,0.0,0.0,98,0.00,,---,1.83,VWS V14.01,2013-02-28 06:56:00,
2013-02-28 01:57:00,32.9,32.4,29.26,West,270,0.0,0.0,98,0.00,,---,1.83,VWS V14.01,2013-02-28 06:57:00,
2013-02-28 01:58:00,32.9,32.4,29.26,West,270,0.0,0.0,98,0.00,,---,1.83,VWS V14.01,2013-02-28 06:58:00,
2013-02-28 01:59:00,33.3,32.8,29.23,East,90,0.0,0.0,98,0.00,,---,1.83,VWS V14.01,2013-02-28 06:59:00,
2013-02-28 02:00:00,32.9,32.4,29.26,West,270,0.0,0.0,98,0.00,,---,1.83,VWS V14.01,2013-02-28 07:00:00,
2013-02-28 02:01:00,32.9,32.4,29.26,West,270,0.0,0.0,98,0.00,,---,1.83,VWS V14.01,2013-02-28 07:01:00,
2013-02-28 02:02:00,32.9,32.4,29.26,West,270,0.0,0.0,98,0.00,,---,1.83,VWS V14.01,2013-02-28 07:02:00,
2013-02-28 02:03:00,32.9,32.4,29.26,West,270,0.0,0.0,98,0.00,,---,1.83,VWS V14.01,2013-02-28 07:03:00,
2013-02-28 02:04:00,33.3,32.8,29.23,East,90,0.9,0.9,98,0.00,,---,1.83,VWS V14.01,2013-02-28 07:04:00,
2013-02-28 02:05:00,32.9,32.4,29.26,West,270,0.0,0.0,98,0.00,,---,1.83,VWS V14.01,2013-02-28 07:05:00,
2013-02-28 02:06:00,32.9,32.4,29.26,West,270,0.0,0.0,98,0.00,,---,1.83,VWS V14.01,2013-02-28 07:06:00,
2013-02-28 02:07:00,32.9,32.4,29.26,West,270,0.0,0.0,98,0.00,,---,1.83,VWS V14.01,2013-02-28 07:07:00,
2013-02-28 02:08:00,32.9,32.4,29.26,West,270,0.0,0.0,98,0.00,,---,1.83,VWS V14.01,2013-02-28 07:08:00,
2013-02-28 02:09:00,33.3,32.8,29.23,West,270,0.0,0.0,98,0.00,,---,1.83,VWS V14.01,2013-02-28 07:09:00,
2013-02-28 02:10:00,32.9,32.4,29.26,West,270,0.0,0.0,98,0.00,,---,1.83,VWS V14.01,2013-02-28 07:10:00,
2013-02-28 02:11:00,32.9,32.4,29.26,West,270,0.0,0.0,98,0.00,,---,1.83,VWS V14.01,2013-02-28 07:11:00,
2013-02-28 02:12:00,32.9,32.4,29.26,West,270,0.9,1.1,98,0.00,,---,1.83,VWS V14.01,2013-02-28 07:12:00,
2013-02-28 02:13:00,32.9,32.4,29.26,West,270,0.0,0.9,98,0.00,,---,1.83,VWS V14.01,2013-02-28 07:13:00,
2013-02-28 02:14:00,33.1,32.6,29.23,East,90,0.0,0.0,98,0.00,,---,1.83,VWS V14.01,2013-02-28 07:14:00,
2013-02-28 02:15:00,32.9,32.4,29.26,West,270,0.0,0.0,98,0.00,,---,1.83,VWS V14.01,2013-02-28 07:15:00,
2013-02-28 02:16:00,32.9,32.4,29.26,West,270,0.0,0.0,98,0.00,,---,1.83,VWS V14.01,2013-02-28 07:16:00,
2013-02-28 02:17:00,32.9,32.4,29.26,West,270,0.0,0.0,98,0.00,,---,1.83,VWS V14.01,2013-02-28 07:17:00,
2013-02-28 02:18:00,32.9,32.4,29.26,West,270,0.0,0.0,98,0.00,,---,1.83,VWS V14.01,2013-02-28 07:18:00,
2013-02-28 02:19:00,33.1,32.6,29.23,North,0,1.1,1.1,98,0.00,,---,1.83,VWS V14.01,2013-02-28 07:19:00,
2013-02-28 02:20:00,32.9,32.4,29.26,West,270,0.0,0.0,98,0.00,,---,1.83,VWS V14.01,2013-02-28 07:20:00,
2013-02-28 02:21:00,32.9,32.4,29.26,West,270,0.0,0.0,98,0.00,,---,1.83,VWS V14.01,2013-02-28 07:21:00,
2013-02-28 02:22:00,32.9,32.4,29.26,West,270,0.0,0.0,98,0.00,,---,1.83,VWS V14.01,2013-02-28 07:22:00,
2013-02-28 02:23:00,32.9,32.4,29.26,West,270,0.0,0.0,98,0.00,,---,1.83,VWS V14.01,2013-02-28 07:23:00,
2013-02-28 02:24:00,33.1,32.6,29.23,NE,45,1.1,1.1,98,0.00,,---,1.83,VWS V14.01,2013-02-28 07:24:00,
2013-02-28 02:25:00,32.9,32.4,29.26,West,270,0.0,0.0,98,0.00,,---,1.83,VWS V14.01,2013-02-28 07:25:00,
2013-02-28 02:26:00,32.9,32.4,29.26,West,270,0.0,0.0,98,0.00,,---,1.83,VWS V14.01,2013-02-28 07:26:00,
2013-02-28 02:27:00,32.9,32.4,29.26,West,270,0.0,0.0,98,0.00,,---,1.83,VWS V14.01,2013-02-28 07:27:00,
2013-02-28 02:28:00,32.9,32.4,29.26,West,270,0.0,0.0,98,0.00,,---,1.83,VWS V14.01,2013-02-28 07:28:00,
2013-02-28 02:29:00,33.1,32.6,29.23,East,90,1.3,1.6,98,0.00,,---,1.83,VWS V14.01,2013-02-28 07:29:00,
2013-02-28 02:30:00,32.9,32.4,29.26,West,270,0.0,0.0,98,0.00,,---,1.83,VWS V14.01,2013-02-28 07:30:00,
2013-02-28 02:31:00,32.9,32.4,29.26,West,270,0.0,0.0,98,0.00,,---,1.83,VWS V14.01,2013-02-28 07:31:00,
2013-02-28 02:32:00,32.9,32.4,29.26,West,270,0.0,0.0,98,0.00,,---,1.83,VWS V14.01,2013-02-28 07:32:00,
2013-02-28 02:33:00,32.9,32.4,29.26,West,270,0.0,0.0,98,0.00,,---,1.83,VWS V14.01,2013-02-28 07:33:00,
2013-02-28 02:34:00,33.1,32.6,29.23,East,90,0.0,0.0,98,0.00,,---,1.83,VWS V14.01,2013-02-28 07:34:00,
2013-02-28 02:35:00,32.9,32.4,29.26,West,270,0.0,0.0,98,0.00,,---,1.83,VWS V14.01,2013-02-28 07:35:00,
2013-02-28 02:36:00,32.7,32.2,29.26,West,270,0.0,0.0,98,0.00,,---,1.83,VWS V14.01,2013-02-28 07:36:00,
2013-02-28 02:37:00,32.9,32.4,29.26,West,270,0.9,1.1,98,0.00,,---,1.83,VWS V14.01,2013-02-28 07:37:00,
2013-02-28 02:38:00,32.9,32.4,29.26,West,270,0.0,0.9,98,0.00,,---,1.83,VWS V14.01,2013-02-28 07:38:00,
2013-02-28 02:39:00,33.1,32.6,29.23,West,270,0.0,0.0,98,0.00,,---,1.83,VWS V14.01,2013-02-28 07:39:00,
2013-02-28 02:40:00,32.9,32.4,29.26,West,270,0.9,0.9,98,0.00,,---,1.83,VWS V14.01,2013-02-28 07:40:00,
2013-02-28 02:41:00,32.9,32.4,29.26,West,270,0.0,0.9,98,0.00,,---,1.83,VWS V14.01,2013-02-28 07:41:00,
2013-02-28 02:42:00,32.9,32.4,29.26,West,270,0.0,0.0,98,0.00,,---,1.83,VWS V14.01,2013-02-28 07:42:00,
2013-02-28 02:43:00,32.9,32.4,29.26,West,270,0.0,0.0,98,0.00,,---,1.83,VWS V14.01,2013-02-28 07:43:00,
2013-02-28 02:44:00,32.9,32.4,29.23,West,270,0.0,0.0,98,0.00,,---,1.83,VWS V14.01,2013-02-28 07:44:00,
2013-02-28 02:45:00,32.9,32.4,29.26,West,270,0.0,0.0,98,0.00,,---,1.83,VWS V14.01,2013-02-28 07:45:00,
2013-02-28 02:46:00,32.7,32.2,29.26,West,270,0.0,0.0,98,0.00,,---,1.83,VWS V14.01,2013-02-28 07:46:00,
2013-02-28 02:47:00,32.7,32.2,29.26,West,270,0.0,0.0,98,0.00,,---,1.83,VWS V14.01,2013-02-28 07:47:00,
2013-02-28 02:48:00,32.7,32.2,29.26,West,270,0.0,0.0,98,0.00,,---,1.83,VWS V14.01,2013-02-28 07:48:00,
2013-02-28 02:49:00,33.1,32.6,29.23,West,270,0.0,0.0,98,0.00,,---,1.83,VWS V14.01,2013-02-28 07:49:00,
2013-02-28 02:50:00,32.7,32.2,29.26,West,270,0.0,0.0,98,0.00,,---,1.83,VWS V14.01,2013-02-28 07:50:00,
2013-02-28 02:51:00,32.7,32.2,29.26,West,270,0.0,0.0,98,0.00,,---,1.83,VWS V14.01,2013-02-28 07:51:00,
2013-02-28 02:52:00,32.7,32.2,29.26,West,270,0.0,0.0,98,0.00,,---,1.83,VWS V14.01,2013-02-28 07:52:00,
2013-02-28 02:53:00,32.7,32.2,29.26,West,270,0.0,0.0,98,0.00,,---,1.83,VWS V14.01,2013-02-28 07:53:00,
2013-02-28 02:54:00,33.1,32.6,29.26,West,270,0.0,0.0,98,0.00,,---,1.83,VWS V14.01,2013-02-28 07:54:00,
2013-02-28 02:55:00,32.7,32.2,29.26,SW,225,0.9,0.9,98,0.00,,---,1.83,VWS V14.01,2013-02-28 07:55:00,
2013-02-28 02:56:00,32.7,32.2,29.26,SW,225,0.0,0.9,98,0.00,,---,1.83,VWS V14.01,2013-02-28 07:56:00,
2013-02-28 02:57:00,32.7,32.2,29.26,SW,225,0.0,0.0,98,0.00,,---,1.83,VWS V14.01,2013-02-28 07:57:00,
2013-02-28 02:58:00,32.7,32.2,29.26,SSW,202,0.0,0.0,98,0.00,,---,1.83,VWS V14.01,2013-02-28 07:58:00,
2013-02-28 02:59:00,32.9,32.4,29.26,West,270,0.0,0.0,98,0.00,,---,1.83,VWS V14.01,2013-02-28 07:59:00,
2013-02-28 03:00:00,32.7,32.2,29.26,SSW,202,0.0,1.3,98,0.00,,---,1.83,VWS V14.01,2013-02-28 08:00:00,
2013-02-28 03:01:00,32.7,32.2,29.26,East,90,1.1,1.1,98,0.00,,---,1.83,VWS V14.01,2013-02-28 08:01:00,
2013-02-28 03:02:00,32.7,32.2,29.26,East,90,0.0,1.1,98,0.00,,---,1.83,VWS V14.01,2013-02-28 08:02:00,
2013-02-28 03:03:00,32.7,32.2,29.26,East,90,0.0,0.0,98,0.00,,---,1.83,VWS V14.01,2013-02-28 08:03:00,
2013-02-28 03:04:00,32.9,32.4,29.26,West,270,0.0,0.0,98,0.00,,---,1.83,VWS V14.01,2013-02-28 08:04:00,
2013-02-28 03:05:00,32.7,32.2,29.26,East,90,0.0,0.0,98,0.00,,---,1.83,VWS V14.01,2013-02-28 08:05:00,
2013-02-28 03:06:00,32.7,32.2,29.26,East,90,0.0,0.0,98,0.00,,---,1.83,VWS V14.01,2013-02-28 08:06:00,
2013-02-28 03:07:00,32.7,32.2,29.26,East,90,0.0,0.0,98,0.00,,---,1.83,VWS V14.01,2013-02-28 08:07:00,
2013-02-28 03:08:00,32.7,32.2,29.26,East,90,0.9,0.9,98,0.00,,---,1.83,VWS V14.01,2013-02-28 08:08:00,
2013-02-28 03:09:00,32.9,32.4,29.26,West,270,0.0,0.0,98,0.00,,---,1.83,VWS V14.01,2013-02-28 08:09:00,
2013-02-28 03:10:00,32.7,32.2,29.26,East,90,0.9,1.1,98,0.00,,---,1.83,VWS V14.01,2013-02-28 08:10:00,
2013-02-28 03:11:00,32.7,32.2,29.26,East,90,0.9,0.9,98,0.00,,---,1.83,VWS V14.01,2013-02-28 08:11:00,
2013-02-28 03:12:00,32.7,32.2,29.26,East,90,0.0,1.3,98,0.00,,---,1.83,VWS V14.01,2013-02-28 08:12:00,
2013-02-28 03:13:00,32.7,32.2,29.26,East,90,0.0,0.0,98,0.00,,---,1.83,VWS V14.01,2013-02-28 08:13:00,
2013-02-28 03:14:00,32.9,32.4,29.26,West,270,0.0,0.0,98,0.00,,---,1.83,VWS V14.01,2013-02-28 08:14:00,
2013-02-28 03:15:00,32.7,32.2,29.26,East,90,0.0,1.3,98,0.00,,---,1.83,VWS V14.01,2013-02-28 08:15:00,
2013-02-28 03:16:00,32.7,32.2,29.26,East,90,0.0,0.0,98,0.00,,---,1.83,VWS V14.01,2013-02-28 08:16:00,
2013-02-28 03:17:00,32.7,32.2,29.26,East,90,0.0,0.0,98,0.00,,---,1.83,VWS V14.01,2013-02-28 08:17:00,
2013-02-28 03:18:00,32.7,32.2,29.26,East,90,0.0,0.0,98,0.00,,---,1.83,VWS V14.01,2013-02-28 08:18:00,
2013-02-28 03:19:00,32.9,32.4,29.26,West,270,0.0,0.0,98,0.00,,---,1.83,VWS V14.01,2013-02-28 08:19:00,
2013-02-28 03:20:00,32.7,32.2,29.26,East,90,0.0,0.0,98,0.00,,---,1.83,VWS V14.01,2013-02-28 08:20:00,
2013-02-28 03:21:00,32.5,32.0,29.26,East,90,0.0,0.0,98,0.00,,---,1.83,VWS V14.01,2013-02-28 08:21:00,
2013-02-28 03:22:00,32.5,32.0,29.26,East,90,0.0,0.0,98,0.00,,---,1.83,VWS V14.01,2013-02-28 08:22:00,
2013-02-28 03:24:00,32.9,32.4,29.26,West,270,0.0,0.0,98,0.00,,---,1.83,VWS V14.01,2013-02-28 08:24:00,
2013-02-28 03:25:00,32.5,32.0,29.26,East,90,0.0,0.0,98,0.00,,---,1.83,VWS V14.01,2013-02-28 08:25:00,
2013-02-28 03:26:00,32.5,32.0,29.26,East,90,0.0,0.0,98,0.00,,---,1.83,VWS V14.01,2013-02-28 08:26:00,
2013-02-28 03:27:00,32.5,32.0,29.26,East,90,0.0,0.0,98,0.00,,---,1.83,VWS V14.01,2013-02-28 08:27:00,
2013-02-28 03:28:00,32.5,32.0,29.26,East,90,0.0,0.0,98,0.00,,---,1.83,VWS V14.01,2013-02-28 08:28:00,
2013-02-28 03:29:00,32.9,32.4,29.26,West,270,0.0,0.0,98,0.00,,---,1.83,VWS V14.01,2013-02-28 08:29:00,
2013-02-28 03:30:00,32.5,32.0,29.26,East,90,0.0,0.0,98,0.00,,---,1.83,VWS V14.01,2013-02-28 08:30:00,
2013-02-28 03:31:00,32.5,32.0,29.26,East,90,0.0,0.0,98,0.00,,---,1.83,VWS V14.01,2013-02-28 08:31:00,
2013-02-28 03:32:00,32.5,32.0,29.26,East,90,0.0,0.0,98,0.00,,---,1.83,VWS V14.01,2013-02-28 08:32:00,
2013-02-28 03:33:00,32.5,32.0,29.26,East,90,0.0,0.0,98,0.00,,---,1.83,VWS V14.01,2013-02-28 08:33:00,
2013-02-28 03:34:00,32.9,32.4,29.26,West,270,0.0,0.0,98,0.00,,---,1.83,VWS V14.01,2013-02-28 08:34:00,
2013-02-28 03:35:00,32.5,32.0,29.26,East,90,0.0,0.0,98,0.00,,---,1.83,VWS V14.01,2013-02-28 08:35:00,
2013-02-28 03:36:00,32.5,32.0,29.26,East,90,0.0,0.0,98,0.00,,---,1.83,VWS V14.01,2013-02-28 08:36:00,
2013-02-28 03:37:00,32.5,32.0,29.26,East,90,0.0,0.0,98,0.00,,---,1.83,VWS V14.01,2013-02-28 08:37:00,
2013-02-28 03:38:00,32.5,32.0,29.26,East,90,0.0,0.0,98,0.00,,---,1.83,VWS V14.01,2013-02-28 08:38:00,
2013-02-28 03:39:00,32.9,32.4,29.26,West,270,0.0,0.0,98,0.00,,---,1.83,VWS V14.01,2013-02-28 08:39:00,
2013-02-28 03:40:00,32.5,32.0,29.26,East,90,0.0,0.0,98,0.00,,---,1.83,VWS V14.01,2013-02-28 08:40:00,
2013-02-28 03:41:00,32.5,32.0,29.26,East,90,0.0,0.0,98,0.00,,---,1.83,VWS V14.01,2013-02-28 08:41:00,
2013-02-28 03:42:00,32.5,32.0,29.26,East,90,0.0,0.0,98,0.00,,---,1.83,VWS V14.01,2013-02-28 08:42:00,
2013-02-28 03:43:00,32.5,32.0,29.26,East,90,0.0,0.0,98,0.00,,---,1.83,VWS V14.01,2013-02-28 08:43:00,
2013-02-28 03:44:00,32.9,32.4,29.26,West,270,0.0,0.0,98,0.00,,---,1.83,VWS V14.01,2013-02-28 08:44:00,
2013-02-28 03:45:00,32.5,32.0,29.26,East,90,0.0,0.0,98,0.00,,---,1.83,VWS V14.01,2013-02-28 08:45:00,
2013-02-28 03:46:00,32.5,32.0,29.26,East,90,0.0,0.0,98,0.00,,---,1.83,VWS V14.01,2013-02-28 08:46:00,
2013-02-28 03:47:00,32.5,32.0,29.26,East,90,0.0,0.0,98,0.00,,---,1.83,VWS V14.01,2013-02-28 08:47:00,
2013-02-28 03:48:00,32.5,32.0,29.26,East,90,0.0,0.0,98,0.00,,---,1.83,VWS V14.01,2013-02-28 08:48:00,
2013-02-28 03:49:00,32.7,32.2,29.26,West,270,0.0,0.0,98,0.00,,---,1.83,VWS V14.01,2013-02-28 08:49:00,
2013-02-28 03:50:00,32.5,32.0,29.26,East,90,0.0,0.0,98,0.00,,---,1.83,VWS V14.01,2013-02-28 08:50:00,
2013-02-28 03:51:00,32.5,32.0,29.26,East,90,0.0,0.0,98,0.00,,---,1.83,VWS V14.01,2013-02-28 08:51:00,
2013-02-28 03:52:00,32.5,32.0,29.23,East,90,0.0,0.0,98,0.00,,---,1.83,VWS V14.01,2013-02-28 08:52:00,
2013-02-28 03:53:00,32.5,32.0,29.23,East,90,0.0,0.0,98,0.00,,---,1.83,VWS V14.01,2013-02-28 08:53:00,
2013-02-28 03:54:00,32.7,32.2,29.26,West,270,0.0,0.0,98,0.00,,---,1.83,VWS V14.01,2013-02-28 08:54:00,
2013-02-28 03:55:00,32.5,32.0,29.23,East,90,0.0,0.0,98,0.00,,---,1.83,VWS V14.01,2013-02-28 08:55:00,
2013-02-28 03:56:00,32.5,32.0,29.23,East,90,0.0,0.0,98,0.00,,---,1.83,VWS V14.01,2013-02-28 08:56:00,
2013-02-28 03:57:00,32.5,32.0,29.23,East,90,0.0,0.0,98,0.00,,---,1.83,VWS V14.01,2013-02-28 08:57:00,
2013-02-28 03:58:00,32.5,32.0,29.23,East,90,0.0,0.0,98,0.00,,---,1.83,VWS V14.01,2013-02-28 08:58:00,
2013-02-28 03:59:00,32.7,32.2,29.26,SSW,202,1.3,1.3,98,0.00,,---,1.83,VWS V14.01,2013-02-28 08:59:00,
2013-02-28 04:00:00,32.5,32.0,29.23,East,90,0.0,0.0,98,0.00,,---,1.83,VWS V14.01,2013-02-28 09:00:00,
2013-02-28 04:01:00,32.5,32.0,29.23,East,90,0.0,0.0,98,0.00,,---,1.83,VWS V14.01,2013-02-28 09:01:00,
2013-02-28 04:02:00,32.5,32.0,29.23,East,90,0.0,0.0,98,0.00,,---,1.83,VWS V14.01,2013-02-28 09:02:00,
2013-02-28 04:03:00,32.5,32.0,29.23,East,90,0.0,0.0,98,0.00,,---,1.83,VWS V14.01,2013-02-28 09:03:00,
2013-02-28 04:04:00,32.7,32.2,29.26,East,90,0.0,0.0,98,0.00,,---,1.83,VWS V14.01,2013-02-28 09:04:00,
2013-02-28 04:05:00,32.5,32.0,29.23,East,90,0.0,0.0,98,0.00,,---,1.83,VWS V14.01,2013-02-28 09:05:00,
2013-02-28 04:06:00,32.5,32.0,29.23,East,90,0.0,0.0,98,0.00,,---,1.83,VWS V14.01,2013-02-28 09:06:00,
2013-02-28 04:07:00,32.5,32.0,29.23,East,90,0.0,0.0,98,0.00,,---,1.83,VWS V14.01,2013-02-28 09:07:00,
2013-02-28 04:08:00,32.5,32.0,29.23,East,90,0.0,0.0,98,0.00,,---,1.83,VWS V14.01,2013-02-28 09:08:00,
2013-02-28 04:09:00,32.7,32.2,29.26,East,90,1.1,1.1,98,0.00,,---,1.83,VWS V14.01,2013-02-28 09:09:00,
2013-02-28 04:10:00,32.5,32.0,29.23,East,90,0.0,0.0,98,0.00,,---,1.83,VWS V14.01,2013-02-28 09:10:00,
2013-02-28 04:11:00,32.5,32.0,29.23,East,90,0.0,0.0,98,0.00,,---,1.83,VWS V14.01,2013-02-28 09:11:00,
2013-02-28 04:12:00,32.5,32.0,29.23,East,90,0.0,0.0,98,0.00,,---,1.83,VWS V14.01,2013-02-28 09:12:00,
2013-02-28 04:13:00,32.5,32.0,29.23,East,90,0.0,0.0,98,0.00,,---,1.83,VWS V14.01,2013-02-28 09:13:00,
2013-02-28 04:14:00,32.7,32.2,29.26,East,90,0.9,1.3,98,0.00,,---,1.83,VWS V14.01,2013-02-28 09:14:00,
2013-02-28 04:15:00,32.5,32.0,29.23,East,90,0.0,0.0,98,0.00,,---,1.83,VWS V14.01,2013-02-28 09:15:00,
2013-02-28 04:16:00,32.5,32.0,29.23,East,90,0.0,0.0,98,0.00,,---,1.83,VWS V14.01,2013-02-28 09:16:00,
2013-02-28 04:17:00,32.5,32.0,29.23,East,90,0.0,0.0,98,0.00,,---,1.83,VWS V14.01,2013-02-28 09:17:00,
2013-02-28 04:18:00,32.5,32.0,29.23,East,90,0.0,0.0,98,0.00,,---,1.83,VWS V14.01,2013-02-28 09:18:00,
2013-02-28 04:19:00,32.7,32.2,29.26,East,90,0.0,0.0,98,0.00,,---,1.83,VWS V14.01,2013-02-28 09:19:00,
2013-02-28 04:20:00,32.4,31.9,29.23,East,90,0.0,0.0,98,0.00,,---,1.83,VWS V14.01,2013-02-28 09:20:00,
2013-02-28 04:21:00,32.4,31.9,29.23,East,90,0.0,0.0,98,0.00,,---,1.83,VWS V14.01,2013-02-28 09:21:00,
2013-02-28 04:22:00,32.4,31.9,29.26,East,90,0.0,0.0,98,0.00,,---,1.83,VWS V14.01,2013-02-28 09:22:00,
2013-02-28 04:23:00,32.4,31.9,29.26,East,90,0.0,0.0,98,0.00,,---,1.83,VWS V14.01,2013-02-28 09:23:00,
2013-02-28 04:24:00,32.5,32.0,29.26,East,90,0.0,0.0,98,0.00,,---,1.83,VWS V14.01,2013-02-28 09:24:00,
2013-02-28 04:25:00,32.4,31.9,29.26,East,90,0.0,0.0,98,0.00,,---,1.83,VWS V14.01,2013-02-28 09:25:00,
2013-02-28 04:26:00,32.4,31.9,29.26,East,90,0.0,0.0,98,0.00,,---,1.83,VWS V14.01,2013-02-28 09:26:00,
2013-02-28 04:27:00,32.4,31.9,29.26,East,90,0.0,0.0,98,0.00,,---,1.83,VWS V14.01,2013-02-28 09:27:00,
2013-02-28 04:28:00,32.4,31.9,29.26,East,90,0.0,0.0,98,0.00,,---,1.83,VWS V14.01,2013-02-28 09:28:00,
2013-02-28 04:29:00,32.5,32.0,29.26,East,90,0.0,0.0,98,0.00,,---,1.83,VWS V14.01,2013-02-28 09:29:00,
2013-02-28 04:30:00,32.4,31.9,29.26,East,90,0.0,0.0,98,0.00,,---,1.83,VWS V14.01,2013-02-28 09:30:00,
2013-02-28 04:31:00,32.4,31.9,29.26,East,90,0.0,0.0,98,0.00,,---,1.83,VWS V14.01,2013-02-28 09:31:00,
2013-02-28 04:32:00,32.4,31.9,29.26,East,90,0.0,0.0,98,0.00,,---,1.83,VWS V14.01,2013-02-28 09:32:00,
2013-02-28 04:33:00,32.4,31.9,29.26,East,90,0.0,0.0,98,0.00,,---,1.83,VWS V14.01,2013-02-28 09:33:00,
2013-02-28 04:34:00,32.5,32.0,29.26,East,90,0.0,0.0,98,0.00,,---,1.83,VWS V14.01,2013-02-28 09:34:00,
2013-02-28 04:35:00,32.4,31.9,29.26,East,90,0.0,0.0,98,0.00,,---,1.83,VWS V14.01,2013-02-28 09:35:00,
2013-02-28 04:36:00,32.4,31.9,29.26,East,90,0.0,0.0,98,0.00,,---,1.83,VWS V14.01,2013-02-28 09:36:00,
2013-02-28 04:37:00,32.4,31.9,29.26,East,90,0.0,0.0,98,0.00,,---,1.83,VWS V14.01,2013-02-28 09:37:00,
2013-02-28 04:38:00,32.4,31.9,29.26,East,90,0.0,0.0,98,0.00,,---,1.83,VWS V14.01,2013-02-28 09:38:00,
2013-02-28 04:39:00,32.5,32.0,29.26,East,90,0.0,0.0,98,0.00,,---,1.83,VWS V14.01,2013-02-28 09:39:00,
2013-02-28 04:40:00,32.4,31.9,29.26,East,90,0.0,0.0,98,0.00,,---,1.83,VWS V14.01,2013-02-28 09:40:00,
2013-02-28 04:41:00,32.4,31.9,29.26,East,90,0.0,0.0,98,0.00,,---,1.83,VWS V14.01,2013-02-28 09:41:00,
2013-02-28 04:42:00,32.4,31.9,29.26,East,90,0.0,0.0,98,0.00,,---,1.83,VWS V14.01,2013-02-28 09:42:00,
2013-02-28 04:43:00,32.4,31.9,29.26,East,90,0.0,0.0,98,0.00,,---,1.83,VWS V14.01,2013-02-28 09:43:00,
2013-02-28 04:44:00,32.5,32.0,29.26,East,90,0.0,0.0,98,0.00,,---,1.83,VWS V14.01,2013-02-28 09:44:00,
2013-02-28 04:45:00,32.4,31.9,29.26,East,90,0.0,0.0,98,0.00,,---,1.83,VWS V14.01,2013-02-28 09:45:00,
2013-02-28 04:46:00,32.4,31.9,29.26,East,90,0.0,0.0,98,0.00,,---,1.83,VWS V14.01,2013-02-28 09:46:00,
2013-02-28 04:47:00,32.4,31.9,29.26,East,90,0.0,0.0,98,0.00,,---,1.83,VWS V14.01,2013-02-28 09:47:00,
2013-02-28 04:48:00,32.5,32.0,29.26,East,90,0.0,0.0,98,0.00,,---,1.83,VWS V14.01,2013-02-28 09:48:00,
2013-02-28 04:49:00,32.5,32.0,29.26,East,90,0.0,0.0,98,0.00,,---,1.83,VWS V14.01,2013-02-28 09:49:00,
2013-02-28 04:50:00,32.5,32.0,29.26,East,90,0.0,0.0,98,0.00,,---,1.83,VWS V14.01,2013-02-28 09:50:00,
2013-02-28 04:51:00,32.5,32.0,29.26,East,90,0.0,0.0,98,0.00,,---,1.83,VWS V14.01,2013-02-28 09:51:00,
2013-02-28 04:52:00,32.5,32.0,29.29,East,90,0.0,0.0,98,0.00,,---,1.83,VWS V14.01,2013-02-28 09:52:00,
2013-02-28 04:53:00,32.5,32.0,29.29,East,90,0.0,0.0,98,0.00,,---,1.83,VWS V14.01,2013-02-28 09:53:00,
2013-02-28 04:54:00,32.5,32.0,29.23,East,90,0.0,0.0,98,0.00,,---,1.83,VWS V14.01,2013-02-28 09:54:00,
2013-02-28 04:55:00,32.5,32.0,29.29,East,90,0.0,0.0,98,0.00,,---,1.83,VWS V14.01,2013-02-28 09:55:00,
2013-02-28 04:56:00,32.5,32.0,29.29,East,90,0.0,0.0,98,0.00,,---,1.83,VWS V14.01,2013-02-28 09:56:00,
2013-02-28 04:57:00,32.5,32.0,29.29,East,90,0.9,0.9,98,0.00,,---,1.83,VWS V14.01,2013-02-28 09:57:00,
2013-02-28 04:58:00,32.5,32.0,29.29,East,90,0.0,0.9,98,0.00,,---,1.83,VWS V14.01,2013-02-28 09:58:00,
2013-02-28 04:59:00,32.5,32.0,29.23,East,90,0.0,0.0,98,0.00,,---,1.83,VWS V14.01,2013-02-28 09:59:00,
2013-02-28 05:00:00,32.4,31.9,29.29,East,90,0.0,0.0,98,0.00,,---,1.83,VWS V14.01,2013-02-28 10:00:00,
2013-02-28 05:01:00,32.4,31.9,29.29,East,90,0.0,0.0,98,0.00,,---,1.83,VWS V14.01,2013-02-28 10:01:00,
2013-02-28 05:02:00,32.4,31.9,29.29,East,90,0.0,0.0,98,0.00,,---,1.83,VWS V14.01,2013-02-28 10:02:00,
2013-02-28 05:03:00,32.5,32.0,29.29,East,90,0.0,0.0,98,0.00,,---,1.83,VWS V14.01,2013-02-28 10:03:00,
2013-02-28 05:04:00,32.5,32.0,29.23,East,90,0.0,0.0,98,0.00,,---,1.83,VWS V14.01,2013-02-28 10:04:00,
2013-02-28 05:05:00,32.5,32.0,29.29,East,90,0.0,0.0,98,0.00,,---,1.83,VWS V14.01,2013-02-28 10:05:00,
2013-02-28 05:06:00,32.5,32.0,29.29,East,90,0.0,0.0,98,0.00,,---,1.83,VWS V14.01,2013-02-28 10:06:00,
2013-02-28 05:07:00,32.4,31.9,29.29,East,90,0.9,0.9,98,0.00,,---,1.83,VWS V14.01,2013-02-28 10:07:00,
2013-02-28 05:08:00,32.4,31.9,29.29,East,90,0.0,1.1,98,0.00,,---,1.83,VWS V14.01,2013-02-28 10:08:00,
2013-02-28 05:09:00,32.5,32.0,29.23,East,90,0.0,0.0,98,0.00,,---,1.83,VWS V14.01,2013-02-28 10:09:00,
2013-02-28 05:10:00,32.4,31.9,29.29,East,90,0.0,1.3,98,0.00,,---,1.83,VWS V14.01,2013-02-28 10:10:00,
2013-02-28 05:11:00,32.4,31.9,29.29,East,90,0.0,0.0,98,0.00,,---,1.83,VWS V14.01,2013-02-28 10:11:00,
2013-02-28 05:12:00,32.4,31.9,29.29,East,90,0.0,0.0,98,0.00,,---,1.83,VWS V14.01,2013-02-28 10:12:00,
2013-02-28 05:13:00,32.4,31.9,29.29,East,90,0.0,0.0,98,0.00,,---,1.83,VWS V14.01,2013-02-28 10:13:00,
2013-02-28 05:14:00,32.5,32.0,29.23,East,90,0.0,0.0,98,0.00,,---,1.83,VWS V14.01,2013-02-28 10:14:00,
2013-02-28 05:15:00,32.4,31.9,29.29,East,90,0.0,0.0,98,0.00,,---,1.83,VWS V14.01,2013-02-28 10:15:00,
2013-02-28 05:16:00,32.4,31.9,29.29,East,90,0.0,0.0,98,0.00,,---,1.83,VWS V14.01,2013-02-28 10:16:00,
2013-02-28 05:17:00,32.4,31.9,29.29,East,90,0.0,0.0,98,0.00,,---,1.83,VWS V14.01,2013-02-28 10:17:00,
2013-02-28 05:18:00,32.4,31.9,29.29,East,90,0.0,0.0,98,0.00,,---,1.83,VWS V14.01,2013-02-28 10:18:00,
2013-02-28 05:19:00,32.4,31.9,29.23,East,90,0.0,0.0,98,0.00,,---,1.83,VWS V14.01,2013-02-28 10:19:00,
2013-02-28 05:20:00,32.4,31.9,29.29,East,90,0.0,0.0,98,0.00,,---,1.83,VWS V14.01,2013-02-28 10:20:00,
2013-02-28 05:21:00,32.4,31.9,29.29,East,90,0.0,0.0,98,0.00,,---,1.83,VWS V14.01,2013-02-28 10:21:00,
2013-02-28 05:22:00,32.4,31.9,29.29,East,90,0.0,0.0,98,0.00,,---,1.83,VWS V14.01,2013-02-28 10:22:00,
2013-02-28 05:23:00,32.4,31.9,29.29,East,90,0.0,0.0,98,0.00,,---,1.83,VWS V14.01,2013-02-28 10:23:00,
2013-02-28 05:24:00,32.4,31.9,29.26,East,90,0.0,0.0,98,0.00,,---,1.83,VWS V14.01,2013-02-28 10:24:00,
2013-02-28 05:25:00,32.4,31.9,29.29,East,90,0.0,0.0,98,0.00,,---,1.83,VWS V14.01,2013-02-28 10:25:00,
2013-02-28 05:26:00,32.4,31.9,29.29,East,90,0.0,0.0,98,0.00,,---,1.83,VWS V14.01,2013-02-28 10:26:00,
2013-02-28 05:27:00,32.4,31.9,29.29,East,90,0.0,0.0,98,0.00,,---,1.83,VWS V14.01,2013-02-28 10:27:00,
2013-02-28 05:28:00,32.4,31.9,29.29,East,90,0.0,0.0,98,0.00,,---,1.83,VWS V14.01,2013-02-28 10:28:00,
2013-02-28 05:29:00,32.4,31.9,29.26,East,90,0.0,0.0,98,0.00,,---,1.83,VWS V14.01,2013-02-28 10:29:00,
2013-02-28 05:30:00,32.4,31.9,29.29,East,90,0.0,0.0,98,0.00,,---,1.83,VWS V14.01,2013-02-28 10:30:00,
2013-02-28 05:31:00,32.4,31.9,29.29,East,90,0.0,0.0,98,0.00,,---,1.83,VWS V14.01,2013-02-28 10:31:00,
2013-02-28 05:32:00,32.4,31.9,29.29,East,90,0.0,0.0,98,0.00,,---,1.83,VWS V14.01,2013-02-28 10:32:00,
2013-02-28 05:33:00,32.4,31.9,29.29,East,90,0.0,0.0,98,0.00,,---,1.83,VWS V14.01,2013-02-28 10:33:00,
2013-02-28 05:34:00,32.4,31.9,29.26,East,90,0.0,0.0,98,0.00,,---,1.83,VWS V14.01,2013-02-28 10:34:00,
2013-02-28 05:35:00,32.2,31.7,29.29,East,90,0.0,0.0,98,0.00,,---,1.83,VWS V14.01,2013-02-28 10:35:00,
2013-02-28 05:36:00,32.2,31.7,29.29,East,90,0.0,0.0,98,0.00,,---,1.83,VWS V14.01,2013-02-28 10:36:00,
2013-02-28 05:37:00,32.2,31.7,29.29,East,90,0.0,0.0,98,0.00,,---,1.83,VWS V14.01,2013-02-28 10:37:00,
2013-02-28 05:38:00,32.2,31.7,29.29,East,90,0.0,0.0,98,0.00,,---,1.83,VWS V14.01,2013-02-28 10:38:00,
2013-02-28 05:39:00,32.4,31.9,29.26,East,90,0.0,0.0,98,0.00,,---,1.83,VWS V14.01,2013-02-28 10:39:00,
2013-02-28 05:40:00,32.2,31.7,29.29,East,90,0.0,0.0,98,0.00,,---,1.83,VWS V14.01,2013-02-28 10:40:00,
2013-02-28 05:41:00,32.2,31.7,29.29,East,90,0.0,0.0,98,0.00,,---,1.83,VWS V14.01,2013-02-28 10:41:00,
2013-02-28 05:42:00,32.2,31.7,29.29,East,90,0.0,0.0,98,0.00,,---,1.83,VWS V14.01,2013-02-28 10:42:00,
2013-02-28 05:44:00,32.4,31.9,29.26,East,90,0.0,0.0,98,0.00,,---,1.83,VWS V14.01,2013-02-28 10:44:00,
2013-02-28 05:45:00,32.4,31.9,29.29,East,90,0.0,0.0,98,0.00,,---,1.83,VWS V14.01,2013-02-28 10:45:00,
2013-02-28 05:46:00,32.4,31.9,29.29,East,90,0.0,0.0,98,0.00,,---,1.83,VWS V14.01,2013-02-28 10:46:00,
2013-02-28 05:48:00,32.4,31.9,29.29,East,90,0.0,0.0,98,0.00,,---,1.83,VWS V14.01,2013-02-28 10:48:00,
2013-02-28 05:49:00,32.5,32.0,29.26,East,90,0.0,0.0,98,0.00,,---,1.83,VWS V14.01,2013-02-28 10:49:00,
2013-02-28 05:50:00,32.4,31.9,29.29,East,90,1.1,1.3,98,0.00,,---,1.83,VWS V14.01,2013-02-28 10:50:00,
2013-02-28 05:51:00,32.4,31.9,29.29,East,90,1.3,1.3,98,0.00,,---,1.83,VWS V14.01,2013-02-28 10:51:00,
2013-02-28 05:53:00,32.4,31.9,29.29,East,90,0.0,0.0,98,0.00,,---,1.83,VWS V14.01,2013-02-28 10:53:00,
2013-02-28 05:54:00,32.5,32.0,29.29,East,90,0.0,0.0,98,0.00,,---,1.83,VWS V14.01,2013-02-28 10:54:00,
2013-02-28 05:55:00,32.4,31.9,29.29,East,90,0.0,0.0,98,0.00,,---,1.83,VWS V14.01,2013-02-28 10:55:00,
2013-02-28 05:56:00,32.4,31.9,29.29,East,90,0.0,0.0,98,0.00,,---,1.83,VWS V14.01,2013-02-28 10:56:00,
2013-02-28 05:57:00,32.4,31.9,29.29,East,90,0.0,0.0,98,0.00,,---,1.83,VWS V14.01,2013-02-28 10:57:00,
2013-02-28 05:58:00,32.4,31.9,29.29,East,90,0.9,0.9,98,0.00,,---,1.83,VWS V14.01,2013-02-28 10:58:00,
2013-02-28 05:59:00,32.4,31.9,29.29,East,90,0.0,0.0,98,0.00,,---,1.83,VWS V14.01,2013-02-28 10:59:00,
2013-02-28 06:00:00,32.4,31.9,29.29,East,90,0.0,1.1,98,0.00,,---,1.83,VWS V14.01,2013-02-28 11:00:00,
2013-02-28 06:02:00,32.5,32.0,29.29,East,90,0.0,0.0,98,0.00,,---,1.83,VWS V14.01,2013-02-28 11:02:00,
2013-02-28 06:03:00,32.5,32.0,29.29,East,90,0.0,0.0,98,0.00,,---,1.83,VWS V14.01,2013-02-28 11:03:00,
2013-02-28 06:04:00,32.5,32.0,29.29,East,90,0.0,0.0,98,0.00,,---,1.83,VWS V14.01,2013-02-28 11:04:00,
2013-02-28 06:05:00,32.5,32.0,29.29,East,90,0.0,0.0,98,0.00,,---,1.83,VWS V14.01,2013-02-28 11:05:00,
2013-02-28 06:06:00,32.5,32.0,29.29,East,90,0.0,0.0,98,0.00,,---,1.83,VWS V14.01,2013-02-28 11:06:00,
2013-02-28 06:08:00,32.5,32.0,29.29,East,90,0.0,0.0,98,0.00,,---,1.83,VWS V14.01,2013-02-28 11:08:00,
2013-02-28 06:09:00,32.4,31.9,29.29,East,90,1.1,1.3,98,0.00,,---,1.83,VWS V14.01,2013-02-28 11:09:00,
2013-02-28 06:11:00,32.5,32.0,29.29,East,90,0.0,0.0,98,0.00,,---,1.83,VWS V14.01,2013-02-28 11:11:00,
2013-02-28 06:12:00,32.5,32.0,29.29,East,90,0.0,0.0,98,0.00,,---,1.83,VWS V14.01,2013-02-28 11:12:00,
2013-02-28 06:14:00,32.4,31.9,29.29,East,90,0.0,0.0,98,0.00,,---,1.83,VWS V14.01,2013-02-28 11:14:00,
2013-02-28 06:15:00,32.5,32.0,29.29,East,90,0.0,0.0,98,0.00,,---,1.83,VWS V14.01,2013-02-28 11:15:00,
2013-02-28 06:16:00,32.7,32.2,29.29,East,90,0.0,0.0,98,0.00,,---,1.83,VWS V14.01,2013-02-28 11:16:00,
2013-02-28 06:18:00,32.7,32.2,29.29,East,90,0.0,0.0,98,0.00,,---,1.83,VWS V14.01,2013-02-28 11:18:00,
2013-02-28 06:19:00,32.4,31.9,29.29,East,90,0.0,0.0,98,0.00,,---,1.83,VWS V14.01,2013-02-28 11:19:00,
2013-02-28 06:21:00,32.7,32.2,29.29,East,90,1.3,1.6,98,0.00,,---,1.83,VWS V14.01,2013-02-28 11:21:00,
2013-02-28 06:22:00,32.7,32.2,29.29,East,90,0.0,1.3,98,0.00,,---,1.83,VWS V14.01,2013-02-28 11:22:00,
2013-02-28 06:24:00,32.4,31.9,29.29,East,90,0.0,0.0,98,0.00,,---,1.83,VWS V14.01,2013-02-28 11:24:00,
2013-02-28 06:25:00,33.1,32.6,29.29,East,90,0.0,0.0,98,0.00,,---,1.83,VWS V14.01,2013-02-28 11:25:00,
2013-02-28 06:26:00,33.1,32.6,29.29,East,90,0.0,0.0,98,0.00,,---,1.83,VWS V14.01,2013-02-28 11:26:00,
2013-02-28 06:27:00,33.1,32.6,29.29,East,90,0.0,0.0,98,0.00,,---,1.83,VWS V14.01,2013-02-28 11:27:00,
2013-02-28 06:29:00,32.4,31.9,29.29,East,90,0.0,0.0,98,0.00,,---,1.83,VWS V14.01,2013-02-28 11:29:00,
2013-02-28 06:30:00,33.1,32.6,29.29,East,90,0.0,1.1,98,0.00,,---,1.83,VWS V14.01,2013-02-28 11:30:00,
2013-02-28 06:31:00,33.1,32.6,29.29,East,90,0.0,0.0,98,0.00,,---,1.83,VWS V14.01,2013-02-28 11:31:00,
2013-02-28 06:32:00,33.3,32.8,29.29,East,90,1.1,1.1,98,0.00,,---,1.83,VWS V14.01,2013-02-28 11:32:00,
2013-02-28 06:33:00,33.3,32.8,29.29,East,90,0.0,1.1,98,0.00,,---,1.83,VWS V14.01,2013-02-28 11:33:00,
2013-02-28 06:34:00,32.4,31.9,29.29,East,90,0.0,0.0,98,0.00,,---,1.83,VWS V14.01,2013-02-28 11:34:00,
2013-02-28 06:35:00,33.3,32.8,29.29,East,90,0.0,0.0,98,0.00,,---,1.83,VWS V14.01,2013-02-28 11:35:00,
2013-02-28 06:36:00,33.4,32.9,29.29,East,90,0.0,0.0,98,0.00,,---,1.83,VWS V14.01,2013-02-28 11:36:00,
2013-02-28 06:37:00,33.4,32.9,29.29,East,90,0.9,0.9,98,0.00,,---,1.83,VWS V14.01,2013-02-28 11:37:00,
2013-02-28 06:38:00,33.6,33.1,29.29,East,90,0.0,0.9,98,0.00,,---,1.83,VWS V14.01,2013-02-28 11:38:00,
2013-02-28 06:39:00,32.2,31.7,29.29,East,90,0.0,0.0,98,0.00,,---,1.83,VWS V14.01,2013-02-28 11:39:00,
2013-02-28 06:40:00,34.0,33.5,29.29,East,90,0.0,0.0,98,0.00,,---,1.83,VWS V14.01,2013-02-28 11:40:00,
2013-02-28 06:41:00,34.0,33.5,29.29,East,90,0.9,1.1,98,0.00,,---,1.83,VWS V14.01,2013-02-28 11:41:00,
2013-02-28 06:42:00,34.0,33.5,29.29,East,90,0.0,1.1,98,0.00,,---,1.83,VWS V14.01,2013-02-28 11:42:00,
2013-02-28 06:43:00,34.0,33.5,29.29,East,90,1.3,1.3,98,0.00,,---,1.83,VWS V14.01,2013-02-28 11:43:00,
2013-02-28 06:44:00,32.4,31.9,29.29,East,90,0.0,0.0,98,0.00,,---,1.83,VWS V14.01,2013-02-28 11:44:00,
2013-02-28 06:45:00,34.7,34.2,29.29,East,90,0.0,2.0,98,0.00,,---,1.83,VWS V14.01,2013-02-28 11:45:00,
2013-02-28 06:46:00,34.9,34.4,29.29,East,90,1.6,1.6,98,0.00,,---,1.83,VWS V14.01,2013-02-28 11:46:00,
2013-02-28 06:47:00,34.9,34.4,29.29,East,90,1.3,2.0,98,0.00,,---,1.83,VWS V14.01,2013-02-28 11:47:00,
2013-02-28 06:48:00,35.4,34.9,29.29,East,90,1.3,2.5,98,0.00,,---,1.83,VWS V14.01,2013-02-28 11:48:00,
2013-02-28 06:49:00,32.4,31.9,29.29,East,90,1.3,1.3,98,0.00,,---,1.83,VWS V14.01,2013-02-28 11:49:00,
2013-02-28 06:50:00,35.6,35.1,29.29,East,90,0.0,0.0,98,0.00,,---,1.83,VWS V14.01,2013-02-28 11:50:00,
2013-02-28 06:51:00,35.8,35.3,29.29,East,90,0.9,1.6,98,0.00,,---,1.83,VWS V14.01,2013-02-28 11:51:00,
2013-02-28 06:52:00,36.0,35.5,29.26,East,90,0.9,2.2,98,0.00,,---,1.83,VWS V14.01,2013-02-28 11:52:00,
2013-02-28 06:53:00,36.1,35.6,29.26,East,90,0.9,1.6,98,0.00,,---,1.83,VWS V14.01,2013-02-28 11:53:00,
2013-02-28 06:54:00,32.4,31.9,29.29,East,90,0.0,0.0,98,0.00,,---,1.83,VWS V14.01,2013-02-28 11:54:00,
2013-02-28 06:55:00,36.3,35.8,29.26,East,90,0.9,0.9,98,0.00,,---,1.83,VWS V14.01,2013-02-28 11:55:00,
2013-02-28 06:56:00,36.3,35.8,29.26,East,90,0.9,0.9,98,0.00,,---,1.83,VWS V14.01,2013-02-28 11:56:00,
2013-02-28 06:57:00,36.7,36.2,29.26,East,90,0.0,0.9,98,0.00,,---,1.83,VWS V14.01,2013-02-28 11:57:00,
2013-02-28 06:58:00,36.7,36.2,29.26,East,90,0.9,1.3,98,0.00,,---,1.83,VWS V14.01,2013-02-28 11:58:00,
2013-02-28 06:59:00,32.4,31.9,29.29,East,90,0.9,1.1,98,0.00,,---,1.83,VWS V14.01,2013-02-28 11:59:00,
2013-02-28 07:00:00,37.0,36.5,29.26,East,90,0.0,1.3,98,0.00,,---,1.83,VWS V14.01,2013-02-28 12:00:00,
2013-02-28 07:01:00,37.4,36.9,29.26,East,90,1.3,1.3,98,0.00,,---,1.83,VWS V14.01,2013-02-28 12:01:00,
2013-02-28 07:02:00,37.4,36.9,29.26,East,90,0.9,1.3,98,0.00,,---,1.83,VWS V14.01,2013-02-28 12:02:00,
2013-02-28 07:03:00,37.4,36.9,29.26,West,270,2.0,2.0,98,0.00,,---,1.83,VWS V14.01,2013-02-28 12:03:00,
2013-02-28 07:04:00,32.5,32.0,29.29,East,90,0.0,0.0,98,0.00,,---,1.83,VWS V14.01,2013-02-28 12:04:00,
2013-02-28 07:05:00,37.6,36.8,29.26,West,270,2.0,2.0,97,0.00,,---,1.83,VWS V14.01,2013-02-28 12:05:00,
2013-02-28 07:06:00,37.6,36.8,29.26,West,270,0.0,2.0,97,0.00,,---,1.83,VWS V14.01,2013-02-28 12:06:00,
2013-02-28 07:07:00,37.6,36.8,29.29,SSW,202,1.1,1.1,97,0.00,,---,1.83,VWS V14.01,2013-02-28 12:07:00,
2013-02-28 07:08:00,37.6,36.8,29.29,SE,135,0.0,1.1,97,0.00,,---,1.83,VWS V14.01,2013-02-28 12:08:00,
2013-02-28 07:09:00,32.5,32.0,29.29,East,90,0.0,0.0,98,0.00,,---,1.83,VWS V14.01,2013-02-28 12:09:00,
2013-02-28 07:10:00,37.6,36.8,29.29,ESE,112,1.6,1.6,97,0.00,,---,1.83,VWS V14.01,2013-02-28 12:10:00,
2013-02-28 07:11:00,37.6,36.8,29.29,East,90,2.2,2.2,97,0.00,,---,1.83,VWS V14.01,2013-02-28 12:11:00,
2013-02-28 07:12:00,37.6,36.8,29.29,East,90,2.2,2.2,97,0.00,,---,1.83,VWS V14.01,2013-02-28 12:12:00,
2013-02-28 07:13:00,37.6,36.8,29.29,East,90,0.0,2.2,97,0.00,,---,1.83,VWS V14.01,2013-02-28 12:13:00,
2013-02-28 07:14:00,32.5,32.0,29.29,East,90,0.0,0.0,98,0.00,,---,1.83,VWS V14.01,2013-02-28 12:14:00,
2013-02-28 07:15:00,37.6,36.8,29.29,East,90,2.5,2.5,97,0.00,,---,1.83,VWS V14.01,2013-02-28 12:15:00,
2013-02-28 07:16:00,37.6,36.8,29.29,NNE,22,2.0,2.7,97,0.00,,---,1.83,VWS V14.01,2013-02-28 12:16:00,
2013-02-28 07:17:00,37.6,36.8,29.29,North,0,1.3,2.0,97,0.00,,---,1.83,VWS V14.01,2013-02-28 12:17:00,
2013-02-28 07:18:00,37.6,36.8,29.29,West,270,0.0,1.3,97,0.00,,---,1.83,VWS V14.01,2013-02-28 12:18:00,
2013-02-28 07:19:00,32.7,32.2,29.29,East,90,0.0,0.0,98,0.00,,---,1.83,VWS V14.01,2013-02-28 12:19:00,
2013-02-28 07:20:00,37.6,36.8,29.29,ESE,112,1.1,1.1,97,0.00,,---,1.83,VWS V14.01,2013-02-28 12:20:00,
2013-02-28 07:21:00,37.6,36.8,29.29,ESE,112,0.0,1.1,97,0.00,,---,1.83,VWS V14.01,2013-02-28 12:21:00,
2013-02-28 07:22:00,37.6,36.8,29.32,ESE,112,0.0,0.0,97,0.00,,---,1.83,VWS V14.01,2013-02-28 12:22:00,
2013-02-28 07:23:00,37.6,36.8,29.32,West,270,1.6,1.6,97,0.00,,---,1.83,VWS V14.01,2013-02-28 12:23:00,
2013-02-28 07:24:00,33.1,32.6,29.29,East,90,0.0,0.0,98,0.00,,---,1.83,VWS V14.01,2013-02-28 12:24:00,
2013-02-28 07:25:00,37.6,36.8,29.32,NE,45,1.1,1.1,97,0.00,,---,1.83,VWS V14.01,2013-02-28 12:25:00,
2013-02-28 07:26:00,37.6,36.8,29.32,NE,45,1.1,2.7,97,0.00,,---,1.83,VWS V14.01,2013-02-28 12:26:00,
2013-02-28 07:27:00,37.6,36.8,29.32,NE,45,0.9,1.1,97,0.00,,---,1.83,VWS V14.01,2013-02-28 12:27:00,
2013-02-28 07:28:00,37.6,36.8,29.32,NE,45,0.9,0.9,97,0.00,,---,1.83,VWS V14.01,2013-02-28 12:28:00,
2013-02-28 07:29:00,33.1,32.6,29.29,East,90,1.1,1.1,98,0.00,,---,1.83,VWS V14.01,2013-02-28 12:29:00,
2013-02-28 07:30:00,37.6,36.8,29.32,NE,45,0.9,1.6,97,0.00,,---,1.83,VWS V14.01,2013-02-28 12:30:00,
2013-02-28 07:31:00,37.6,36.8,29.32,NE,45,0.9,0.9,97,0.00,,---,1.83,VWS V14.01,2013-02-28 12:31:00,
2013-02-28 07:32:00,37.6,36.8,29.32,NE,45,0.9,0.9,97,0.00,,---,1.83,VWS V14.01,2013-02-28 12:32:00,
2013-02-28 07:33:00,37.6,36.8,29.32,NE,45,0.9,0.9,97,0.00,,---,1.83,VWS V14.01,2013-02-28 12:33:00,
2013-02-28 07:34:00,33.3,32.8,29.29,East,90,0.0,0.0,98,0.00,,---,1.83,VWS V14.01,2013-02-28 12:34:00,
2013-02-28 07:35:00,37.6,36.8,29.32,NE,45,0.9,0.9,97,0.00,,---,1.83,VWS V14.01,2013-02-28 12:35:00,
2013-02-28 07:36:00,37.6,36.8,29.32,East,90,2.7,2.7,97,0.00,,---,1.83,VWS V14.01,2013-02-28 12:36:00,
2013-02-28 07:37:00,37.6,36.8,29.32,East,90,2.0,2.7,97,0.00,,---,1.83,VWS V14.01,2013-02-28 12:37:00,
2013-02-28 07:38:00,38.1,34.9,29.29,East,90,2.0,2.0,88,0.00,,---,1.83,VWS V14.01,2013-02-28 12:38:00,
2013-02-28 07:39:00,33.8,33.3,29.29,East,90,0.0,0.0,98,0.00,,---,1.83,VWS V14.01,2013-02-28 12:39:00,
2013-02-28 07:40:00,38.3,35.1,29.29,East,90,1.3,1.3,88,0.00,,---,1.83,VWS V14.01,2013-02-28 12:40:00,
2013-02-28 07:41:00,38.7,35.4,29.29,East,90,1.6,1.6,88,0.00,,---,1.83,VWS V14.01,2013-02-28 12:41:00,
2013-02-28 07:42:00,38.7,35.4,29.29,East,90,0.9,1.6,88,0.00,,---,1.83,VWS V14.01,2013-02-28 12:42:00,
2013-02-28 07:43:00,38.7,35.4,29.29,East,90,0.0,0.9,88,0.00,,---,1.83,VWS V14.01,2013-02-28 12:43:00,
2013-02-28 07:44:00,34.0,33.5,29.29,East,90,2.0,2.0,98,0.00,,---,1.83,VWS V14.01,2013-02-28 12:44:00,
2013-02-28 07:45:00,38.8,35.6,29.29,East,90,0.0,0.0,88,0.00,,---,1.83,VWS V14.01,2013-02-28 12:45:00,
2013-02-28 07:46:00,38.7,35.4,29.29,East,90,0.0,0.0,88,0.00,,---,1.83,VWS V14.01,2013-02-28 12:46:00,
2013-02-28 07:47:00,38.7,35.4,29.29,SW,225,0.9,0.9,88,0.00,,---,1.83,VWS V14.01,2013-02-28 12:47:00,
2013-02-28 07:48:00,38.7,35.4,29.29,SW,225,0.0,1.1,88,0.00,,---,1.83,VWS V14.01,2013-02-28 12:48:00,
2013-02-28 07:49:00,35.4,34.9,29.29,East,90,0.0,0.0,98,0.00,,---,1.83,VWS V14.01,2013-02-28 12:49:00,
2013-02-28 07:50:00,38.8,35.6,29.29,WSW,248,1.6,1.6,88,0.00,,---,1.83,VWS V14.01,2013-02-28 12:50:00,
2013-02-28 07:51:00,38.8,35.6,29.29,WSW,248,1.6,1.6,88,0.00,,---,1.83,VWS V14.01,2013-02-28 12:51:00,
2013-02-28 07:52:00,39.0,35.8,29.29,WSW,248,1.6,1.6,88,0.00,,---,1.83,VWS V14.01,2013-02-28 12:52:00,
2013-02-28 07:53:00,38.8,35.6,29.29,South,180,0.0,1.6,88,0.00,,---,1.83,VWS V14.01,2013-02-28 12:53:00,
2013-02-28 07:54:00,36.3,35.8,29.26,East,90,0.0,0.0,98,0.00,,---,1.83,VWS V14.01,2013-02-28 12:54:00,
2013-02-28 07:55:00,38.8,35.6,29.29,South,180,0.0,0.0,88,0.00,,---,1.83,VWS V14.01,2013-02-28 12:55:00,
2013-02-28 07:56:00,38.8,35.6,29.29,SW,225,2.0,2.0,88,0.00,,---,1.83,VWS V14.01,2013-02-28 12:56:00,
2013-02-28 07:57:00,38.7,35.1,29.29,SW,225,0.0,2.0,87,0.00,,---,1.83,VWS V14.01,2013-02-28 12:57:00,
2013-02-28 07:58:00,38.7,35.1,29.29,SW,225,1.3,1.3,87,0.00,,---,1.83,VWS V14.01,2013-02-28 12:58:00,
2013-02-28 07:59:00,36.9,36.3,29.26,East,90,1.3,1.3,98,0.00,,---,1.83,VWS V14.01,2013-02-28 12:59:00,
2013-02-28 08:00:00,38.5,34.7,29.29,SW,225,1.6,1.6,86,0.00,,---,1.83,VWS V14.01,2013-02-28 13:00:00,
2013-02-28 08:01:00,38.3,34.5,29.29,WSW,248,1.3,1.6,86,0.00,,---,1.83,VWS V14.01,2013-02-28 13:01:00,
2013-02-28 08:02:00,38.5,34.7,29.29,WSW,248,0.0,1.3,86,0.00,,---,1.83,VWS V14.01,2013-02-28 13:02:00,
2013-02-28 08:03:00,38.3,34.5,29.29,WSW,248,0.0,0.0,86,0.00,,---,1.83,VWS V14.01,2013-02-28 13:03:00,
2013-02-28 08:04:00,37.4,36.9,29.26,West,270,1.1,1.1,98,0.00,,---,1.83,VWS V14.01,2013-02-28 13:04:00,
2013-02-28 08:05:00,38.5,34.7,29.29,WSW,248,1.3,1.3,86,0.00,,---,1.83,VWS V14.01,2013-02-28 13:05:00,
2013-02-28 08:06:00,38.5,34.7,29.29,WSW,248,0.0,1.3,86,0.00,,---,1.83,VWS V14.01,2013-02-28 13:06:00,
2013-02-28 08:07:00,38.5,34.7,29.32,WSW,248,0.0,0.0,86,0.00,,---,1.83,VWS V14.01,2013-02-28 13:07:00,
2013-02-28 08:08:00,38.5,34.7,29.32,WSW,248,0.0,0.0,86,0.00,,---,1.83,VWS V14.01,2013-02-28 13:08:00,
2013-02-28 08:09:00,37.6,36.8,29.29,ESE,112,1.3,1.3,97,0.00,,---,1.83,VWS V14.01,2013-02-28 13:09:00,
2013-02-28 08:10:00,39.4,35.5,29.32,WSW,248,0.0,0.0,86,0.00,,---,1.83,VWS V14.01,2013-02-28 13:10:00,
2013-02-28 08:11:00,39.7,35.9,29.32,WSW,248,0.0,0.0,86,0.00,,---,1.83,VWS V14.01,2013-02-28 13:11:00,
2013-02-28 08:12:00,39.7,35.9,29.32,WSW,248,0.0,0.0,86,0.00,,---,1.83,VWS V14.01,2013-02-28 13:12:00,
2013-02-28 08:13:00,39.6,35.7,29.32,WSW,248,2.7,2.7,86,0.00,,---,1.83,VWS V14.01,2013-02-28 13:13:00,
2013-02-28 08:14:00,37.6,36.8,29.29,East,90,0.0,0.9,97,0.00,,---,1.83,VWS V14.01,2013-02-28 13:14:00,
2013-02-28 08:15:00,39.7,35.3,29.32,WSW,248,0.0,0.9,84,0.00,,---,1.83,VWS V14.01,2013-02-28 13:15:00,
2013-02-28 08:16:00,39.7,35.6,29.32,WSW,248,0.0,0.0,85,0.00,,---,1.83,VWS V14.01,2013-02-28 13:16:00,
2013-02-28 08:17:00,39.7,35.3,29.32,WSW,248,0.0,0.0,84,0.00,,---,1.83,VWS V14.01,2013-02-28 13:17:00,
2013-02-28 08:18:00,39.6,35.1,29.32,WSW,248,0.0,0.0,84,0.00,,---,1.83,VWS V14.01,2013-02-28 13:18:00,
2013-02-28 08:19:00,37.6,36.8,29.29,West,270,1.1,1.1,97,0.00,,---,1.83,VWS V14.01,2013-02-28 13:19:00,
2013-02-28 08:20:00,39.4,35.3,29.32,WSW,248,0.0,0.0,85,0.00,,---,1.83,VWS V14.01,2013-02-28 13:20:00,
2013-02-28 08:21:00,39.4,35.3,29.32,WSW,248,0.9,0.9,85,0.00,,---,1.83,VWS V14.01,2013-02-28 13:21:00,
2013-02-28 08:22:00,39.6,35.4,29.32,WSW,248,0.9,0.9,85,0.00,,---,1.83,VWS V14.01,2013-02-28 13:22:00,
2013-02-28 08:23:00,39.9,35.8,29.32,WSW,248,0.0,0.9,85,0.00,,---,1.83,VWS V14.01,2013-02-28 13:23:00,
2013-02-28 08:24:00,37.6,36.8,29.32,West,270,0.9,1.6,97,0.00,,---,1.83,VWS V14.01,2013-02-28 13:24:00,
2013-02-28 08:25:00,40.5,36.3,29.32,WSW,248,0.0,0.0,85,0.00,,---,1.83,VWS V14.01,2013-02-28 13:25:00,
2013-02-28 08:26:00,40.5,36.3,29.32,WSW,248,1.3,1.3,85,0.00,,---,1.83,VWS V14.01,2013-02-28 13:26:00,
2013-02-28 08:27:00,40.3,36.1,29.32,SW,225,1.1,2.2,85,0.00,,---,1.83,VWS V14.01,2013-02-28 13:27:00,
2013-02-28 08:28:00,40.3,35.5,29.32,SW,225,2.7,2.7,83,0.00,,---,1.83,VWS V14.01,2013-02-28 13:28:00,
2013-02-28 08:29:00,37.6,36.8,29.32,NE,45,1.6,2.2,97,0.00,,---,1.83,VWS V14.01,2013-02-28 13:29:00,
2013-02-28 08:30:00,40.1,35.1,29.32,SW,225,2.7,2.7,82,0.00,,---,1.83,VWS V14.01,2013-02-28 13:30:00,
2013-02-28 08:31:00,39.9,34.6,29.32,SW,225,2.7,2.7,81,0.00,,---,1.83,VWS V14.01,2013-02-28 13:31:00,
2013-02-28 08:32:00,40.1,34.8,29.32,SW,225,0.0,2.7,81,0.00,,---,1.83,VWS V14.01,2013-02-28 13:32:00,
2013-02-28 08:33:00,40.1,34.8,29.32,SW,225,0.0,0.0,81,0.00,,---,1.83,VWS V14.01,2013-02-28 13:33:00,
2013-02-28 08:34:00,37.6,36.8,29.32,NE,45,0.9,0.9,97,0.00,,---,1.83,VWS V14.01,2013-02-28 13:34:00,
2013-02-28 08:35:00,40.3,34.9,29.32,SW,225,0.0,0.0,81,0.00,,---,1.83,VWS V14.01,2013-02-28 13:35:00,
2013-02-28 08:36:00,40.3,34.9,29.32,SW,225,0.0,0.0,81,0.00,,---,1.83,VWS V14.01,2013-02-28 13:36:00,
2013-02-28 08:37:00,40.3,34.9,29.32,SW,225,0.0,0.9,81,0.00,,---,1.83,VWS V14.01,2013-02-28 13:37:00,
2013-02-28 08:38:00,40.3,35.8,29.32,SW,225,0.0,0.0,84,0.00,,---,1.83,VWS V14.01,2013-02-28 13:38:00,
2013-02-28 08:39:00,38.3,35.1,29.29,East,90,1.3,2.0,88,0.00,,---,1.83,VWS V14.01,2013-02-28 13:39:00,
2013-02-28 08:40:00,40.1,35.1,29.32,South,180,0.9,0.9,82,0.00,,---,1.83,VWS V14.01,2013-02-28 13:40:00,
2013-02-28 08:41:00,40.1,35.1,29.32,SSW,202,0.9,1.6,82,0.00,,---,1.83,VWS V14.01,2013-02-28 13:41:00,
2013-02-28 08:42:00,40.1,35.1,29.32,SSW,202,0.0,1.3,82,0.00,,---,1.83,VWS V14.01,2013-02-28 13:42:00,
2013-02-28 08:43:00,40.1,35.1,29.32,SSW,202,1.6,2.0,82,0.00,,---,1.83,VWS V14.01,2013-02-28 13:43:00,
2013-02-28 08:44:00,38.7,35.4,29.29,East,90,0.0,0.0,88,0.00,,---,1.83,VWS V14.01,2013-02-28 13:44:00,
2013-02-28 08:45:00,39.9,34.9,29.32,SSW,202,0.0,1.3,82,0.00,,---,1.83,VWS V14.01,2013-02-28 13:45:00,
2013-02-28 08:46:00,39.9,35.2,29.32,SSW,202,0.9,0.9,83,0.00,,---,1.83,VWS V14.01,2013-02-28 13:46:00,
2013-02-28 08:47:00,39.9,35.2,29.32,West,270,1.3,1.3,83,0.00,,---,1.83,VWS V14.01,2013-02-28 13:47:00,
2013-02-28 08:48:00,39.9,35.2,29.32,WSW,248,2.2,2.7,83,0.00,,---,1.83,VWS V14.01,2013-02-28 13:48:00,
2013-02-28 08:49:00,38.8,35.6,29.29,SSE,158,0.0,0.0,88,0.00,,---,1.83,VWS V14.01,2013-02-28 13:49:00,
2013-02-28 08:50:00,39.9,35.2,29.32,East,90,1.6,1.6,83,0.00,,---,1.83,VWS V14.01,2013-02-28 13:50:00,
2013-02-28 08:51:00,39.9,35.2,29.32,East,90,1.1,1.6,83,0.00,,---,1.83,VWS V14.01,2013-02-28 13:51:00,
2013-02-28 08:52:00,39.9,34.9,29.32,East,90,1.1,1.1,82,0.00,,---,1.83,VWS V14.01,2013-02-28 13:52:00,
2013-02-28 08:53:00,39.9,34.9,29.32,East,90,1.1,1.1,82,0.00,,---,1.83,VWS V14.01,2013-02-28 13:53:00,
2013-02-28 08:54:00,38.8,35.6,29.29,South,180,0.0,0.0,88,0.00,,---,1.83,VWS V14.01,2013-02-28 13:54:00,
2013-02-28 08:55:00,40.5,35.1,29.32,South,180,2.2,2.2,81,0.00,,---,1.83,VWS V14.01,2013-02-28 13:55:00,
2013-02-28 08:56:00,40.5,35.1,29.32,South,180,0.0,2.2,81,0.00,,---,1.83,VWS V14.01,2013-02-28 13:56:00,
2013-02-28 08:57:00,40.5,35.1,29.32,South,180,1.6,1.6,81,0.00,,---,1.83,VWS V14.01,2013-02-28 13:57:00,
2013-02-28 08:58:00,40.5,35.1,29.32,WSW,248,1.3,1.6,81,0.00,,---,1.83,VWS V14.01,2013-02-28 13:58:00,
2013-02-28 08:59:00,38.5,35.0,29.29,SW,225,1.6,1.6,87,0.00,,---,1.83,VWS V14.01,2013-02-28 13:59:00,
2013-02-28 09:00:00,41.0,35.6,29.32,NNW,338,1.6,1.6,81,0.00,,---,1.83,VWS V14.01,2013-02-28 14:00:00,
2013-02-28 09:01:00,41.0,35.6,29.32,SSW,202,1.3,1.6,81,0.00,,---,1.83,VWS V14.01,2013-02-28 14:01:00,
2013-02-28 09:02:00,41.0,35.6,29.32,SSW,202,1.6,1.6,81,0.00,,---,1.83,VWS V14.01,2013-02-28 14:02:00,
2013-02-28 09:03:00,41.4,35.7,29.32,WSW,248,1.3,1.6,80,0.00,,---,1.83,VWS V14.01,2013-02-28 14:03:00,
2013-02-28 09:04:00,38.5,34.7,29.29,WSW,248,1.1,1.1,86,0.00,,---,1.83,VWS V14.01,2013-02-28 14:04:00,
2013-02-28 09:05:00,41.7,35.7,29.32,ESE,112,1.3,1.3,79,0.00,,---,1.83,VWS V14.01,2013-02-28 14:05:00,
2013-02-28 09:06:00,41.9,35.5,29.32,South,180,0.0,1.3,78,0.00,,---,1.83,VWS V14.01,2013-02-28 14:06:00,
2013-02-28 09:07:00,41.9,35.5,29.32,South,180,1.1,1.3,78,0.00,,---,1.83,VWS V14.01,2013-02-28 14:07:00,
2013-02-28 09:08:00,41.9,35.5,29.32,SSW,202,1.1,1.1,78,0.00,,---,1.83,VWS V14.01,2013-02-28 14:08:00,
2013-02-28 09:09:00,39.0,35.2,29.32,WSW,248,0.0,0.0,86,0.00,,---,1.83,VWS V14.01,2013-02-28 14:09:00,
2013-02-28 09:10:00,41.5,35.2,29.32,SW,225,0.9,1.3,78,0.00,,---,1.83,VWS V14.01,2013-02-28 14:10:00,
2013-02-28 09:11:00,41.7,35.7,29.32,WSW,248,1.1,2.0,79,0.00,,---,1.83,VWS V14.01,2013-02-28 14:11:00,
2013-02-28 09:12:00,41.5,35.2,29.32,WSW,248,1.3,2.0,78,0.00,,---,1.83,VWS V14.01,2013-02-28 14:12:00,
2013-02-28 09:13:00,41.5,35.2,29.32,WSW,248,1.3,1.3,78,0.00,,---,1.83,VWS V14.01,2013-02-28 14:13:00,
2013-02-28 09:14:00,39.6,35.4,29.32,WSW,248,0.9,2.7,85,0.00,,---,1.83,VWS V14.01,2013-02-28 14:14:00,
2013-02-28 09:15:00,41.4,35.0,29.32,WSW,248,0.0,1.3,78,0.00,,---,1.83,VWS V14.01,2013-02-28 14:15:00,
2013-02-28 09:16:00,41.4,35.0,29.32,WSW,248,0.9,0.9,78,0.00,,---,1.83,VWS V14.01,2013-02-28 14:16:00,
2013-02-28 09:17:00,41.5,35.2,29.32,WSW,248,0.0,0.9,78,0.00,,---,1.83,VWS V14.01,2013-02-28 14:17:00,
2013-02-28 09:18:00,41.7,35.0,29.32,WSW,248,0.0,0.0,77,0.00,,---,1.83,VWS V14.01,2013-02-28 14:18:00,
2013-02-28 09:19:00,39.4,35.0,29.32,WSW,248,0.0,0.0,84,0.00,,---,1.83,VWS V14.01,2013-02-28 14:19:00,
2013-02-28 09:20:00,41.9,36.2,29.32,NW,315,2.5,2.5,80,0.00,,---,1.83,VWS V14.01,2013-02-28 14:20:00,
2013-02-28 09:21:00,42.1,36.0,29.32,NE,45,0.9,2.5,79,0.00,,---,1.83,VWS V14.01,2013-02-28 14:21:00,
2013-02-28 09:22:00,42.3,35.9,29.29,NE,45,0.0,0.9,78,0.00,,---,1.83,VWS V14.01,2013-02-28 14:22:00,
2013-02-28 09:23:00,42.3,35.6,29.29,NE,45,0.0,0.0,77,0.00,,---,1.83,VWS V14.01,2013-02-28 14:23:00,
2013-02-28 09:24:00,40.3,36.1,29.32,WSW,248,0.0,0.0,85,0.00,,---,1.83,VWS V14.01,2013-02-28 14:24:00,
2013-02-28 09:25:00,42.4,35.8,29.29,NE,45,0.9,2.0,77,0.00,,---,1.83,VWS V14.01,2013-02-28 14:25:00,
2013-02-28 09:26:00,42.8,35.8,29.29,NE,45,0.0,0.9,76,0.00,,---,1.83,VWS V14.01,2013-02-28 14:26:00,
2013-02-28 09:27:00,42.8,35.8,29.29,WNW,292,2.7,2.7,76,0.00,,---,1.83,VWS V14.01,2013-02-28 14:27:00,
2013-02-28 09:28:00,42.6,35.6,29.29,West,270,0.0,2.7,76,0.00,,---,1.83,VWS V14.01,2013-02-28 14:28:00,
2013-02-28 09:29:00,40.1,35.1,29.32,SW,225,2.7,2.7,82,0.00,,---,1.83,VWS V14.01,2013-02-28 14:29:00,
2013-02-28 09:30:00,43.2,36.1,29.29,SSW,202,0.0,0.9,76,0.00,,---,1.83,VWS V14.01,2013-02-28 14:30:00,
2013-02-28 09:31:00,43.2,36.1,29.29,SE,135,0.0,0.0,76,0.00,,---,1.83,VWS V14.01,2013-02-28 14:31:00,
2013-02-28 09:32:00,43.9,36.8,29.29,SE,135,0.0,0.0,76,0.00,,---,1.83,VWS V14.01,2013-02-28 14:32:00,
2013-02-28 09:33:00,44.1,37.0,29.29,SSW,202,1.3,1.3,76,0.00,,---,1.83,VWS V14.01,2013-02-28 14:33:00,
2013-02-28 09:34:00,40.3,34.9,29.32,SW,225,0.0,0.0,81,0.00,,---,1.83,VWS V14.01,2013-02-28 14:34:00,
2013-02-28 09:35:00,45.1,38.4,29.29,East,90,1.1,1.1,77,0.00,,---,1.83,VWS V14.01,2013-02-28 14:35:00,
2013-02-28 09:36:00,45.5,38.4,29.29,East,90,0.0,1.1,76,0.00,,---,1.83,VWS V14.01,2013-02-28 14:36:00,
2013-02-28 09:37:00,45.9,38.1,29.29,East,90,0.0,0.0,74,0.00,,---,1.83,VWS V14.01,2013-02-28 14:37:00,
2013-02-28 09:38:00,45.9,38.1,29.29,East,90,0.0,0.0,74,0.00,,---,1.83,VWS V14.01,2013-02-28 14:38:00,
2013-02-28 09:39:00,40.3,35.8,29.32,South,180,0.0,0.9,84,0.00,,---,1.83,VWS V14.01,2013-02-28 14:39:00,
2013-02-28 09:40:00,46.8,38.9,29.29,East,90,0.0,0.9,74,0.00,,---,1.83,VWS V14.01,2013-02-28 14:40:00,
2013-02-28 09:41:00,46.6,38.4,29.29,East,90,1.3,1.3,73,0.00,,---,1.83,VWS V14.01,2013-02-28 14:41:00,
2013-02-28 09:42:00,46.2,37.3,29.29,SW,225,1.1,3.1,71,0.00,,---,1.83,VWS V14.01,2013-02-28 14:42:00,
2013-02-28 09:43:00,46.0,37.2,29.29,SW,225,1.1,1.3,71,0.00,,---,1.83,VWS V14.01,2013-02-28 14:43:00,
2013-02-28 09:44:00,39.7,34.7,29.32,SSW,202,1.3,1.6,82,0.00,,---,1.83,VWS V14.01,2013-02-28 14:44:00,
2013-02-28 09:45:00,45.7,36.5,29.29,East,90,1.1,1.1,70,0.00,,---,1.83,VWS V14.01,2013-02-28 14:45:00,
2013-02-28 09:46:00,46.0,35.7,29.29,East,90,3.6,3.6,67,0.00,,---,1.83,VWS V14.01,2013-02-28 14:46:00,
2013-02-28 09:47:00,46.0,35.7,29.29,ENE,68,0.0,3.6,67,0.00,,---,1.83,VWS V14.01,2013-02-28 14:47:00,
2013-02-28 09:48:00,46.0,35.7,29.29,SSW,202,1.1,1.1,67,0.00,,---,1.83,VWS V14.01,2013-02-28 14:48:00,
2013-02-28 09:49:00,39.9,35.2,29.32,East,90,1.1,2.2,83,0.00,,---,1.83,VWS V14.01,2013-02-28 14:49:00,
2013-02-28 09:50:00,47.3,36.9,29.29,SSW,202,1.1,1.1,67,0.00,,---,1.83,VWS V14.01,2013-02-28 14:50:00,
2013-02-28 09:51:00,47.3,38.0,29.29,SSW,202,1.1,1.1,70,0.00,,---,1.83,VWS V14.01,2013-02-28 14:51:00,
2013-02-28 09:52:00,47.7,38.4,29.29,SSW,202,1.1,1.1,70,0.00,,---,1.83,VWS V14.01,2013-02-28 14:52:00,
2013-02-28 09:53:00,48.0,38.3,29.29,West,270,0.9,1.1,69,0.00,,---,1.83,VWS V14.01,2013-02-28 14:53:00,
2013-02-28 09:54:00,39.9,34.9,29.32,East,90,1.6,1.6,82,0.00,,---,1.83,VWS V14.01,2013-02-28 14:54:00,
2013-02-28 09:55:00,47.8,36.7,29.29,SW,225,1.6,2.0,65,0.00,,---,1.83,VWS V14.01,2013-02-28 14:55:00,
2013-02-28 09:56:00,47.5,36.7,29.29,SW,225,1.6,1.6,66,0.00,,---,1.83,VWS V14.01,2013-02-28 14:56:00,
2013-02-28 09:57:00,47.3,35.4,29.29,SW,225,2.2,2.2,63,0.00,,---,1.83,VWS V14.01,2013-02-28 14:57:00,
2013-02-28 09:58:00,46.9,35.0,29.29,SW,225,0.9,2.5,63,0.00,,---,1.83,VWS V14.01,2013-02-28 14:58:00,
2013-02-28 09:59:00,41.0,35.6,29.32,NNW,338,1.6,1.6,81,0.00,,---,1.83,VWS V14.01,2013-02-28 14:59:00,
2013-02-28 10:00:00,46.9,35.8,29.29,WSW,248,1.3,1.6,65,0.00,,---,1.83,VWS V14.01,2013-02-28 15:00:00,
2013-02-28 10:01:00,46.8,34.4,29.29,WSW,248,1.3,1.3,62,0.00,,---,1.83,VWS V14.01,2013-02-28 15:01:00,
2013-02-28 10:02:00,46.6,33.9,29.29,WSW,248,1.3,1.3,61,0.00,,---,1.83,VWS V14.01,2013-02-28 15:02:00,
2013-02-28 10:03:00,47.3,35.0,29.29,SW,225,0.9,1.3,62,0.00,,---,1.83,VWS V14.01,2013-02-28 15:03:00,
2013-02-28 10:04:00,41.7,35.7,29.32,WSW,248,1.6,2.2,79,0.00,,---,1.83,VWS V14.01,2013-02-28 15:04:00,
2013-02-28 10:05:00,48.2,37.0,29.29,East,90,1.1,1.1,65,0.00,,---,1.83,VWS V14.01,2013-02-28 15:05:00,
2013-02-28 10:06:00,47.8,35.9,29.29,SSW,202,2.5,2.5,63,0.00,,---,1.83,VWS V14.01,2013-02-28 15:06:00,
2013-02-28 10:07:00,47.8,35.9,29.29,SSW,202,1.3,2.5,63,0.00,,---,1.83,VWS V14.01,2013-02-28 15:07:00,
2013-02-28 10:08:00,47.3,35.0,29.29,SSW,202,0.9,1.3,62,0.00,,---,1.83,VWS V14.01,2013-02-28 15:08:00,
2013-02-28 10:09:00,41.7,35.7,29.32,SW,225,1.1,1.6,79,0.00,,---,1.83,VWS V14.01,2013-02-28 15:09:00,
2013-02-28 10:10:00,47.1,34.4,29.29,SSW,202,0.0,0.9,61,0.00,,---,1.83,VWS V14.01,2013-02-28 15:10:00,
2013-02-28 10:11:00,47.3,36.2,29.29,SW,225,1.1,1.1,65,0.00,,---,1.83,VWS V14.01,2013-02-28 15:11:00,
2013-02-28 10:12:00,47.3,35.8,29.29,SW,225,1.1,1.1,64,0.00,,---,1.83,VWS V14.01,2013-02-28 15:12:00,
2013-02-28 10:13:00,47.1,35.2,29.29,SW,225,1.1,1.1,63,0.00,,---,1.83,VWS V14.01,2013-02-28 15:13:00,
2013-02-28 10:14:00,41.4,35.0,29.32,WSW,248,1.3,1.3,78,0.00,,---,1.83,VWS V14.01,2013-02-28 15:14:00,
2013-02-28 10:15:00,47.1,35.2,29.29,SW,225,1.1,1.1,63,0.00,,---,1.83,VWS V14.01,2013-02-28 15:15:00,
2013-02-28 10:16:00,46.9,35.0,29.29,SW,225,1.1,1.1,63,0.00,,---,1.83,VWS V14.01,2013-02-28 15:16:00,
2013-02-28 10:17:00,46.6,34.3,29.29,WSW,248,1.6,2.0,62,0.00,,---,1.83,VWS V14.01,2013-02-28 15:17:00,
2013-02-28 10:18:00,41.7,35.4,29.32,WSW,248,0.0,0.0,78,0.00,,---,1.83,VWS V14.01,2013-02-28 15:18:00,
2013-02-28 10:19:00,46.2,33.9,29.29,WSW,248,0.0,1.1,62,0.00,,---,1.83,VWS V14.01,2013-02-28 15:19:00,
2013-02-28 10:20:00,46.6,34.7,29.29,WSW,248,0.0,0.0,63,0.00,,---,1.83,VWS V14.01,2013-02-28 15:20:00,
2013-02-28 10:21:00,46.6,35.1,29.29,WSW,248,1.1,1.1,64,0.00,,---,1.83,VWS V14.01,2013-02-28 15:21:00,
2013-02-28 10:22:00,46.9,35.0,29.26,WSW,248,0.0,1.1,63,0.00,,---,1.83,VWS V14.01,2013-02-28 15:22:00,
2013-02-28 10:23:00,42.4,35.8,29.29,NE,45,0.0,0.0,77,0.00,,---,1.83,VWS V14.01,2013-02-28 15:23:00,
2013-02-28 10:24:00,46.9,35.4,29.26,SW,225,1.6,1.6,64,0.00,,---,1.83,VWS V14.01,2013-02-28 15:24:00,
2013-02-28 10:25:00,46.8,35.2,29.26,SW,225,1.1,1.6,64,0.00,,---,1.83,VWS V14.01,2013-02-28 15:25:00,
2013-02-28 10:26:00,46.8,34.4,29.26,SW,225,0.9,2.0,62,0.00,,---,1.83,VWS V14.01,2013-02-28 15:26:00,
2013-02-28 10:27:00,46.9,35.0,29.26,SW,225,0.0,1.3,63,0.00,,---,1.83,VWS V14.01,2013-02-28 15:27:00,
2013-02-28 10:28:00,42.6,35.6,29.29,West,270,0.9,0.9,76,0.00,,---,1.83,VWS V14.01,2013-02-28 15:28:00,
2013-02-28 10:29:00,46.8,34.4,29.26,West,270,2.0,2.0,62,0.00,,---,1.83,VWS V14.01,2013-02-28 15:29:00,
2013-02-28 10:30:00,46.6,33.9,29.26,WSW,248,1.6,2.0,61,0.00,,---,1.83,VWS V14.01,2013-02-28 15:30:00,
2013-02-28 10:31:00,46.2,32.7,29.26,NE,45,1.1,2.9,59,0.00,,---,1.83,VWS V14.01,2013-02-28 15:31:00,
2013-02-28 10:32:00,46.4,33.3,29.26,SSW,202,0.0,1.1,60,0.00,,---,1.83,VWS V14.01,2013-02-28 15:32:00,
2013-02-28 10:33:00,44.1,37.0,29.29,SSW,202,0.0,1.3,76,0.00,,---,1.83,VWS V14.01,2013-02-28 15:33:00,
2013-02-28 10:34:00,46.0,33.8,29.26,SSW,202,1.1,1.1,62,0.00,,---,1.83,VWS V14.01,2013-02-28 15:34:00,
2013-02-28 10:35:00,45.9,33.2,29.26,SSW,202,1.1,1.1,61,0.00,,---,1.83,VWS V14.01,2013-02-28 15:35:00,
2013-02-28 10:36:00,45.7,31.8,29.26,SSW,202,1.1,1.1,58,0.00,,---,1.83,VWS V14.01,2013-02-28 15:36:00,
2013-02-28 10:37:00,45.5,32.0,29.26,SSW,202,1.1,1.1,59,0.00,,---,1.83,VWS V14.01,2013-02-28 15:37:00,
2013-02-28 10:38:00,45.9,38.0,29.29,East,90,0.9,1.1,74,0.00,,---,1.83,VWS V14.01,2013-02-28 15:38:00,
2013-02-28 10:39:00,45.3,32.7,29.26,SSW,202,1.1,1.1,61,0.00,,---,1.83,VWS V14.01,2013-02-28 15:39:00,
2013-02-28 10:40:00,45.1,32.1,29.26,SSW,202,1.1,1.1,60,0.00,,---,1.83,VWS V14.01,2013-02-28 15:40:00,
2013-02-28 10:41:00,45.0,31.9,29.26,SSW,202,1.1,1.1,60,0.00,,---,1.83,VWS V14.01,2013-02-28 15:41:00,
2013-02-28 10:42:00,45.3,33.1,29.26,SSW,202,1.1,1.1,62,0.00,,---,1.83,VWS V14.01,2013-02-28 15:42:00,
2013-02-28 10:43:00,45.7,36.5,29.29,SW,225,1.1,1.1,70,0.00,,---,1.83,VWS V14.01,2013-02-28 15:43:00,
2013-02-28 10:44:00,45.7,33.8,29.26,SSW,202,1.1,1.1,63,0.00,,---,1.83,VWS V14.01,2013-02-28 15:44:00,
2013-02-28 10:45:00,46.0,34.2,29.26,ESE,112,0.0,1.1,63,0.00,,---,1.83,VWS V14.01,2013-02-28 15:45:00,
2013-02-28 10:46:00,46.4,34.5,29.26,ESE,112,0.9,1.1,63,0.00,,---,1.83,VWS V14.01,2013-02-28 15:46:00,
2013-02-28 10:47:00,46.4,33.7,29.26,East,90,1.3,2.5,61,0.00,,---,1.83,VWS V14.01,2013-02-28 15:47:00,
2013-02-28 10:48:00,46.9,36.6,29.29,South,180,1.1,1.1,67,0.00,,---,1.83,VWS V14.01,2013-02-28 15:48:00,
2013-02-28 10:49:00,46.9,33.4,29.26,East,90,2.5,2.5,59,0.00,,---,1.83,VWS V14.01,2013-02-28 15:49:00,
2013-02-28 10:50:00,47.3,33.7,29.26,East,90,1.3,2.5,59,0.00,,---,1.83,VWS V14.01,2013-02-28 15:50:00,
2013-02-28 10:51:00,47.3,33.7,29.26,East,90,0.9,1.3,59,0.00,,---,1.83,VWS V14.01,2013-02-28 15:51:00,
2013-02-28 10:52:00,48.6,35.3,29.26,East,90,0.0,0.9,60,0.00,,---,1.83,VWS V14.01,2013-02-28 15:52:00,
2013-02-28 10:53:00,48.4,38.7,29.29,SW,225,1.6,1.6,69,0.00,,---,1.83,VWS V14.01,2013-02-28 15:53:00,
2013-02-28 10:54:00,48.7,35.1,29.26,East,90,0.0,1.3,59,0.00,,---,1.83,VWS V14.01,2013-02-28 15:54:00,
2013-02-28 10:55:00,49.1,35.8,29.26,East,90,0.0,0.0,60,0.00,,---,1.83,VWS V14.01,2013-02-28 15:55:00,
2013-02-28 10:56:00,49.1,35.4,29.26,East,90,1.6,1.6,59,0.00,,---,1.83,VWS V14.01,2013-02-28 15:56:00,
2013-02-28 10:57:00,48.9,35.7,29.26,East,90,1.1,1.6,60,0.00,,---,1.83,VWS V14.01,2013-02-28 15:57:00,
2013-02-28 10:58:00,47.1,35.6,29.29,WSW,248,1.3,1.3,64,0.00,,---,1.83,VWS V14.01,2013-02-28 15:58:00,
2013-02-28 10:59:00,48.6,34.0,29.26,East,90,1.1,1.6,57,0.00,,---,1.83,VWS V14.01,2013-02-28 15:59:00,
2013-02-28 11:00:00,48.4,34.3,29.26,East,90,1.6,1.6,58,0.00,,---,1.83,VWS V14.01,2013-02-28 16:00:00,
2013-02-28 11:01:00,47.8,34.2,29.26,West,270,2.9,2.9,59,0.00,,---,1.83,VWS V14.01,2013-02-28 16:01:00,
2013-02-28 11:02:00,47.5,33.0,29.26,West,270,2.9,2.9,57,0.00,,---,1.83,VWS V14.01,2013-02-28 16:02:00,
2013-02-28 11:03:00,47.3,35.0,29.29,South,180,0.0,0.9,62,0.00,,---,1.83,VWS V14.01,2013-02-28 16:03:00,
2013-02-28 11:04:00,47.7,34.5,29.26,East,90,1.3,1.3,60,0.00,,---,1.83,VWS V14.01,2013-02-28 16:04:00,
2013-02-28 11:05:00,47.7,33.6,29.26,East,90,1.3,1.3,58,0.00,,---,1.83,VWS V14.01,2013-02-28 16:05:00,
2013-02-28 11:06:00,47.8,33.8,29.26,East,90,1.3,1.3,58,0.00,,---,1.83,VWS V14.01,2013-02-28 16:06:00,
2013-02-28 11:07:00,47.8,33.8,29.26,East,90,1.3,1.3,58,0.00,,---,1.83,VWS V14.01,2013-02-28 16:07:00,
2013-02-28 11:08:00,47.3,35.4,29.29,SSW,202,0.9,1.3,63,0.00,,---,1.83,VWS V14.01,2013-02-28 16:08:00,
2013-02-28 11:09:00,48.0,34.0,29.26,East,90,1.1,1.1,58,0.00,,---,1.83,VWS V14.01,2013-02-28 16:09:00,
2013-02-28 11:10:00,48.0,34.4,29.26,East,90,1.1,1.1,59,0.00,,---,1.83,VWS V14.01,2013-02-28 16:10:00,
2013-02-28 11:11:00,48.0,34.8,29.26,East,90,0.0,1.1,60,0.00,,---,1.83,VWS V14.01,2013-02-28 16:11:00,
2013-02-28 11:12:00,48.0,34.0,29.26,East,90,0.0,0.0,58,0.00,,---,1.83,VWS V14.01,2013-02-28 16:12:00,
2013-02-28 11:13:00,47.1,35.6,29.29,SW,225,1.1,1.1,64,0.00,,---,1.83,VWS V14.01,2013-02-28 16:13:00,
2013-02-28 11:14:00,47.5,33.5,29.26,East,90,0.0,0.0,58,0.00,,---,1.83,VWS V14.01,2013-02-28 16:14:00,
2013-02-28 11:15:00,47.1,33.1,29.26,West,270,3.1,3.1,58,0.00,,---,1.83,VWS V14.01,2013-02-28 16:15:00,
2013-02-28 11:16:00,47.1,33.1,29.26,West,270,3.1,3.1,58,0.00,,---,1.83,VWS V14.01,2013-02-28 16:16:00,
2013-02-28 11:17:00,46.9,32.5,29.26,SW,225,0.9,3.1,57,0.00,,---,1.83,VWS V14.01,2013-02-28 16:17:00,
2013-02-28 11:18:00,46.4,34.1,29.29,WSW,248,0.0,1.1,62,0.00,,---,1.83,VWS V14.01,2013-02-28 16:18:00,
2013-02-28 11:19:00,47.1,33.1,29.26,East,90,0.0,0.9,58,0.00,,---,1.83,VWS V14.01,2013-02-28 16:19:00,
2013-02-28 11:20:00,46.8,32.8,29.26,WSW,248,2.0,2.0,58,0.00,,---,1.83,VWS V14.01,2013-02-28 16:20:00,
2013-02-28 11:21:00,46.6,32.2,29.26,SSW,202,2.0,2.2,57,0.00,,---,1.83,VWS V14.01,2013-02-28 16:21:00,
2013-02-28 11:22:00,46.6,32.2,29.26,SSW,202,1.3,2.0,57,0.00,,---,1.83,VWS V14.01,2013-02-28 16:22:00,
2013-02-28 11:23:00,46.9,35.4,29.26,SW,225,1.6,1.6,64,0.00,,---,1.83,VWS V14.01,2013-02-28 16:23:00,
2013-02-28 11:24:00,46.2,31.8,29.26,South,180,1.3,2.0,57,0.00,,---,1.83,VWS V14.01,2013-02-28 16:24:00,
2013-02-28 11:25:00,46.2,32.3,29.26,SSW,202,1.1,1.3,58,0.00,,---,1.83,VWS V14.01,2013-02-28 16:25:00,
2013-02-28 11:26:00,46.2,32.3,29.26,SSW,202,1.3,1.3,58,0.00,,---,1.83,VWS V14.01,2013-02-28 16:26:00,
2013-02-28 11:27:00,46.4,32.9,29.26,SSW,202,0.0,1.3,59,0.00,,---,1.83,VWS V14.01,2013-02-28 16:27:00,
2013-02-28 11:28:00,46.8,34.4,29.26,West,270,2.0,2.0,62,0.00,,---,1.83,VWS V14.01,2013-02-28 16:28:00,
2013-02-28 11:29:00,46.6,33.5,29.26,SSW,202,0.9,0.9,60,0.00,,---,1.83,VWS V14.01,2013-02-28 16:29:00,
2013-02-28 11:30:00,46.8,33.6,29.26,SSW,202,2.0,2.0,60,0.00,,---,1.83,VWS V14.01,2013-02-28 16:30:00,
2013-02-28 11:31:00,46.8,33.6,29.26,SSW,202,1.3,2.0,60,0.00,,---,1.83,VWS V14.01,2013-02-28 16:31:00,
2013-02-28 11:32:00,46.8,33.2,29.26,SSW,202,1.3,1.3,59,0.00,,---,1.83,VWS V14.01,2013-02-28 16:32:00,
2013-02-28 11:33:00,46.4,33.7,29.26,SSW,202,1.1,1.1,61,0.00,,---,1.83,VWS V14.01,2013-02-28 16:33:00,
2013-02-28 11:34:00,46.9,33.4,29.26,West,270,1.1,1.3,59,0.00,,---,1.83,VWS V14.01,2013-02-28 16:34:00,
2013-02-28 11:35:00,46.9,33.4,29.26,West,270,1.1,1.1,59,0.00,,---,1.83,VWS V14.01,2013-02-28 16:35:00,
2013-02-28 11:36:00,47.3,34.1,29.26,West,270,0.0,1.1,60,0.00,,---,1.83,VWS V14.01,2013-02-28 16:36:00,
2013-02-28 11:37:00,48.0,34.8,29.26,West,270,0.0,0.0,60,0.00,,---,1.83,VWS V14.01,2013-02-28 16:37:00,
2013-02-28 11:38:00,45.3,32.7,29.26,SSW,202,1.1,1.1,61,0.00,,---,1.83,VWS V14.01,2013-02-28 16:38:00,
2013-02-28 11:39:00,49.3,36.0,29.26,SSW,202,0.9,1.3,60,0.00,,---,1.83,VWS V14.01,2013-02-28 16:39:00,
2013-02-28 11:40:00,49.5,36.2,29.26,East,90,1.1,1.1,60,0.00,,---,1.83,VWS V14.01,2013-02-28 16:40:00,
2013-02-28 11:41:00,50.2,35.1,29.26,North,0,2.0,2.0,56,0.00,,---,1.83,VWS V14.01,2013-02-28 16:41:00,
2013-02-28 11:42:00,50.5,36.3,29.26,WNW,292,1.3,2.0,58,0.00,,---,1.83,VWS V14.01,2013-02-28 16:42:00,
2013-02-28 11:43:00,45.7,33.8,29.26,SSW,202,1.1,1.1,63,0.00,,---,1.83,VWS V14.01,2013-02-28 16:43:00,
2013-02-28 11:44:00,51.1,36.8,29.26,WNW,292,1.3,1.3,58,0.00,,---,1.83,VWS V14.01,2013-02-28 16:44:00,
2013-02-28 11:45:00,51.6,37.3,29.26,SSE,158,0.0,1.3,58,0.00,,---,1.83,VWS V14.01,2013-02-28 16:45:00,
2013-02-28 11:46:00,52.2,38.3,29.26,East,90,3.4,3.4,59,0.00,,---,1.83,VWS V14.01,2013-02-28 16:46:00,
2013-02-28 11:47:00,52.2,36.0,29.26,East,90,2.7,3.4,54,0.00,,---,1.83,VWS V14.01,2013-02-28 16:47:00,
2013-02-28 11:48:00,46.8,33.2,29.26,East,90,1.3,2.5,59,0.00,,---,1.83,VWS V14.01,2013-02-28 16:48:00,
2013-02-28 11:49:00,52.7,36.5,29.26,East,90,0.0,1.1,54,0.00,,---,1.83,VWS V14.01,2013-02-28 16:49:00,
2013-02-28 11:50:00,53.2,37.0,29.26,East,90,1.3,1.3,54,0.00,,---,1.83,VWS V14.01,2013-02-28 16:50:00,
2013-02-28 11:51:00,53.2,37.0,29.26,East,90,0.0,1.3,54,0.00,,---,1.83,VWS V14.01,2013-02-28 16:51:00,
2013-02-28 11:52:00,54.5,38.2,29.26,East,90,0.9,1.1,54,0.00,,---,1.83,VWS V14.01,2013-02-28 16:52:00,
2013-02-28 11:53:00,48.7,35.1,29.26,East,90,0.9,1.3,59,0.00,,---,1.83,VWS V14.01,2013-02-28 16:53:00,
2013-02-28 11:54:00,54.9,38.5,29.26,East,90,1.3,1.3,54,0.00,,---,1.83,VWS V14.01,2013-02-28 16:54:00,
2013-02-28 11:55:00,55.2,38.9,29.26,East,90,0.9,1.3,54,0.00,,---,1.83,VWS V14.01,2013-02-28 16:55:00,
2013-02-28 11:56:00,55.2,38.9,29.26,SW,225,3.1,3.1,54,0.00,,---,1.83,VWS V14.01,2013-02-28 16:56:00,
2013-02-28 11:57:00,54.7,36.9,29.26,SW,225,0.9,3.1,51,0.00,,---,1.83,VWS V14.01,2013-02-28 16:57:00,
2013-02-28 11:58:00,48.6,34.0,29.26,East,90,1.1,1.6,57,0.00,,---,1.83,VWS V14.01,2013-02-28 16:58:00,
2013-02-28 11:59:00,54.7,36.9,29.26,SE,135,1.1,1.3,51,0.00,,---,1.83,VWS V14.01,2013-02-28 16:59:00,
2013-02-28 12:00:00,53.8,35.6,29.26,SE,135,0.0,1.1,50,0.00,,---,1.83,VWS V14.01,2013-02-28 17:00:00,
2013-02-28 12:01:00,54.1,36.9,29.26,SE,135,0.9,0.9,52,0.00,,---,1.83,VWS V14.01,2013-02-28 17:01:00,
2013-02-28 12:02:00,54.3,36.1,29.26,East,90,2.9,3.1,50,0.00,,---,1.83,VWS V14.01,2013-02-28 17:02:00,
2013-02-28 12:03:00,47.5,33.9,29.26,SE,135,0.0,0.0,59,0.00,,---,1.83,VWS V14.01,2013-02-28 17:03:00,
2013-02-28 12:04:00,54.0,34.7,29.26,East,90,0.0,2.0,48,0.00,,---,1.83,VWS V14.01,2013-02-28 17:04:00,
2013-02-28 12:05:00,53.8,35.6,29.26,East,90,1.6,1.6,50,0.00,,---,1.83,VWS V14.01,2013-02-28 17:05:00,
2013-02-28 12:06:00,53.2,34.6,29.26,SW,225,2.0,2.7,49,0.00,,---,1.83,VWS V14.01,2013-02-28 17:06:00,
2013-02-28 12:07:00,52.7,34.6,29.26,WSW,248,2.9,2.9,50,0.00,,---,1.83,VWS V14.01,2013-02-28 17:07:00,
2013-02-28 12:08:00,48.0,34.0,29.26,East,90,1.1,1.1,58,0.00,,---,1.83,VWS V14.01,2013-02-28 17:08:00,
2013-02-28 12:09:00,52.7,34.1,29.26,South,180,1.6,1.6,49,0.00,,---,1.83,VWS V14.01,2013-02-28 17:09:00,
2013-02-28 12:10:00,51.8,33.3,29.26,South,180,2.0,2.7,49,0.00,,---,1.83,VWS V14.01,2013-02-28 17:10:00,
2013-02-28 12:11:00,51.8,33.3,29.26,SSE,158,1.1,2.0,49,0.00,,---,1.83,VWS V14.01,2013-02-28 17:11:00,
2013-02-28 12:12:00,51.8,34.3,29.26,South,180,0.9,1.1,51,0.00,,---,1.83,VWS V14.01,2013-02-28 17:12:00,
2013-02-28 12:13:00,47.5,33.5,29.26,East,90,0.0,0.0,58,0.00,,---,1.83,VWS V14.01,2013-02-28 17:13:00,
2013-02-28 12:14:00,52.0,34.4,29.26,South,180,0.0,0.0,51,0.00,,---,1.83,VWS V14.01,2013-02-28 17:14:00,
2013-02-28 12:15:00,52.7,35.6,29.26,SSW,202,1.1,1.1,52,0.00,,---,1.83,VWS V14.01,2013-02-28 17:15:00,
2013-02-28 12:16:00,53.1,35.4,29.26,SW,225,1.3,2.0,51,0.00,,---,1.83,VWS V14.01,2013-02-28 17:16:00,
2013-02-28 12:17:00,53.8,36.1,29.26,SW,225,0.0,1.3,51,0.00,,---,1.83,VWS V14.01,2013-02-28 17:17:00,
2013-02-28 12:18:00,47.1,33.1,29.26,East,90,0.9,0.9,58,0.00,,---,1.83,VWS V14.01,2013-02-28 17:18:00,
2013-02-28 12:19:00,54.0,35.2,29.26,NE,45,1.6,2.0,49,0.00,,---,1.83,VWS V14.01,2013-02-28 17:19:00,
2013-02-28 12:20:00,53.8,35.1,29.26,South,180,1.3,1.6,49,0.00,,---,1.83,VWS V14.01,2013-02-28 17:20:00,
2013-02-28 12:21:00,53.6,35.4,29.26,SSW,202,1.3,2.7,50,0.00,,---,1.83,VWS V14.01,2013-02-28 17:21:00,
2013-02-28 12:22:00,53.2,35.1,29.23,SSW,202,0.9,1.3,50,0.00,,---,1.83,VWS V14.01,2013-02-28 17:22:00,
2013-02-28 12:23:00,46.2,31.8,29.26,South,180,2.0,2.0,57,0.00,,---,1.83,VWS V14.01,2013-02-28 17:23:00,
2013-02-28 12:24:00,53.1,34.9,29.23,NE,45,1.1,1.3,50,0.00,,---,1.83,VWS V14.01,2013-02-28 17:24:00,
2013-02-28 12:25:00,53.1,34.4,29.23,NE,45,1.1,1.1,49,0.00,,---,1.83,VWS V14.01,2013-02-28 17:25:00,
2013-02-28 12:26:00,53.2,35.1,29.23,East,90,1.1,1.1,50,0.00,,---,1.83,VWS V14.01,2013-02-28 17:26:00,
2013-02-28 12:27:00,53.1,34.4,29.23,NE,45,1.1,2.9,49,0.00,,---,1.83,VWS V14.01,2013-02-28 17:27:00,
2013-02-28 12:28:00,46.6,33.5,29.26,SSW,202,0.9,0.9,60,0.00,,---,1.83,VWS V14.01,2013-02-28 17:28:00,
2013-02-28 12:29:00,53.1,34.4,29.23,ENE,68,1.6,3.4,49,0.00,,---,1.83,VWS V14.01,2013-02-28 17:29:00,
2013-02-28 12:30:00,53.2,34.6,29.23,ENE,68,0.0,1.6,49,0.00,,---,1.83,VWS V14.01,2013-02-28 17:30:00,
2013-02-28 12:31:00,53.4,34.8,29.23,ENE,68,2.0,2.2,49,0.00,,---,1.83,VWS V14.01,2013-02-28 17:31:00,
2013-02-28 12:32:00,53.8,34.6,29.23,ENE,68,1.6,2.5,48,0.00,,---,1.83,VWS V14.01,2013-02-28 17:32:00,
2013-02-28 12:33:00,46.8,33.2,29.26,West,270,1.3,1.3,59,0.00,,---,1.83,VWS V14.01,2013-02-28 17:33:00,
2013-02-28 12:34:00,53.6,34.4,29.23,NE,45,0.9,2.7,48,0.00,,---,1.83,VWS V14.01,2013-02-28 17:34:00,
2013-02-28 12:35:00,53.6,34.4,29.23,East,90,1.6,1.6,48,0.00,,---,1.83,VWS V14.01,2013-02-28 17:35:00,
2013-02-28 12:36:00,53.1,33.9,29.23,East,90,1.3,2.7,48,0.00,,---,1.83,VWS V14.01,2013-02-28 17:36:00,
2013-02-28 12:37:00,52.7,33.6,29.23,East,90,1.6,2.7,48,0.00,,---,1.83,VWS V14.01,2013-02-28 17:37:00,
2013-02-28 12:38:00,49.3,36.0,29.26,East,90,1.1,1.3,60,0.00,,---,1.83,VWS V14.01,2013-02-28 17:38:00,
2013-02-28 12:39:00,52.9,34.3,29.23,East,90,0.0,2.0,49,0.00,,---,1.83,VWS V14.01,2013-02-28 17:39:00,
2013-02-28 12:40:00,53.2,34.6,29.23,East,90,1.1,1.1,49,0.00,,---,1.83,VWS V14.01,2013-02-28 17:40:00,
2013-02-28 12:41:00,53.6,34.9,29.23,East,90,1.3,2.0,49,0.00,,---,1.83,VWS V14.01,2013-02-28 17:41:00,
2013-02-28 12:42:00,53.1,33.9,29.23,NW,315,0.9,3.8,48,0.00,,---,1.83,VWS V14.01,2013-02-28 17:42:00,
2013-02-28 12:43:00,51.1,36.8,29.26,WNW,292,1.3,1.3,58,0.00,,---,1.83,VWS V14.01,2013-02-28 17:43:00,
2013-02-28 12:44:00,52.9,33.7,29.23,NE,45,2.7,4.3,48,0.00,,---,1.83,VWS V14.01,2013-02-28 17:44:00,
2013-02-28 12:45:00,53.1,33.9,29.23,NE,45,3.4,3.4,48,0.00,,---,1.83,VWS V14.01,2013-02-28 17:45:00,
2013-02-28 12:46:00,53.1,33.4,29.23,East,90,2.5,3.6,47,0.00,,---,1.83,VWS V14.01,2013-02-28 17:46:00,
2013-02-28 12:47:00,53.2,34.1,29.23,East,90,1.3,2.5,48,0.00,,---,1.83,VWS V14.01,2013-02-28 17:47:00,
2013-02-28 12:48:00,52.2,36.0,29.26,East,90,0.0,1.1,54,0.00,,---,1.83,VWS V14.01,2013-02-28 17:48:00,
2013-02-28 12:49:00,53.2,33.5,29.23,East,90,0.9,2.9,47,0.00,,---,1.83,VWS V14.01,2013-02-28 17:49:00,
2013-02-28 12:50:00,53.2,33.5,29.23,SSW,202,1.6,1.6,47,0.00,,---,1.83,VWS V14.01,2013-02-28 17:50:00,
2013-02-28 12:51:00,53.2,33.5,29.23,SSW,202,2.0,2.0,47,0.00,,---,1.83,VWS V14.01,2013-02-28 17:51:00,
2013-02-28 12:52:00,53.4,34.2,29.23,SSW,202,1.3,2.0,48,0.00,,---,1.83,VWS V14.01,2013-02-28 17:52:00,
2013-02-28 12:53:00,54.9,38.5,29.26,East,90,1.3,1.3,54,0.00,,---,1.83,VWS V14.01,2013-02-28 17:53:00,
2013-02-28 12:54:00,53.4,34.2,29.23,East,90,2.2,2.5,48,0.00,,---,1.83,VWS V14.01,2013-02-28 17:54:00,
2013-02-28 12:55:00,53.4,34.2,29.23,East,90,2.2,2.2,48,0.00,,---,1.83,VWS V14.01,2013-02-28 17:55:00,
2013-02-28 12:56:00,53.4,34.2,29.23,East,90,1.1,2.2,48,0.00,,---,1.83,VWS V14.01,2013-02-28 17:56:00,
2013-02-28 12:57:00,53.4,34.2,29.23,North,0,1.6,1.6,48,0.00,,---,1.83,VWS V14.01,2013-02-28 17:57:00,
2013-02-28 12:58:00,54.7,36.9,29.26,SE,135,1.3,1.3,51,0.00,,---,1.83,VWS V14.01,2013-02-28 17:58:00,
2013-02-28 12:59:00,52.9,33.7,29.23,North,0,1.6,1.6,48,0.00,,---,1.83,VWS V14.01,2013-02-28 17:59:00,
2013-02-28 13:00:00,52.9,33.7,29.23,North,0,1.6,1.6,48,0.00,,---,1.83,VWS V14.01,2013-02-28 18:00:00,
2013-02-28 13:01:00,52.9,33.7,29.23,North,0,1.6,1.6,48,0.00,,---,1.83,VWS V14.01,2013-02-28 18:01:00,
2013-02-28 13:02:00,52.9,33.7,29.23,North,0,1.6,1.6,48,0.00,,---,1.83,VWS V14.01,2013-02-28 18:02:00,
2013-02-28 13:03:00,53.6,34.4,29.26,East,90,0.0,2.0,48,0.00,,---,1.83,VWS V14.01,2013-02-28 18:03:00,
2013-02-28 13:04:00,52.9,33.7,29.23,North,0,1.6,1.6,48,0.00,,---,1.83,VWS V14.01,2013-02-28 18:04:00,
2013-02-28 13:05:00,50.2,31.8,29.23,North,0,1.6,1.6,49,0.00,,---,1.83,VWS V14.01,2013-02-28 18:05:00,
2013-02-28 13:06:00,50.2,31.8,29.23,North,0,1.6,1.6,49,0.00,,---,1.83,VWS V14.01,2013-02-28 18:06:00,
2013-02-28 13:07:00,50.2,31.8,29.23,North,0,1.6,1.6,49,0.00,,---,1.83,VWS V14.01,2013-02-28 18:07:00,
2013-02-28 13:08:00,52.7,34.1,29.26,South,180,1.1,1.6,49,0.00,,---,1.83,VWS V14.01,2013-02-28 18:08:00,
2013-02-28 13:09:00,49.3,31.0,29.23,SW,225,0.0,1.1,49,0.00,,---,1.83,VWS V14.01,2013-02-28 18:09:00,
2013-02-28 13:10:00,49.5,31.6,29.23,SW,225,0.0,0.0,50,0.00,,---,1.83,VWS V14.01,2013-02-28 18:10:00,
2013-02-28 13:11:00,49.5,31.6,29.23,SW,225,0.0,0.0,50,0.00,,---,1.83,VWS V14.01,2013-02-28 18:11:00,
2013-02-28 13:12:00,49.3,31.4,29.23,SW,225,0.0,0.0,50,0.00,,---,1.83,VWS V14.01,2013-02-28 18:12:00,
2013-02-28 13:13:00,52.0,34.4,29.26,South,180,0.0,0.0,51,0.00,,---,1.83,VWS V14.01,2013-02-28 18:13:00,
2013-02-28 13:14:00,49.6,31.8,29.23,SW,225,0.0,0.0,50,0.00,,---,1.83,VWS V14.01,2013-02-28 18:14:00,
2013-02-28 13:15:00,50.0,32.1,29.23,SW,225,0.0,0.0,50,0.00,,---,1.83,VWS V14.01,2013-02-28 18:15:00,
2013-02-28 13:16:00,50.0,32.1,29.23,SW,225,0.0,0.0,50,0.00,,---,1.83,VWS V14.01,2013-02-28 18:16:00,
2013-02-28 13:17:00,50.2,32.3,29.23,SSW,202,2.2,2.2,50,0.00,,---,1.83,VWS V14.01,2013-02-28 18:17:00,
2013-02-28 13:18:00,53.8,35.6,29.26,NE,45,2.0,2.0,50,0.00,,---,1.83,VWS V14.01,2013-02-28 18:18:00,
2013-02-28 13:19:00,50.0,32.1,29.23,SW,225,2.0,2.0,50,0.00,,---,1.83,VWS V14.01,2013-02-28 18:19:00,
2013-02-28 13:20:00,49.6,31.8,29.23,West,270,2.0,2.5,50,0.00,,---,1.83,VWS V14.01,2013-02-28 18:20:00,
2013-02-28 13:21:00,49.8,31.9,29.23,SE,135,1.1,2.7,50,0.00,,---,1.83,VWS V14.01,2013-02-28 18:21:00,
2013-02-28 13:22:00,49.8,31.9,29.23,SE,135,1.1,1.1,50,0.00,,---,1.83,VWS V14.01,2013-02-28 18:22:00,
2013-02-28 13:23:00,53.1,34.9,29.23,NE,45,1.3,1.3,50,0.00,,---,1.83,VWS V14.01,2013-02-28 18:23:00,
2013-02-28 13:24:00,50.0,32.6,29.23,ESE,112,1.1,1.6,51,0.00,,---,1.83,VWS V14.01,2013-02-28 18:24:00,
2013-02-28 13:25:00,50.2,32.3,29.23,East,90,1.3,1.6,50,0.00,,---,1.83,VWS V14.01,2013-02-28 18:25:00,
2013-02-28 13:26:00,50.2,32.3,29.23,SE,135,2.5,2.5,50,0.00,,---,1.83,VWS V14.01,2013-02-28 18:26:00,
2013-02-28 13:27:00,50.4,32.4,29.23,WNW,292,0.0,2.5,50,0.00,,---,1.83,VWS V14.01,2013-02-28 18:27:00,
2013-02-28 13:28:00,53.1,33.9,29.23,ENE,68,1.3,3.4,48,0.00,,---,1.83,VWS V14.01,2013-02-28 18:28:00,
2013-02-28 13:29:00,50.7,33.3,29.23,South,180,0.0,0.0,51,0.00,,---,1.83,VWS V14.01,2013-02-28 18:29:00,
2013-02-28 13:30:00,50.9,33.4,29.23,South,180,0.9,0.9,51,0.00,,---,1.83,VWS V14.01,2013-02-28 18:30:00,
2013-02-28 13:31:00,51.1,33.6,29.23,South,180,0.0,0.9,51,0.00,,---,1.83,VWS V14.01,2013-02-28 18:31:00,
2013-02-28 13:32:00,51.6,34.1,29.23,South,180,0.0,0.0,51,0.00,,---,1.83,VWS V14.01,2013-02-28 18:32:00,
2013-02-28 13:33:00,53.8,34.6,29.23,NE,45,2.0,2.7,48,0.00,,---,1.83,VWS V14.01,2013-02-28 18:33:00,
2013-02-28 13:34:00,52.2,34.6,29.23,West,270,1.1,2.5,51,0.00,,---,1.83,VWS V14.01,2013-02-28 18:34:00,
2013-02-28 13:35:00,51.6,33.6,29.23,NW,315,2.0,2.0,50,0.00,,---,1.83,VWS V14.01,2013-02-28 18:35:00,
2013-02-28 13:36:00,51.8,33.8,29.23,WSW,248,1.1,2.0,50,0.00,,---,1.83,VWS V14.01,2013-02-28 18:36:00,
2013-02-28 13:37:00,51.8,34.3,29.23,ESE,112,0.0,1.1,51,0.00,,---,1.83,VWS V14.01,2013-02-28 18:37:00,
2013-02-28 13:38:00,52.9,34.3,29.23,East,90,2.0,2.0,49,0.00,,---,1.83,VWS V14.01,2013-02-28 18:38:00,
2013-02-28 13:39:00,51.1,32.6,29.23,ESE,112,0.0,0.0,49,0.00,,---,1.83,VWS V14.01,2013-02-28 18:39:00,
2013-02-28 13:40:00,50.4,31.9,29.23,East,90,3.4,3.4,49,0.00,,---,1.83,VWS V14.01,2013-02-28 18:40:00,
2013-02-28 13:41:00,50.4,31.9,29.23,East,90,1.6,4.3,49,0.00,,---,1.83,VWS V14.01,2013-02-28 18:41:00,
2013-02-28 13:42:00,49.6,31.3,29.23,East,90,1.6,1.6,49,0.00,,---,1.83,VWS V14.01,2013-02-28 18:42:00,
2013-02-28 13:43:00,52.9,33.2,29.23,ENE,68,3.4,4.3,47,0.00,,---,1.83,VWS V14.01,2013-02-28 18:43:00,
2013-02-28 13:44:00,49.1,31.3,29.23,East,90,0.0,0.0,50,0.00,,---,1.83,VWS V14.01,2013-02-28 18:44:00,
2013-02-28 13:45:00,49.1,31.3,29.23,East,90,0.0,0.0,50,0.00,,---,1.83,VWS V14.01,2013-02-28 18:45:00,
2013-02-28 13:46:00,49.1,31.3,29.23,East,90,0.0,0.0,50,0.00,,---,1.83,VWS V14.01,2013-02-28 18:46:00,
2013-02-28 13:47:00,48.6,30.8,29.23,East,90,0.0,0.0,50,0.00,,---,1.83,VWS V14.01,2013-02-28 18:47:00,
2013-02-28 13:48:00,53.2,33.5,29.23,East,90,0.9,2.9,47,0.00,,---,1.83,VWS V14.01,2013-02-28 18:48:00,
2013-02-28 13:49:00,48.4,31.1,29.23,East,90,0.0,0.0,51,0.00,,---,1.83,VWS V14.01,2013-02-28 18:49:00,
2013-02-28 13:50:00,48.4,31.1,29.23,East,90,1.1,1.1,51,0.00,,---,1.83,VWS V14.01,2013-02-28 18:50:00,
2013-02-28 13:51:00,48.4,31.1,29.23,West,270,1.3,1.3,51,0.00,,---,1.83,VWS V14.01,2013-02-28 18:51:00,
2013-02-28 13:52:00,48.4,31.1,29.20,SE,135,0.0,1.3,51,0.00,,---,1.83,VWS V14.01,2013-02-28 18:52:00,
2013-02-28 13:53:00,53.4,34.2,29.23,East,90,2.5,2.5,48,0.00,,---,1.83,VWS V14.01,2013-02-28 18:53:00,
2013-02-28 13:54:00,47.8,30.6,29.20,SE,135,0.0,0.0,51,0.00,,---,1.83,VWS V14.01,2013-02-28 18:54:00,
2013-02-28 13:55:00,47.7,30.4,29.20,SE,135,0.0,0.0,51,0.00,,---,1.83,VWS V14.01,2013-02-28 18:55:00,
2013-02-28 13:56:00,47.5,30.8,29.20,SE,135,0.0,0.0,52,0.00,,---,1.83,VWS V14.01,2013-02-28 18:56:00,
2013-02-28 13:57:00,47.7,30.9,29.20,NW,315,0.0,0.9,52,0.00,,---,1.83,VWS V14.01,2013-02-28 18:57:00,
2013-02-28 13:58:00,53.4,34.2,29.23,North,0,1.6,1.6,48,0.00,,---,1.83,VWS V14.01,2013-02-28 18:58:00,
2013-02-28 13:59:00,47.3,30.6,29.20,SSW,202,0.9,0.9,52,0.00,,---,1.83,VWS V14.01,2013-02-28 18:59:00,
2013-02-28 14:00:00,47.3,30.6,29.20,SSW,202,0.9,0.9,52,0.00,,---,1.83,VWS V14.01,2013-02-28 19:00:00,
2013-02-28 14:01:00,47.1,30.4,29.20,SSW,202,0.9,0.9,52,0.00,,---,1.83,VWS V14.01,2013-02-28 19:01:00,
2013-02-28 14:02:00,47.1,30.9,29.20,WSW,248,2.7,2.7,53,0.00,,---,1.83,VWS V14.01,2013-02-28 19:02:00,
2013-02-28 14:03:00,52.9,33.7,29.23,North,0,1.6,1.6,48,0.00,,---,1.83,VWS V14.01,2013-02-28 19:03:00,
2013-02-28 14:04:00,46.6,30.4,29.20,West,270,2.9,2.9,53,0.00,,---,1.83,VWS V14.01,2013-02-28 19:04:00,
2013-02-28 14:05:00,46.4,30.2,29.20,West,270,2.9,2.9,53,0.00,,---,1.83,VWS V14.01,2013-02-28 19:05:00,
2013-02-28 14:06:00,46.4,30.2,29.20,West,270,2.9,2.9,53,0.00,,---,1.83,VWS V14.01,2013-02-28 19:06:00,
2013-02-28 14:07:00,46.2,30.5,29.20,West,270,2.9,2.9,54,0.00,,---,1.83,VWS V14.01,2013-02-28 19:07:00,
2013-02-28 14:08:00,49.3,31.0,29.23,SW,225,0.0,1.1,49,0.00,,---,1.83,VWS V14.01,2013-02-28 19:08:00,
2013-02-28 14:09:00,46.2,30.5,29.20,West,270,2.9,2.9,54,0.00,,---,1.83,VWS V14.01,2013-02-28 19:09:00,
2013-02-28 14:10:00,46.4,30.7,29.20,West,270,2.9,2.9,54,0.00,,---,1.83,VWS V14.01,2013-02-28 19:10:00,
2013-02-28 14:11:00,46.4,30.7,29.20,West,270,2.9,2.9,54,0.00,,---,1.83,VWS V14.01,2013-02-28 19:11:00,
2013-02-28 14:12:00,46.4,30.2,29.20,West,270,2.9,2.9,53,0.00,,---,1.83,VWS V14.01,2013-02-28 19:12:00,
2013-02-28 14:13:00,49.3,31.5,29.23,SW,225,0.0,0.0,50,0.00,,---,1.83,VWS V14.01,2013-02-28 19:13:00,
2013-02-28 14:14:00,46.4,30.2,29.20,West,270,2.9,2.9,53,0.00,,---,1.83,VWS V14.01,2013-02-28 19:14:00,
2013-02-28 14:15:00,46.6,30.8,29.20,West,270,2.9,2.9,54,0.00,,---,1.83,VWS V14.01,2013-02-28 19:15:00,
2013-02-28 14:16:00,46.8,31.0,29.20,West,270,2.9,2.9,54,0.00,,---,1.83,VWS V14.01,2013-02-28 19:16:00,
2013-02-28 14:17:00,46.8,31.0,29.20,West,270,2.9,2.9,54,0.00,,---,1.83,VWS V14.01,2013-02-28 19:17:00,
2013-02-28 14:18:00,50.0,32.1,29.23,SW,225,2.0,2.0,50,0.00,,---,1.83,VWS V14.01,2013-02-28 19:18:00,
2013-02-28 14:19:00,46.8,30.5,29.20,West,270,2.9,2.9,53,0.00,,---,1.83,VWS V14.01,2013-02-28 19:19:00,
2013-02-28 14:20:00,46.6,30.8,29.20,West,270,2.9,2.9,54,0.00,,---,1.83,VWS V14.01,2013-02-28 19:20:00,
2013-02-28 14:21:00,46.6,30.8,29.20,West,270,2.9,2.9,54,0.00,,---,1.83,VWS V14.01,2013-02-28 19:21:00,
2013-02-28 14:22:00,46.6,30.8,29.20,West,270,2.9,2.9,54,0.00,,---,1.83,VWS V14.01,2013-02-28 19:22:00,
2013-02-28 14:23:00,50.0,32.6,29.23,West,270,1.1,1.6,51,0.00,,---,1.83,VWS V14.01,2013-02-28 19:23:00,
2013-02-28 14:24:00,46.8,31.0,29.20,West,270,2.9,2.9,54,0.00,,---,1.83,VWS V14.01,2013-02-28 19:24:00,
2013-02-28 14:25:00,46.8,31.0,29.20,West,270,2.9,2.9,54,0.00,,---,1.83,VWS V14.01,2013-02-28 19:25:00,
2013-02-28 14:26:00,46.8,31.0,29.20,West,270,2.9,2.9,54,0.00,,---,1.83,VWS V14.01,2013-02-28 19:26:00,
2013-02-28 14:27:00,46.6,30.8,29.20,West,270,2.9,2.9,54,0.00,,---,1.83,VWS V14.01,2013-02-28 19:27:00,
2013-02-28 14:28:00,50.5,32.6,29.23,South,180,0.0,0.0,50,0.00,,---,1.83,VWS V14.01,2013-02-28 19:28:00,
2013-02-28 14:29:00,46.2,31.0,29.20,West,270,2.9,2.9,55,0.00,,---,1.83,VWS V14.01,2013-02-28 19:29:00,
2013-02-28 14:30:00,46.2,31.0,29.20,West,270,2.9,2.9,55,0.00,,---,1.83,VWS V14.01,2013-02-28 19:30:00,
2013-02-28 14:31:00,46.2,31.0,29.20,West,270,2.9,2.9,55,0.00,,---,1.83,VWS V14.01,2013-02-28 19:31:00,
2013-02-28 14:32:00,46.2,31.0,29.20,NE,45,4.0,4.0,55,0.00,,---,1.83,VWS V14.01,2013-02-28 19:32:00,
2013-02-28 14:33:00,52.2,34.6,29.23,West,270,2.0,2.0,51,0.00,,---,1.83,VWS V14.01,2013-02-28 19:33:00,
2013-02-28 14:34:00,45.9,30.6,29.20,East,90,1.6,1.6,55,0.00,,---,1.83,VWS V14.01,2013-02-28 19:34:00,
2013-02-28 14:35:00,45.7,30.5,29.20,East,90,1.6,1.6,55,0.00,,---,1.83,VWS V14.01,2013-02-28 19:35:00,
2013-02-28 14:36:00,45.3,30.1,29.20,East,90,0.0,1.6,55,0.00,,---,1.83,VWS V14.01,2013-02-28 19:36:00,
2013-02-28 14:37:00,45.3,30.1,29.20,SW,225,0.9,0.9,55,0.00,,---,1.83,VWS V14.01,2013-02-28 19:37:00,
2013-02-28 14:38:00,51.1,32.6,29.23,ESE,112,0.0,0.0,49,0.00,,---,1.83,VWS V14.01,2013-02-28 19:38:00,
2013-02-28 14:39:00,45.1,30.4,29.20,SW,225,0.9,0.9,56,0.00,,---,1.83,VWS V14.01,2013-02-28 19:39:00,
2013-02-28 14:40:00,45.1,30.4,29.20,SW,225,0.9,0.9,56,0.00,,---,1.83,VWS V14.01,2013-02-28 19:40:00,
2013-02-28 14:41:00,45.1,30.4,29.20,SW,225,0.9,0.9,56,0.00,,---,1.83,VWS V14.01,2013-02-28 19:41:00,
2013-02-28 14:42:00,45.1,30.4,29.20,SW,225,0.9,0.9,56,0.00,,---,1.83,VWS V14.01,2013-02-28 19:42:00,
2013-02-28 14:43:00,49.3,31.5,29.23,East,90,0.0,0.0,50,0.00,,---,1.83,VWS V14.01,2013-02-28 19:43:00,
2013-02-28 14:44:00,45.1,30.8,29.20,West,270,2.0,2.0,57,0.00,,---,1.83,VWS V14.01,2013-02-28 19:44:00,
2013-02-28 14:45:00,45.1,30.8,29.20,East,90,1.3,2.0,57,0.00,,---,1.83,VWS V14.01,2013-02-28 19:45:00,
2013-02-28 14:46:00,45.1,30.8,29.20,East,90,0.9,1.3,57,0.00,,---,1.83,VWS V14.01,2013-02-28 19:46:00,
2013-02-28 14:47:00,45.1,30.8,29.20,West,270,1.3,1.3,57,0.00,,---,1.83,VWS V14.01,2013-02-28 19:47:00,
2013-02-28 14:48:00,48.4,31.1,29.23,East,90,0.0,0.0,51,0.00,,---,1.83,VWS V14.01,2013-02-28 19:48:00,
2013-02-28 14:49:00,45.0,30.7,29.20,NE,45,0.0,0.9,57,0.00,,---,1.83,VWS V14.01,2013-02-28 19:49:00,
2013-02-28 14:50:00,44.8,30.5,29.20,ENE,68,0.0,0.0,57,0.00,,---,1.83,VWS V14.01,2013-02-28 19:50:00,
2013-02-28 14:51:00,45.0,30.7,29.20,ENE,68,0.0,0.0,57,0.00,,---,1.83,VWS V14.01,2013-02-28 19:51:00,
2013-02-28 14:52:00,45.0,30.7,29.20,NE,45,0.0,1.6,57,0.00,,---,1.83,VWS V14.01,2013-02-28 19:52:00,
2013-02-28 14:53:00,47.8,30.6,29.20,SE,135,0.0,0.0,51,0.00,,---,1.83,VWS V14.01,2013-02-28 19:53:00,
2013-02-28 14:54:00,44.8,30.9,29.20,North,0,0.0,0.0,58,0.00,,---,1.83,VWS V14.01,2013-02-28 19:54:00,
2013-02-28 14:55:00,44.8,30.9,29.20,NE,45,0.0,0.0,58,0.00,,---,1.83,VWS V14.01,2013-02-28 19:55:00,
2013-02-28 14:56:00,44.8,30.5,29.20,NE,45,0.0,0.0,57,0.00,,---,1.83,VWS V14.01,2013-02-28 19:56:00,
2013-02-28 14:57:00,44.8,30.9,29.20,NE,45,0.0,0.0,58,0.00,,---,1.83,VWS V14.01,2013-02-28 19:57:00,
2013-02-28 14:58:00,47.5,30.8,29.20,SSW,202,0.9,0.9,52,0.00,,---,1.83,VWS V14.01,2013-02-28 19:58:00,
2013-02-28 14:59:00,44.8,30.9,29.20,East,90,1.1,1.1,58,0.00,,---,1.83,VWS V14.01,2013-02-28 19:59:00,
2013-02-28 15:00:00,44.6,30.8,29.20,East,90,1.1,1.1,58,0.00,,---,1.83,VWS V14.01,2013-02-28 20:00:00,
2013-02-28 15:01:00,44.8,30.9,29.20,East,90,0.9,1.1,58,0.00,,---,1.83,VWS V14.01,2013-02-28 20:01:00,
2013-02-28 15:02:00,44.8,30.9,29.20,East,90,2.5,2.5,58,0.00,,---,1.83,VWS V14.01,2013-02-28 20:02:00,
2013-02-28 15:03:00,46.6,30.4,29.20,West,270,2.9,2.9,53,0.00,,---,1.83,VWS V14.01,2013-02-28 20:03:00,
2013-02-28 15:04:00,44.8,30.9,29.20,East,90,2.0,2.7,58,0.00,,---,1.83,VWS V14.01,2013-02-28 20:04:00,
2013-02-28 15:05:00,44.8,30.9,29.20,North,0,2.5,2.5,58,0.00,,---,1.83,VWS V14.01,2013-02-28 20:05:00,
2013-02-28 15:06:00,44.6,30.8,29.20,NNE,22,0.0,2.5,58,0.00,,---,1.83,VWS V14.01,2013-02-28 20:06:00,
2013-02-28 15:07:00,44.6,30.8,29.17,NNE,22,0.0,0.0,58,0.00,,---,1.83,VWS V14.01,2013-02-28 20:07:00,
2013-02-28 15:08:00,46.2,30.5,29.20,West,270,2.9,2.9,54,0.00,,---,1.83,VWS V14.01,2013-02-28 20:08:00,
2013-02-28 15:09:00,44.4,31.0,29.17,NNE,22,0.0,0.0,59,0.00,,---,1.83,VWS V14.01,2013-02-28 20:09:00,
2013-02-28 15:10:00,44.4,31.0,29.17,NNE,22,0.0,0.0,59,0.00,,---,1.83,VWS V14.01,2013-02-28 20:10:00,
2013-02-28 15:11:00,44.4,31.0,29.17,NW,315,0.0,0.0,59,0.00,,---,1.83,VWS V14.01,2013-02-28 20:11:00,
2013-02-28 15:12:00,44.4,31.0,29.17,NW,315,0.0,0.0,59,0.00,,---,1.83,VWS V14.01,2013-02-28 20:12:00,
2013-02-28 15:13:00,46.4,30.2,29.20,West,270,2.9,2.9,53,0.00,,---,1.83,VWS V14.01,2013-02-28 20:13:00,
2013-02-28 15:14:00,44.2,30.8,29.17,NE,45,1.3,1.3,59,0.00,,---,1.83,VWS V14.01,2013-02-28 20:14:00,
2013-02-28 15:15:00,44.2,31.2,29.17,NE,45,0.0,1.3,60,0.00,,---,1.83,VWS V14.01,2013-02-28 20:15:00,
2013-02-28 15:16:00,44.2,31.2,29.17,NE,45,0.0,0.0,60,0.00,,---,1.83,VWS V14.01,2013-02-28 20:16:00,
2013-02-28 15:17:00,44.1,31.1,29.17,NE,45,0.0,0.0,60,0.00,,---,1.83,VWS V14.01,2013-02-28 20:17:00,
2013-02-28 15:18:00,46.8,31.0,29.20,West,270,2.9,2.9,54,0.00,,---,1.83,VWS V14.01,2013-02-28 20:18:00,
2013-02-28 15:19:00,44.1,31.1,29.17,NE,45,0.0,0.9,60,0.00,,---,1.83,VWS V14.01,2013-02-28 20:19:00,
2013-02-28 15:20:00,44.1,31.1,29.17,NE,45,0.0,0.0,60,0.00,,---,1.83,VWS V14.01,2013-02-28 20:20:00,
2013-02-28 15:21:00,44.1,31.1,29.17,West,270,0.0,1.6,60,0.00,,---,1.83,VWS V14.01,2013-02-28 20:21:00,
2013-02-28 15:22:00,44.1,31.1,29.20,West,270,0.0,0.9,60,0.00,,---,1.83,VWS V14.01,2013-02-28 20:22:00,
2013-02-28 15:23:00,46.6,30.8,29.20,West,270,2.9,2.9,54,0.00,,---,1.83,VWS V14.01,2013-02-28 20:23:00,
2013-02-28 15:24:00,43.9,30.9,29.20,West,270,0.0,0.0,60,0.00,,---,1.83,VWS V14.01,2013-02-28 20:24:00,
2013-02-28 15:25:00,43.9,30.9,29.20,West,270,0.0,0.0,60,0.00,,---,1.83,VWS V14.01,2013-02-28 20:25:00,
2013-02-28 15:26:00,43.9,31.3,29.20,West,270,0.0,0.0,61,0.00,,---,1.83,VWS V14.01,2013-02-28 20:26:00,
2013-02-28 15:27:00,43.9,31.3,29.20,West,270,0.0,0.0,61,0.00,,---,1.83,VWS V14.01,2013-02-28 20:27:00,
2013-02-28 15:28:00,46.4,31.1,29.20,West,270,2.9,2.9,55,0.00,,---,1.83,VWS V14.01,2013-02-28 20:28:00,
2013-02-28 15:29:00,43.7,31.1,29.20,West,270,0.0,0.0,61,0.00,,---,1.83,VWS V14.01,2013-02-28 20:29:00,
2013-02-28 15:30:00,43.7,31.1,29.20,West,270,0.0,0.0,61,0.00,,---,1.83,VWS V14.01,2013-02-28 20:30:00,
2013-02-28 15:31:00,43.7,31.1,29.20,West,270,0.0,0.0,61,0.00,,---,1.83,VWS V14.01,2013-02-28 20:31:00,
2013-02-28 15:32:00,43.7,31.5,29.20,West,270,0.0,0.0,62,0.00,,---,1.83,VWS V14.01,2013-02-28 20:32:00,
2013-02-28 15:33:00,45.9,30.6,29.20,East,90,1.6,1.6,55,0.00,,---,1.83,VWS V14.01,2013-02-28 20:33:00,
2013-02-28 15:34:00,43.5,31.4,29.20,West,270,0.0,0.0,62,0.00,,---,1.83,VWS V14.01,2013-02-28 20:34:00,
2013-02-28 15:35:00,43.5,31.4,29.20,East,90,1.6,1.6,62,0.00,,---,1.83,VWS V14.01,2013-02-28 20:35:00,
2013-02-28 15:36:00,43.3,31.2,29.20,East,90,0.9,1.6,62,0.00,,---,1.83,VWS V14.01,2013-02-28 20:36:00,
2013-02-28 15:37:00,43.3,31.2,29.17,East,90,1.1,1.1,62,0.00,,---,1.83,VWS V14.01,2013-02-28 20:37:00,
2013-02-28 15:38:00,45.1,30.4,29.20,SW,225,0.9,0.9,56,0.00,,---,1.83,VWS V14.01,2013-02-28 20:38:00,
2013-02-28 15:39:00,43.3,31.2,29.17,East,90,0.0,1.3,62,0.00,,---,1.83,VWS V14.01,2013-02-28 20:39:00,
2013-02-28 15:40:00,43.3,31.2,29.17,East,90,0.0,0.0,62,0.00,,---,1.83,VWS V14.01,2013-02-28 20:40:00,
2013-02-28 15:42:00,43.3,31.2,29.17,East,90,1.3,1.3,62,0.00,,---,1.83,VWS V14.01,2013-02-28 20:42:00,
2013-02-28 15:43:00,45.1,30.4,29.20,SW,225,0.9,0.9,56,0.00,,---,1.83,VWS V14.01,2013-02-28 20:43:00,
2013-02-28 15:44:00,43.2,31.4,29.17,SSW,202,0.9,1.3,63,0.00,,---,1.83,VWS V14.01,2013-02-28 20:44:00,
2013-02-28 15:45:00,43.2,31.4,29.17,East,90,2.0,2.0,63,0.00,,---,1.83,VWS V14.01,2013-02-28 20:45:00,
2013-02-28 15:46:00,43.2,31.4,29.17,East,90,1.1,2.0,63,0.00,,---,1.83,VWS V14.01,2013-02-28 20:46:00,
2013-02-28 15:47:00,43.0,31.3,29.17,East,90,1.3,1.3,63,0.00,,---,1.83,VWS V14.01,2013-02-28 20:47:00,
2013-02-28 15:48:00,45.0,30.7,29.20,NE,45,0.0,0.9,57,0.00,,---,1.83,VWS V14.01,2013-02-28 20:48:00,
2013-02-28 15:49:00,43.0,31.3,29.17,East,90,0.0,0.9,63,0.00,,---,1.83,VWS V14.01,2013-02-28 20:49:00,
2013-02-28 15:50:00,43.0,31.3,29.17,East,90,0.0,0.9,63,0.00,,---,1.83,VWS V14.01,2013-02-28 20:50:00,
2013-02-28 15:51:00,42.8,31.5,29.17,East,90,0.0,0.0,64,0.00,,---,1.83,VWS V14.01,2013-02-28 20:51:00,
2013-02-28 15:52:00,42.8,31.5,29.20,East,90,0.0,0.0,64,0.00,,---,1.83,VWS V14.01,2013-02-28 20:52:00,
2013-02-28 15:53:00,45.0,30.7,29.20,North,0,0.0,0.0,57,0.00,,---,1.83,VWS V14.01,2013-02-28 20:53:00,
2013-02-28 15:54:00,42.6,31.3,29.20,WNW,292,0.0,2.5,64,0.00,,---,1.83,VWS V14.01,2013-02-28 20:54:00,
2013-02-28 15:55:00,42.6,31.3,29.20,WNW,292,0.0,0.9,64,0.00,,---,1.83,VWS V14.01,2013-02-28 20:55:00,
2013-02-28 15:56:00,42.6,31.7,29.20,WNW,292,0.0,0.0,65,0.00,,---,1.83,VWS V14.01,2013-02-28 20:56:00,
2013-02-28 15:57:00,42.4,31.5,29.20,WNW,292,0.0,0.0,65,0.00,,---,1.83,VWS V14.01,2013-02-28 20:57:00,
2013-02-28 15:58:00,44.8,30.9,29.20,East,90,1.1,1.1,58,0.00,,---,1.83,VWS V14.01,2013-02-28 20:58:00,
2013-02-28 15:59:00,42.3,31.4,29.20,WSW,248,0.0,0.0,65,0.00,,---,1.83,VWS V14.01,2013-02-28 20:59:00,
2013-02-28 16:00:00,42.3,31.4,29.20,WSW,248,0.0,0.0,65,0.00,,---,1.83,VWS V14.01,2013-02-28 21:00:00,
2013-02-28 16:01:00,42.1,31.2,29.20,SSW,202,0.0,0.0,65,0.00,,---,1.83,VWS V14.01,2013-02-28 21:01:00,
2013-02-28 16:02:00,42.1,31.2,29.20,SSW,202,0.0,0.0,65,0.00,,---,1.83,VWS V14.01,2013-02-28 21:02:00,
2013-02-28 16:03:00,44.8,30.9,29.20,East,90,2.7,2.7,58,0.00,,---,1.83,VWS V14.01,2013-02-28 21:03:00,
2013-02-28 16:04:00,42.1,31.2,29.20,South,180,0.0,0.0,65,0.00,,---,1.83,VWS V14.01,2013-02-28 21:04:00,
2013-02-28 16:05:00,41.9,31.4,29.20,South,180,0.0,0.0,66,0.00,,---,1.83,VWS V14.01,2013-02-28 21:05:00,
2013-02-28 16:06:00,41.9,31.4,29.20,South,180,0.0,0.0,66,0.00,,---,1.83,VWS V14.01,2013-02-28 21:06:00,
2013-02-28 16:07:00,41.7,31.2,29.20,SE,135,0.0,0.0,66,0.00,,---,1.83,VWS V14.01,2013-02-28 21:07:00,
2013-02-28 16:08:00,44.4,30.6,29.17,NNE,22,0.0,0.0,58,0.00,,---,1.83,VWS V14.01,2013-02-28 21:08:00,
2013-02-28 16:09:00,41.7,31.2,29.20,SE,135,0.0,0.0,66,0.00,,---,1.83,VWS V14.01,2013-02-28 21:09:00,
2013-02-28 16:10:00,41.7,31.2,29.20,SE,135,0.0,0.0,66,0.00,,---,1.83,VWS V14.01,2013-02-28 21:10:00,
2013-02-28 16:11:00,41.7,31.2,29.20,SE,135,0.0,0.0,66,0.00,,---,1.83,VWS V14.01,2013-02-28 21:11:00,
2013-02-28 16:12:00,41.5,31.0,29.20,SE,135,0.0,0.0,66,0.00,,---,1.83,VWS V14.01,2013-02-28 21:12:00,
2013-02-28 16:13:00,44.2,30.8,29.17,NE,45,1.1,1.1,59,0.00,,---,1.83,VWS V14.01,2013-02-28 21:13:00,
2013-02-28 16:14:00,41.4,31.2,29.20,SE,135,0.0,0.0,67,0.00,,---,1.83,VWS V14.01,2013-02-28 21:14:00,
2013-02-28 16:15:00,41.4,31.2,29.20,SE,135,0.0,0.0,67,0.00,,---,1.83,VWS V14.01,2013-02-28 21:15:00,
2013-02-28 16:16:00,41.2,31.1,29.20,SE,135,0.0,0.0,67,0.00,,---,1.83,VWS V14.01,2013-02-28 21:16:00,
2013-02-28 16:17:00,41.2,31.1,29.20,South,180,0.0,0.0,67,0.00,,---,1.83,VWS V14.01,2013-02-28 21:17:00,
2013-02-28 16:18:00,44.1,31.1,29.17,NE,45,0.9,0.9,60,0.00,,---,1.83,VWS V14.01,2013-02-28 21:18:00,
2013-02-28 16:19:00,41.0,31.3,29.20,South,180,0.0,0.0,68,0.00,,---,1.83,VWS V14.01,2013-02-28 21:19:00,
2013-02-28 16:20:00,41.0,30.9,29.20,South,180,0.0,0.0,67,0.00,,---,1.83,VWS V14.01,2013-02-28 21:20:00,
2013-02-28 16:21:00,41.0,31.3,29.20,South,180,0.0,0.0,68,0.00,,---,1.83,VWS V14.01,2013-02-28 21:21:00,
2013-02-28 16:22:00,40.6,30.9,29.20,South,180,0.0,0.0,68,0.00,,---,1.83,VWS V14.01,2013-02-28 21:22:00,
2013-02-28 16:23:00,43.9,30.9,29.20,West,270,0.0,0.0,60,0.00,,---,1.83,VWS V14.01,2013-02-28 21:23:00,
2013-02-28 16:24:00,40.6,30.9,29.20,SSE,158,0.0,0.0,68,0.00,,---,1.83,VWS V14.01,2013-02-28 21:24:00,
2013-02-28 16:25:00,40.6,31.3,29.20,SSE,158,0.0,0.0,69,0.00,,---,1.83,VWS V14.01,2013-02-28 21:25:00,
2013-02-28 16:26:00,40.5,31.1,29.20,SSE,158,0.0,0.0,69,0.00,,---,1.83,VWS V14.01,2013-02-28 21:26:00,
2013-02-28 16:27:00,40.5,31.1,29.20,SSE,158,0.0,0.0,69,0.00,,---,1.83,VWS V14.01,2013-02-28 21:27:00,
2013-02-28 16:28:00,43.7,31.1,29.20,West,270,0.0,0.0,61,0.00,,---,1.83,VWS V14.01,2013-02-28 21:28:00,
2013-02-28 16:29:00,40.3,30.9,29.20,SSE,158,0.0,0.0,69,0.00,,---,1.83,VWS V14.01,2013-02-28 21:29:00,
2013-02-28 16:30:00,40.1,30.8,29.20,SSE,158,0.0,0.0,69,0.00,,---,1.83,VWS V14.01,2013-02-28 21:30:00,
2013-02-28 16:31:00,40.1,30.8,29.20,SSE,158,0.0,0.0,69,0.00,,---,1.83,VWS V14.01,2013-02-28 21:31:00,
2013-02-28 16:32:00,39.9,30.9,29.20,SSE,158,0.0,0.0,70,0.00,,---,1.83,VWS V14.01,2013-02-28 21:32:00,
2013-02-28 16:33:00,43.5,31.4,29.20,West,270,0.0,0.0,62,0.00,,---,1.83,VWS V14.01,2013-02-28 21:33:00,
2013-02-28 16:34:00,39.9,30.9,29.20,SSE,158,0.0,0.0,70,0.00,,---,1.83,VWS V14.01,2013-02-28 21:34:00,
2013-02-28 16:35:00,39.7,30.8,29.20,SSE,158,0.0,0.0,70,0.00,,---,1.83,VWS V14.01,2013-02-28 21:35:00,
2013-02-28 16:36:00,39.7,30.8,29.20,SSE,158,0.0,0.0,70,0.00,,---,1.83,VWS V14.01,2013-02-28 21:36:00,
2013-02-28 16:37:00,39.7,30.8,29.20,SSE,158,0.0,0.0,70,0.00,,---,1.83,VWS V14.01,2013-02-28 21:37:00,
2013-02-28 16:38:00,43.3,31.2,29.17,East,90,1.1,1.3,62,0.00,,---,1.83,VWS V14.01,2013-02-28 21:38:00,
2013-02-28 16:39:00,39.6,31.0,29.20,SSE,158,0.0,0.0,71,0.00,,---,1.83,VWS V14.01,2013-02-28 21:39:00,
2013-02-28 16:40:00,39.6,31.0,29.20,SSE,158,0.0,0.0,71,0.00,,---,1.83,VWS V14.01,2013-02-28 21:40:00,
2013-02-28 16:41:00,39.4,30.8,29.20,SSE,158,0.0,0.0,71,0.00,,---,1.83,VWS V14.01,2013-02-28 21:41:00,
2013-02-28 16:42:00,39.4,31.1,29.20,SSE,158,0.0,0.0,72,0.00,,---,1.83,VWS V14.01,2013-02-28 21:42:00,
2013-02-28 16:43:00,43.2,31.4,29.17,SSW,202,0.9,1.3,63,0.00,,---,1.83,VWS V14.01,2013-02-28 21:43:00,
2013-02-28 16:44:00,39.4,31.1,29.20,SSE,158,0.0,0.0,72,0.00,,---,1.83,VWS V14.01,2013-02-28 21:44:00,
2013-02-28 16:45:00,39.4,31.1,29.20,SSE,158,0.0,0.0,72,0.00,,---,1.83,VWS V14.01,2013-02-28 21:45:00,
2013-02-28 16:46:00,39.4,31.1,29.20,SSE,158,0.0,0.0,72,0.00,,---,1.83,VWS V14.01,2013-02-28 21:46:00,
2013-02-28 16:47:00,39.4,31.1,29.20,SSE,158,0.0,0.0,72,0.00,,---,1.83,VWS V14.01,2013-02-28 21:47:00,
2013-02-28 16:48:00,43.0,31.3,29.17,East,90,0.0,0.9,63,0.00,,---,1.83,VWS V14.01,2013-02-28 21:48:00,
2013-02-28 16:49:00,39.4,31.1,29.20,SSE,158,0.0,0.0,72,0.00,,---,1.83,VWS V14.01,2013-02-28 21:49:00,
2013-02-28 16:50:00,39.4,31.1,29.20,SSE,158,0.0,0.0,72,0.00,,---,1.83,VWS V14.01,2013-02-28 21:50:00,
2013-02-28 16:51:00,38.8,30.6,29.20,SSE,158,0.0,0.0,72,0.00,,---,1.83,VWS V14.01,2013-02-28 21:51:00,
2013-02-28 16:52:00,38.8,30.9,29.23,SSE,158,0.0,0.0,73,0.00,,---,1.83,VWS V14.01,2013-02-28 21:52:00,
2013-02-28 16:53:00,42.8,31.5,29.20,WNW,292,1.6,2.5,64,0.00,,---,1.83,VWS V14.01,2013-02-28 21:53:00,
2013-02-28 16:54:00,38.8,30.9,29.23,SSE,158,0.0,0.0,73,0.00,,---,1.83,VWS V14.01,2013-02-28 21:54:00,
2013-02-28 16:55:00,38.8,30.9,29.23,SSE,158,0.0,0.0,73,0.00,,---,1.83,VWS V14.01,2013-02-28 21:55:00,
2013-02-28 16:56:00,38.8,30.9,29.23,SSE,158,0.0,0.0,73,0.00,,---,1.83,VWS V14.01,2013-02-28 21:56:00,
2013-02-28 16:57:00,38.8,30.9,29.23,SE,135,0.0,0.0,73,0.00,,---,1.83,VWS V14.01,2013-02-28 21:57:00,
2013-02-28 16:58:00,42.4,31.5,29.20,WSW,248,0.0,0.0,65,0.00,,---,1.83,VWS V14.01,2013-02-28 21:58:00,
2013-02-28 16:59:00,38.8,30.9,29.23,SE,135,0.0,0.0,73,0.00,,---,1.83,VWS V14.01,2013-02-28 21:59:00,
2013-02-28 17:00:00,38.8,30.9,29.23,ESE,112,0.0,0.0,73,0.00,,---,1.83,VWS V14.01,2013-02-28 22:00:00,
2013-02-28 17:01:00,38.8,30.9,29.23,ESE,112,0.0,0.0,73,0.00,,---,1.83,VWS V14.01,2013-02-28 22:01:00,
2013-02-28 17:02:00,38.8,30.9,29.23,ESE,112,0.0,0.0,73,0.00,,---,1.83,VWS V14.01,2013-02-28 22:02:00,
2013-02-28 17:03:00,42.1,31.2,29.20,South,180,0.0,0.0,65,0.00,,---,1.83,VWS V14.01,2013-02-28 22:03:00,
2013-02-28 17:04:00,38.8,30.9,29.23,ESE,112,0.0,0.0,73,0.00,,---,1.83,VWS V14.01,2013-02-28 22:04:00,
2013-02-28 17:05:00,38.8,30.9,29.23,ESE,112,0.0,0.0,73,0.00,,---,1.83,VWS V14.01,2013-02-28 22:05:00,
2013-02-28 17:06:00,38.8,30.9,29.23,ESE,112,0.0,0.0,73,0.00,,---,1.83,VWS V14.01,2013-02-28 22:06:00,
2013-02-28 17:07:00,38.8,30.9,29.20,ESE,112,0.0,0.0,73,0.00,,---,1.83,VWS V14.01,2013-02-28 22:07:00,
2013-02-28 17:08:00,41.7,31.2,29.20,SE,135,0.0,0.0,66,0.00,,---,1.83,VWS V14.01,2013-02-28 22:08:00,
2013-02-28 17:09:00,38.8,30.9,29.20,ESE,112,0.0,0.0,73,0.00,,---,1.83,VWS V14.01,2013-02-28 22:09:00,
2013-02-28 17:10:00,38.8,30.9,29.20,ESE,112,0.0,0.0,73,0.00,,---,1.83,VWS V14.01,2013-02-28 22:10:00,
2013-02-28 17:11:00,38.8,30.9,29.20,ESE,112,0.0,0.0,73,0.00,,---,1.83,VWS V14.01,2013-02-28 22:11:00,
2013-02-28 17:12:00,38.8,30.9,29.20,ESE,112,0.0,0.0,73,0.00,,---,1.83,VWS V14.01,2013-02-28 22:12:00,
2013-02-28 17:13:00,41.4,30.9,29.20,SE,135,0.0,0.0,66,0.00,,---,1.83,VWS V14.01,2013-02-28 22:13:00,
2013-02-28 17:14:00,38.8,31.3,29.20,ESE,112,0.0,0.0,74,0.00,,---,1.83,VWS V14.01,2013-02-28 22:14:00,
2013-02-28 17:15:00,38.8,31.6,29.20,ESE,112,0.0,0.0,75,0.00,,---,1.83,VWS V14.01,2013-02-28 22:15:00,
2013-02-28 17:16:00,38.8,31.6,29.20,ESE,112,0.0,0.0,75,0.00,,---,1.83,VWS V14.01,2013-02-28 22:16:00,
2013-02-28 17:17:00,38.8,31.6,29.20,ESE,112,0.0,0.0,75,0.00,,---,1.83,VWS V14.01,2013-02-28 22:17:00,
2013-02-28 17:18:00,41.2,31.1,29.20,South,180,0.0,0.0,67,0.00,,---,1.83,VWS V14.01,2013-02-28 22:18:00,
2013-02-28 17:19:00,38.8,31.6,29.20,ESE,112,0.0,0.0,75,0.00,,---,1.83,VWS V14.01,2013-02-28 22:19:00,
2013-02-28 17:20:00,38.8,31.6,29.20,ESE,112,0.0,0.0,75,0.00,,---,1.83,VWS V14.01,2013-02-28 22:20:00,
2013-02-28 17:21:00,38.8,31.6,29.20,ESE,112,0.0,0.0,75,0.00,,---,1.83,VWS V14.01,2013-02-28 22:21:00,
2013-02-28 17:22:00,38.8,31.6,29.23,ESE,112,0.0,0.0,75,0.00,,---,1.83,VWS V14.01,2013-02-28 22:22:00,
2013-02-28 17:23:00,40.6,30.9,29.20,SSE,158,0.0,0.0,68,0.00,,---,1.83,VWS V14.01,2013-02-28 22:23:00,
2013-02-28 17:24:00,38.8,31.6,29.23,ESE,112,0.0,0.0,75,0.00,,---,1.83,VWS V14.01,2013-02-28 22:24:00,
2013-02-28 17:25:00,38.8,31.6,29.23,ESE,112,0.0,0.0,75,0.00,,---,1.83,VWS V14.01,2013-02-28 22:25:00,
2013-02-28 17:26:00,38.8,31.6,29.23,ESE,112,0.0,0.0,75,0.00,,---,1.83,VWS V14.01,2013-02-28 22:26:00,
2013-02-28 17:27:00,38.8,31.6,29.23,ESE,112,0.0,0.0,75,0.00,,---,1.83,VWS V14.01,2013-02-28 22:27:00,
2013-02-28 17:28:00,40.3,30.9,29.20,SSE,158,0.0,0.0,69,0.00,,---,1.83,VWS V14.01,2013-02-28 22:28:00,
2013-02-28 17:29:00,38.8,31.6,29.23,ESE,112,0.0,0.0,75,0.00,,---,1.83,VWS V14.01,2013-02-28 22:29:00,
2013-02-28 17:30:00,38.8,31.6,29.23,ESE,112,0.0,0.0,75,0.00,,---,1.83,VWS V14.01,2013-02-28 22:30:00,
2013-02-28 17:31:00,38.8,31.9,29.23,ESE,112,0.0,0.0,76,0.00,,---,1.83,VWS V14.01,2013-02-28 22:31:00,
2013-02-28 17:32:00,38.8,31.6,29.23,ESE,112,0.0,0.0,75,0.00,,---,1.83,VWS V14.01,2013-02-28 22:32:00,
2013-02-28 17:33:00,39.9,30.9,29.20,SSE,158,0.0,0.0,70,0.00,,---,1.83,VWS V14.01,2013-02-28 22:33:00,
2013-02-28 17:34:00,38.8,31.9,29.23,ESE,112,0.0,0.0,76,0.00,,---,1.83,VWS V14.01,2013-02-28 22:34:00,
2013-02-28 17:35:00,38.8,31.9,29.23,ESE,112,0.0,0.0,76,0.00,,---,1.83,VWS V14.01,2013-02-28 22:35:00,
2013-02-28 17:36:00,38.8,31.9,29.23,ESE,112,0.0,0.0,76,0.00,,---,1.83,VWS V14.01,2013-02-28 22:36:00,
2013-02-28 17:37:00,38.8,31.9,29.23,ESE,112,0.0,0.0,76,0.00,,---,1.83,VWS V14.01,2013-02-28 22:37:00,
2013-02-28 17:38:00,39.7,30.8,29.20,SSE,158,0.0,0.0,70,0.00,,---,1.83,VWS V14.01,2013-02-28 22:38:00,
2013-02-28 17:39:00,38.8,31.9,29.23,ESE,112,0.0,0.0,76,0.00,,---,1.83,VWS V14.01,2013-02-28 22:39:00,
2013-02-28 17:40:00,38.8,31.9,29.23,ESE,112,0.0,0.0,76,0.00,,---,1.83,VWS V14.01,2013-02-28 22:40:00,
2013-02-28 17:41:00,38.8,31.9,29.23,ESE,112,0.0,0.0,76,0.00,,---,1.83,VWS V14.01,2013-02-28 22:41:00,
2013-02-28 17:42:00,38.8,31.9,29.23,ESE,112,0.0,0.0,76,0.00,,---,1.83,VWS V14.01,2013-02-28 22:42:00,
2013-02-28 17:43:00,39.4,31.1,29.20,SSE,158,0.0,0.0,72,0.00,,---,1.83,VWS V14.01,2013-02-28 22:43:00,
2013-02-28 17:44:00,38.7,31.8,29.23,ESE,112,0.0,0.0,76,0.00,,---,1.83,VWS V14.01,2013-02-28 22:44:00,
2013-02-28 17:45:00,38.7,31.8,29.23,ESE,112,0.0,0.0,76,0.00,,---,1.83,VWS V14.01,2013-02-28 22:45:00,
2013-02-28 17:46:00,38.7,31.8,29.23,ESE,112,0.0,0.0,76,0.00,,---,1.83,VWS V14.01,2013-02-28 22:46:00,
2013-02-28 17:47:00,38.7,31.8,29.23,ESE,112,0.0,0.0,76,0.00,,---,1.83,VWS V14.01,2013-02-28 22:47:00,
2013-02-28 17:48:00,39.4,31.1,29.20,SSE,158,0.0,0.0,72,0.00,,---,1.83,VWS V14.01,2013-02-28 22:48:00,
2013-02-28 17:49:00,38.7,31.8,29.23,ESE,112,0.0,0.0,76,0.00,,---,1.83,VWS V14.01,2013-02-28 22:49:00,
2013-02-28 17:50:00,38.8,31.9,29.23,ESE,112,0.0,0.0,76,0.00,,---,1.83,VWS V14.01,2013-02-28 22:50:00,
2013-02-28 17:51:00,38.8,31.9,29.23,ESE,112,0.0,0.0,76,0.00,,---,1.83,VWS V14.01,2013-02-28 22:51:00,
2013-02-28 17:52:00,38.7,31.8,29.20,ESE,112,0.0,0.0,76,0.00,,---,1.83,VWS V14.01,2013-02-28 22:52:00,
2013-02-28 17:53:00,38.8,30.9,29.23,SSE,158,0.0,0.0,73,0.00,,---,1.83,VWS V14.01,2013-02-28 22:53:00,
2013-02-28 17:54:00,38.7,32.1,29.20,ESE,112,0.0,0.0,77,0.00,,---,1.83,VWS V14.01,2013-02-28 22:54:00,
2013-02-28 17:55:00,38.7,32.1,29.20,ESE,112,0.0,0.0,77,0.00,,---,1.83,VWS V14.01,2013-02-28 22:55:00,
2013-02-28 17:56:00,38.7,32.1,29.20,ESE,112,0.0,0.0,77,0.00,,---,1.83,VWS V14.01,2013-02-28 22:56:00,
2013-02-28 17:57:00,38.7,32.1,29.20,ESE,112,0.0,0.0,77,0.00,,---,1.83,VWS V14.01,2013-02-28 22:57:00,
2013-02-28 17:58:00,38.8,30.9,29.23,SE,135,0.0,0.0,73,0.00,,---,1.83,VWS V14.01,2013-02-28 22:58:00,
2013-02-28 17:59:00,38.7,32.1,29.20,ESE,112,0.0,0.0,77,0.00,,---,1.83,VWS V14.01,2013-02-28 22:59:00,
2013-02-28 18:00:00,38.5,31.9,29.20,ESE,112,0.0,0.0,77,0.00,,---,1.83,VWS V14.01,2013-02-28 23:00:00,
2013-02-28 18:01:00,38.5,31.9,29.20,ESE,112,0.0,0.0,77,0.00,,---,1.83,VWS V14.01,2013-02-28 23:01:00,
2013-02-28 18:02:00,38.5,31.9,29.20,ESE,112,0.0,0.0,77,0.00,,---,1.83,VWS V14.01,2013-02-28 23:02:00,
2013-02-28 18:03:00,38.8,30.9,29.23,ESE,112,0.0,0.0,73,0.00,,---,1.83,VWS V14.01,2013-02-28 23:03:00,
2013-02-28 18:04:00,38.5,31.9,29.20,ESE,112,0.0,0.0,77,0.00,,---,1.83,VWS V14.01,2013-02-28 23:04:00,
2013-02-28 18:05:00,38.5,31.9,29.20,ESE,112,0.0,0.0,77,0.00,,---,1.83,VWS V14.01,2013-02-28 23:05:00,
2013-02-28 18:06:00,38.5,31.9,29.20,ESE,112,0.0,0.0,77,0.00,,---,1.83,VWS V14.01,2013-02-28 23:06:00,
2013-02-28 18:07:00,38.5,31.9,29.20,ESE,112,0.0,0.0,77,0.00,,---,1.83,VWS V14.01,2013-02-28 23:07:00,
2013-02-28 18:08:00,38.8,30.9,29.20,ESE,112,0.0,0.0,73,0.00,,---,1.83,VWS V14.01,2013-02-28 23:08:00,
2013-02-28 18:09:00,38.5,31.9,29.20,ESE,112,0.0,0.0,77,0.00,,---,1.83,VWS V14.01,2013-02-28 23:09:00,
2013-02-28 18:10:00,38.5,31.9,29.20,ESE,112,0.0,0.0,77,0.00,,---,1.83,VWS V14.01,2013-02-28 23:10:00,
2013-02-28 18:11:00,38.5,31.9,29.20,ESE,112,0.0,0.0,77,0.00,,---,1.83,VWS V14.01,2013-02-28 23:11:00,
2013-02-28 18:12:00,38.5,31.9,29.20,ESE,112,0.0,0.0,77,0.00,,---,1.83,VWS V14.01,2013-02-28 23:12:00,
2013-02-28 18:13:00,38.8,31.3,29.20,ESE,112,0.0,0.0,74,0.00,,---,1.83,VWS V14.01,2013-02-28 23:13:00,
2013-02-28 18:14:00,38.3,31.7,29.20,ESE,112,0.0,0.0,77,0.00,,---,1.83,VWS V14.01,2013-02-28 23:14:00,
2013-02-28 18:15:00,38.3,32.0,29.20,ESE,112,0.0,0.0,78,0.00,,---,1.83,VWS V14.01,2013-02-28 23:15:00,
2013-02-28 18:16:00,38.3,32.0,29.20,ESE,112,0.0,0.0,78,0.00,,---,1.83,VWS V14.01,2013-02-28 23:16:00,
2013-02-28 18:17:00,38.3,31.7,29.20,ESE,112,0.0,0.0,77,0.00,,---,1.83,VWS V14.01,2013-02-28 23:17:00,
2013-02-28 18:18:00,38.8,31.6,29.20,ESE,112,0.0,0.0,75,0.00,,---,1.83,VWS V14.01,2013-02-28 23:18:00,
2013-02-28 18:19:00,38.5,31.9,29.20,ESE,112,0.9,1.1,77,0.00,,---,1.83,VWS V14.01,2013-02-28 23:19:00,
2013-02-28 18:20:00,38.5,32.2,29.20,ESE,112,0.0,0.9,78,0.00,,---,1.83,VWS V14.01,2013-02-28 23:20:00,
2013-02-28 18:21:00,38.5,32.2,29.20,ESE,112,0.9,0.9,78,0.00,,---,1.83,VWS V14.01,2013-02-28 23:21:00,
2013-02-28 18:22:00,38.5,32.2,29.23,ESE,112,0.0,0.9,78,0.00,,---,1.83,VWS V14.01,2013-02-28 23:22:00,
2013-02-28 18:23:00,38.8,31.6,29.23,ESE,112,0.0,0.0,75,0.00,,---,1.83,VWS V14.01,2013-02-28 23:23:00,
2013-02-28 18:24:00,38.5,32.2,29.23,ESE,112,0.0,0.0,78,0.00,,---,1.83,VWS V14.01,2013-02-28 23:24:00,
2013-02-28 18:25:00,38.5,32.2,29.23,ESE,112,0.0,0.0,78,0.00,,---,1.83,VWS V14.01,2013-02-28 23:25:00,
2013-02-28 18:26:00,38.5,32.2,29.23,ESE,112,0.0,0.0,78,0.00,,---,1.83,VWS V14.01,2013-02-28 23:26:00,
2013-02-28 18:27:00,38.5,32.2,29.23,East,90,0.0,0.0,78,0.00,,---,1.83,VWS V14.01,2013-02-28 23:27:00,
2013-02-28 18:28:00,38.8,31.6,29.23,ESE,112,0.0,0.0,75,0.00,,---,1.83,VWS V14.01,2013-02-28 23:28:00,
2013-02-28 18:29:00,38.3,32.0,29.23,East,90,2.0,2.0,78,0.00,,---,1.83,VWS V14.01,2013-02-28 23:29:00,
2013-02-28 18:30:00,38.3,32.7,29.23,East,90,0.0,2.2,80,0.00,,---,1.83,VWS V14.01,2013-02-28 23:30:00,
2013-02-28 18:31:00,38.3,32.4,29.23,East,90,1.1,1.6,79,0.00,,---,1.83,VWS V14.01,2013-02-28 23:31:00,
2013-02-28 18:32:00,38.3,32.4,29.23,East,90,1.1,1.6,79,0.00,,---,1.83,VWS V14.01,2013-02-28 23:32:00,
2013-02-28 18:33:00,38.8,31.9,29.23,ESE,112,0.0,0.0,76,0.00,,---,1.83,VWS V14.01,2013-02-28 23:33:00,
2013-02-28 18:34:00,38.3,32.7,29.23,East,90,0.0,2.2,80,0.00,,---,1.83,VWS V14.01,2013-02-28 23:34:00,
2013-02-28 18:35:00,38.1,32.5,29.23,East,90,0.0,0.0,80,0.00,,---,1.83,VWS V14.01,2013-02-28 23:35:00,
2013-02-28 18:36:00,38.1,32.5,29.23,East,90,0.0,0.0,80,0.00,,---,1.83,VWS V14.01,2013-02-28 23:36:00,
2013-02-28 18:37:00,38.1,32.5,29.23,East,90,0.0,0.0,80,0.00,,---,1.83,VWS V14.01,2013-02-28 23:37:00,
2013-02-28 18:38:00,38.8,31.9,29.23,ESE,112,0.0,0.0,76,0.00,,---,1.83,VWS V14.01,2013-02-28 23:38:00,
2013-02-28 18:39:00,38.1,32.5,29.23,East,90,0.0,1.6,80,0.00,,---,1.83,VWS V14.01,2013-02-28 23:39:00,
2013-02-28 18:40:00,38.1,32.5,29.23,East,90,0.0,1.1,80,0.00,,---,1.83,VWS V14.01,2013-02-28 23:40:00,
2013-02-28 18:41:00,38.3,33.0,29.23,East,90,0.0,0.0,81,0.00,,---,1.83,VWS V14.01,2013-02-28 23:41:00,
2013-02-28 18:42:00,38.3,33.0,29.23,East,90,0.0,0.0,81,0.00,,---,1.83,VWS V14.01,2013-02-28 23:42:00,
2013-02-28 18:43:00,38.7,31.8,29.23,ESE,112,0.0,0.0,76,0.00,,---,1.83,VWS V14.01,2013-02-28 23:43:00,
2013-02-28 18:44:00,38.1,32.8,29.23,East,90,0.0,0.0,81,0.00,,---,1.83,VWS V14.01,2013-02-28 23:44:00,
2013-02-28 18:45:00,38.3,33.0,29.23,East,90,0.9,0.9,81,0.00,,---,1.83,VWS V14.01,2013-02-28 23:45:00,
2013-02-28 18:46:00,38.3,33.0,29.23,East,90,0.0,0.9,81,0.00,,---,1.83,VWS V14.01,2013-02-28 23:46:00,
2013-02-28 18:47:00,38.3,33.0,29.23,East,90,0.0,0.0,81,0.00,,---,1.83,VWS V14.01,2013-02-28 23:47:00,
2013-02-28 18:48:00,38.7,31.8,29.23,ESE,112,0.0,0.0,76,0.00,,---,1.83,VWS V14.01,2013-02-28 23:48:00,
2013-02-28 18:49:00,38.3,33.0,29.23,East,90,0.0,0.0,81,0.00,,---,1.83,VWS V14.01,2013-02-28 23:49:00,
2013-02-28 18:50:00,38.3,33.0,29.23,East,90,0.0,0.0,81,0.00,,---,1.83,VWS V14.01,2013-02-28 23:50:00,
2013-02-28 18:51:00,38.3,33.0,29.23,East,90,0.0,0.0,81,0.00,,---,1.83,VWS V14.01,2013-02-28 23:51:00,
2013-02-28 18:52:00,38.3,33.0,29.20,East,90,0.0,0.0,81,0.00,,---,1.83,VWS V14.01,2013-02-28 23:52:00,
2013-02-28 18:53:00,38.7,31.8,29.20,ESE,112,0.0,0.0,76,0.00,,---,1.83,VWS V14.01,2013-02-28 23:53:00,
2013-02-28 18:54:00,38.5,33.2,29.20,East,90,0.0,0.0,81,0.00,,---,1.83,VWS V14.01,2013-02-28 23:54:00,
2013-02-28 18:55:00,38.5,33.2,29.20,East,90,0.0,0.9,81,0.00,,---,1.83,VWS V14.01,2013-02-28 23:55:00,
2013-02-28 18:56:00,38.5,33.2,29.20,East,90,1.1,1.1,81,0.00,,---,1.83,VWS V14.01,2013-02-28 23:56:00,
2013-02-28 18:57:00,38.5,33.2,29.20,East,90,0.0,1.1,81,0.00,,---,1.83,VWS V14.01,2013-02-28 23:57:00,
2013-02-28 18:58:00,38.7,32.1,29.20,ESE,112,0.0,0.0,77,0.00,,---,1.83,VWS V14.01,2013-02-28 23:58:00,
2013-02-28 18:59:00,38.7,33.3,29.20,East,90,0.0,0.9,81,0.00,,---,1.83,VWS V14.01,2013-02-28 23:59:00,
2013-02-28 19:00:00,38.7,33.3,29.20,East,90,0.0,0.0,81,0.00,,---,1.83,VWS V14.01,2013-03-01 00:00:00,
2013-02-28 19:01:00,38.7,33.3,29.20,East,90,1.1,1.1,81,0.00,,---,1.83,VWS V14.01,2013-03-01 00:01:00,
2013-02-28 19:02:00,38.7,33.3,29.20,East,90,0.0,1.1,81,0.00,,---,1.83,VWS V14.01,2013-03-01 00:02:00,
2013-02-28 19:03:00,38.5,31.9,29.20,ESE,112,0.0,0.0,77,0.00,,---,1.83,VWS V14.01,2013-03-01 00:03:00,
2013-02-28 19:04:00,38.7,33.3,29.20,East,90,0.9,0.9,81,0.00,,---,1.83,VWS V14.01,2013-03-01 00:04:00,
2013-02-28 19:05:00,38.7,33.3,29.20,East,90,0.9,0.9,81,0.00,,---,1.83,VWS V14.01,2013-03-01 00:05:00,
2013-02-28 19:06:00,38.5,33.2,29.20,East,90,0.0,0.9,81,0.00,,---,1.83,VWS V14.01,2013-03-01 00:06:00,
2013-02-28 19:07:00,38.5,33.2,29.20,East,90,0.0,0.0,81,0.00,,---,1.83,VWS V14.01,2013-03-01 00:07:00,
2013-02-28 19:08:00,38.5,31.9,29.20,ESE,112,0.0,0.0,77,0.00,,---,1.83,VWS V14.01,2013-03-01 00:08:00,
2013-02-28 19:09:00,38.5,33.2,29.20,East,90,0.0,0.0,81,0.00,,---,1.83,VWS V14.01,2013-03-01 00:09:00,
2013-02-28 19:10:00,38.5,33.2,29.20,East,90,0.0,0.0,81,0.00,,---,1.83,VWS V14.01,2013-03-01 00:10:00,
2013-02-28 19:11:00,38.5,33.2,29.20,East,90,0.0,0.0,81,0.00,,---,1.83,VWS V14.01,2013-03-01 00:11:00,
2013-02-28 19:12:00,38.5,33.2,29.20,East,90,0.9,0.9,81,0.00,,---,1.83,VWS V14.01,2013-03-01 00:12:00,
2013-02-28 19:13:00,38.3,31.7,29.20,ESE,112,0.0,0.0,77,0.00,,---,1.83,VWS V14.01,2013-03-01 00:13:00,
2013-02-28 19:14:00,38.5,33.5,29.20,East,90,0.0,0.0,82,0.00,,---,1.83,VWS V14.01,2013-03-01 00:14:00,
2013-02-28 19:15:00,38.3,33.3,29.20,East,90,0.0,0.0,82,0.00,,---,1.83,VWS V14.01,2013-03-01 00:15:00,
2013-02-28 19:16:00,38.3,33.3,29.20,East,90,0.0,0.0,82,0.00,,---,1.83,VWS V14.01,2013-03-01 00:16:00,
2013-02-28 19:17:00,38.3,33.3,29.20,East,90,0.0,0.0,82,0.00,,---,1.83,VWS V14.01,2013-03-01 00:17:00,
2013-02-28 19:18:00,38.3,31.7,29.20,ESE,112,0.0,0.0,77,0.00,,---,1.83,VWS V14.01,2013-03-01 00:18:00,
2013-02-28 19:19:00,38.1,33.1,29.20,East,90,0.0,0.0,82,0.00,,---,1.83,VWS V14.01,2013-03-01 00:19:00,
2013-02-28 19:20:00,38.1,33.1,29.20,East,90,0.0,0.0,82,0.00,,---,1.83,VWS V14.01,2013-03-01 00:20:00,
2013-02-28 19:21:00,38.1,33.1,29.20,East,90,0.0,0.0,82,0.00,,---,1.83,VWS V14.01,2013-03-01 00:21:00,
2013-02-28 19:22:00,38.1,33.1,29.20,East,90,1.1,1.1,82,0.00,,---,1.83,VWS V14.01,2013-03-01 00:22:00,
2013-02-28 19:23:00,38.5,32.2,29.23,ESE,112,0.0,0.0,78,0.00,,---,1.83,VWS V14.01,2013-03-01 00:23:00,
2013-02-28 19:24:00,38.1,33.1,29.20,East,90,0.0,0.0,82,0.00,,---,1.83,VWS V14.01,2013-03-01 00:24:00,
2013-02-28 19:25:00,38.1,33.1,29.20,East,90,0.0,1.1,82,0.00,,---,1.83,VWS V14.01,2013-03-01 00:25:00,
2013-02-28 19:26:00,38.1,33.4,29.20,East,90,0.0,0.0,83,0.00,,---,1.83,VWS V14.01,2013-03-01 00:26:00,
2013-02-28 19:27:00,37.9,33.2,29.20,East,90,0.0,0.0,83,0.00,,---,1.83,VWS V14.01,2013-03-01 00:27:00,
2013-02-28 19:28:00,38.5,32.2,29.23,East,90,0.0,1.6,78,0.00,,---,1.83,VWS V14.01,2013-03-01 00:28:00,
2013-02-28 19:29:00,37.9,33.2,29.20,East,90,0.0,0.0,83,0.00,,---,1.83,VWS V14.01,2013-03-01 00:29:00,
2013-02-28 19:30:00,37.9,33.2,29.20,East,90,1.1,1.3,83,0.00,,---,1.83,VWS V14.01,2013-03-01 00:30:00,
2013-02-28 19:31:00,37.9,33.2,29.20,East,90,0.0,1.1,83,0.00,,---,1.83,VWS V14.01,2013-03-01 00:31:00,
2013-02-28 19:32:00,37.9,33.2,29.20,East,90,0.0,0.0,83,0.00,,---,1.83,VWS V14.01,2013-03-01 00:32:00,
2013-02-28 19:33:00,38.3,32.4,29.23,East,90,2.2,2.2,79,0.00,,---,1.83,VWS V14.01,2013-03-01 00:33:00,
2013-02-28 19:34:00,38.1,33.4,29.20,East,90,0.0,1.1,83,0.00,,---,1.83,VWS V14.01,2013-03-01 00:34:00,
2013-02-28 19:35:00,38.1,33.4,29.20,East,90,1.1,1.1,83,0.00,,---,1.83,VWS V14.01,2013-03-01 00:35:00,
2013-02-28 19:36:00,37.9,33.5,29.20,East,90,0.0,1.1,84,0.00,,---,1.83,VWS V14.01,2013-03-01 00:36:00,
2013-02-28 19:37:00,37.9,33.5,29.20,East,90,0.0,0.0,84,0.00,,---,1.83,VWS V14.01,2013-03-01 00:37:00,
2013-02-28 19:38:00,38.1,32.5,29.23,East,90,0.0,0.0,80,0.00,,---,1.83,VWS V14.01,2013-03-01 00:38:00,
2013-02-28 19:39:00,37.9,33.5,29.20,East,90,0.0,0.0,84,0.00,,---,1.83,VWS V14.01,2013-03-01 00:39:00,
2013-02-28 19:40:00,37.9,33.5,29.20,East,90,0.9,0.9,84,0.00,,---,1.83,VWS V14.01,2013-03-01 00:40:00,
2013-02-28 19:41:00,37.9,33.5,29.20,East,90,0.0,0.9,84,0.00,,---,1.83,VWS V14.01,2013-03-01 00:41:00,
2013-02-28 19:42:00,37.9,33.5,29.20,East,90,0.0,0.0,84,0.00,,---,1.83,VWS V14.01,2013-03-01 00:42:00,
2013-02-28 19:43:00,38.3,33.0,29.23,East,90,0.0,0.0,81,0.00,,---,1.83,VWS V14.01,2013-03-01 00:43:00,
2013-02-28 19:44:00,37.9,33.5,29.20,East,90,0.0,0.0,84,0.00,,---,1.83,VWS V14.01,2013-03-01 00:44:00,
2013-02-28 19:45:00,37.9,33.8,29.20,East,90,0.0,0.0,85,0.00,,---,1.83,VWS V14.01,2013-03-01 00:45:00,
2013-02-28 19:46:00,37.9,33.5,29.20,East,90,0.0,0.0,84,0.00,,---,1.83,VWS V14.01,2013-03-01 00:46:00,
2013-02-28 19:47:00,37.8,33.7,29.20,East,90,0.0,0.0,85,0.00,,---,1.83,VWS V14.01,2013-03-01 00:47:00,
2013-02-28 19:48:00,38.3,33.0,29.23,East,90,0.0,0.0,81,0.00,,---,1.83,VWS V14.01,2013-03-01 00:48:00,
2013-02-28 19:49:00,37.8,33.7,29.20,East,90,0.0,0.0,85,0.00,,---,1.83,VWS V14.01,2013-03-01 00:49:00,
2013-02-28 19:50:00,37.8,33.7,29.20,East,90,0.0,0.0,85,0.00,,---,1.83,VWS V14.01,2013-03-01 00:50:00,
2013-02-28 19:51:00,37.8,33.7,29.20,East,90,0.0,0.0,85,0.00,,---,1.83,VWS V14.01,2013-03-01 00:51:00,
2013-02-28 19:52:00,37.6,33.5,29.20,East,90,0.0,0.0,85,0.00,,---,1.83,VWS V14.01,2013-03-01 00:52:00,
2013-02-28 19:53:00,38.5,33.2,29.20,East,90,0.0,0.0,81,0.00,,---,1.83,VWS V14.01,2013-03-01 00:53:00,
2013-02-28 19:54:00,37.6,33.5,29.20,East,90,0.0,0.0,85,0.00,,---,1.83,VWS V14.01,2013-03-01 00:54:00,
2013-02-28 19:55:00,37.6,33.5,29.20,East,90,0.0,0.0,85,0.00,,---,1.83,VWS V14.01,2013-03-01 00:55:00,
2013-02-28 19:56:00,37.6,33.5,29.20,East,90,0.0,0.0,85,0.00,,---,1.83,VWS V14.01,2013-03-01 00:56:00,
2013-02-28 19:57:00,37.4,33.3,29.20,East,90,0.9,0.9,85,0.00,,---,1.83,VWS V14.01,2013-03-01 00:57:00,
2013-02-28 19:58:00,38.7,33.3,29.20,East,90,0.9,0.9,81,0.00,,---,1.83,VWS V14.01,2013-03-01 00:58:00,
2013-02-28 19:59:00,37.2,33.1,29.20,East,90,0.0,0.0,85,0.00,,---,1.83,VWS V14.01,2013-03-01 00:59:00,
2013-02-28 20:00:00,37.2,33.1,29.20,East,90,0.0,0.0,85,0.00,,---,1.83,VWS V14.01,2013-03-01 01:00:00,
2013-02-28 20:01:00,37.0,33.2,29.20,East,90,1.3,1.3,86,0.00,,---,1.83,VWS V14.01,2013-03-01 01:01:00,
2013-02-28 20:02:00,37.0,33.2,29.20,East,90,0.0,1.3,86,0.00,,---,1.83,VWS V14.01,2013-03-01 01:02:00,
2013-02-28 20:03:00,38.7,33.3,29.20,East,90,0.0,0.0,81,0.00,,---,1.83,VWS V14.01,2013-03-01 01:03:00,
2013-02-28 20:04:00,37.0,33.0,29.20,East,90,0.9,0.9,85,0.00,,---,1.83,VWS V14.01,2013-03-01 01:04:00,
2013-02-28 20:05:00,37.0,33.0,29.20,East,90,0.0,0.9,85,0.00,,---,1.83,VWS V14.01,2013-03-01 01:05:00,
2013-02-28 20:06:00,37.0,33.2,29.20,East,90,1.1,1.1,86,0.00,,---,1.83,VWS V14.01,2013-03-01 01:06:00,
2013-02-28 20:07:00,37.0,33.2,29.23,East,90,0.9,1.3,86,0.00,,---,1.83,VWS V14.01,2013-03-01 01:07:00,
2013-02-28 20:08:00,38.5,33.2,29.20,East,90,0.0,0.0,81,0.00,,---,1.83,VWS V14.01,2013-03-01 01:08:00,
2013-02-28 20:09:00,37.0,33.2,29.23,East,90,0.0,0.9,86,0.00,,---,1.83,VWS V14.01,2013-03-01 01:09:00,
2013-02-28 20:10:00,37.0,33.2,29.23,East,90,0.0,0.0,86,0.00,,---,1.83,VWS V14.01,2013-03-01 01:10:00,
2013-02-28 20:11:00,37.0,33.5,29.23,East,90,0.9,0.9,87,0.00,,---,1.83,VWS V14.01,2013-03-01 01:11:00,
2013-02-28 20:12:00,37.0,33.5,29.23,East,90,0.0,0.9,87,0.00,,---,1.83,VWS V14.01,2013-03-01 01:12:00,
2013-02-28 20:13:00,38.5,33.5,29.20,East,90,0.0,0.9,82,0.00,,---,1.83,VWS V14.01,2013-03-01 01:13:00,
2013-02-28 20:14:00,37.0,33.5,29.23,ENE,68,1.1,1.6,87,0.00,,---,1.83,VWS V14.01,2013-03-01 01:14:00,
2013-02-28 20:15:00,36.9,33.4,29.23,ENE,68,1.3,1.3,87,0.00,,---,1.83,VWS V14.01,2013-03-01 01:15:00,
2013-02-28 20:16:00,36.9,33.4,29.23,NE,45,0.0,1.3,87,0.00,,---,1.83,VWS V14.01,2013-03-01 01:16:00,
2013-02-28 20:17:00,36.9,33.7,29.23,NE,45,1.1,1.3,88,0.00,,---,1.83,VWS V14.01,2013-03-01 01:17:00,
2013-02-28 20:18:00,38.3,33.3,29.20,East,90,0.0,0.0,82,0.00,,---,1.83,VWS V14.01,2013-03-01 01:18:00,
2013-02-28 20:19:00,36.9,33.7,29.23,NE,45,0.0,0.9,88,0.00,,---,1.83,VWS V14.01,2013-03-01 01:19:00,
2013-02-28 20:20:00,36.9,33.7,29.23,NE,45,0.0,0.9,88,0.00,,---,1.83,VWS V14.01,2013-03-01 01:20:00,
2013-02-28 20:21:00,36.9,33.7,29.23,NE,45,0.0,0.0,88,0.00,,---,1.83,VWS V14.01,2013-03-01 01:21:00,
2013-02-28 20:22:00,36.9,33.7,29.23,NE,45,0.0,0.9,88,0.00,,---,1.83,VWS V14.01,2013-03-01 01:22:00,
2013-02-28 20:23:00,38.1,33.1,29.20,East,90,0.0,1.1,82,0.00,,---,1.83,VWS V14.01,2013-03-01 01:23:00,
2013-02-28 20:24:00,36.9,33.7,29.23,NE,45,0.0,1.6,88,0.00,,---,1.83,VWS V14.01,2013-03-01 01:24:00,
2013-02-28 20:25:00,36.9,33.9,29.23,NE,45,0.0,0.0,89,0.00,,---,1.83,VWS V14.01,2013-03-01 01:25:00,
2013-02-28 20:26:00,36.9,33.9,29.23,NE,45,0.0,0.0,89,0.00,,---,1.83,VWS V14.01,2013-03-01 01:26:00,
2013-02-28 20:27:00,36.9,33.9,29.23,NE,45,1.1,1.1,89,0.00,,---,1.83,VWS V14.01,2013-03-01 01:27:00,
2013-02-28 20:28:00,37.9,33.2,29.20,East,90,0.0,1.1,83,0.00,,---,1.83,VWS V14.01,2013-03-01 01:28:00,
2013-02-28 20:29:00,36.9,33.9,29.23,NE,45,1.6,1.6,89,0.00,,---,1.83,VWS V14.01,2013-03-01 01:29:00,
2013-02-28 20:30:00,36.9,33.9,29.23,NE,45,0.0,1.6,89,0.00,,---,1.83,VWS V14.01,2013-03-01 01:30:00,
2013-02-28 20:31:00,36.9,33.9,29.23,NE,45,0.0,1.3,89,0.00,,---,1.83,VWS V14.01,2013-03-01 01:31:00,
2013-02-28 20:32:00,36.9,33.9,29.23,NE,45,1.1,1.3,89,0.00,,---,1.83,VWS V14.01,2013-03-01 01:32:00,
2013-02-28 20:33:00,38.1,33.4,29.20,East,90,0.9,0.9,83,0.00,,---,1.83,VWS V14.01,2013-03-01 01:33:00,
2013-02-28 20:34:00,36.9,33.9,29.23,NE,45,1.1,1.6,89,0.00,,---,1.83,VWS V14.01,2013-03-01 01:34:00,
2013-02-28 20:35:00,36.9,33.9,29.23,NE,45,0.0,1.6,89,0.00,,---,1.83,VWS V14.01,2013-03-01 01:35:00,
2013-02-28 20:36:00,36.9,33.9,29.23,NE,45,0.0,0.0,89,0.00,,---,1.83,VWS V14.01,2013-03-01 01:36:00,
2013-02-28 20:37:00,36.9,33.9,29.23,NE,45,0.0,0.0,89,0.00,,---,1.83,VWS V14.01,2013-03-01 01:37:00,
2013-02-28 20:38:00,37.9,33.5,29.20,East,90,0.0,0.0,84,0.00,,---,1.83,VWS V14.01,2013-03-01 01:38:00,
2013-02-28 20:39:00,36.9,34.2,29.23,East,90,0.9,1.6,90,0.00,,---,1.83,VWS V14.01,2013-03-01 01:39:00,
2013-02-28 20:40:00,36.9,34.2,29.23,ENE,68,2.0,2.2,90,0.00,,---,1.83,VWS V14.01,2013-03-01 01:40:00,
2013-02-28 20:41:00,36.9,34.2,29.23,ENE,68,0.0,2.0,90,0.00,,---,1.83,VWS V14.01,2013-03-01 01:41:00,
2013-02-28 20:42:00,36.9,34.2,29.23,ENE,68,1.3,1.3,90,0.00,,---,1.83,VWS V14.01,2013-03-01 01:42:00,
2013-02-28 20:43:00,37.9,33.5,29.20,East,90,0.0,0.0,84,0.00,,---,1.83,VWS V14.01,2013-03-01 01:43:00,
2013-02-28 20:44:00,37.0,34.7,29.23,ENE,68,2.0,2.0,91,0.00,,---,1.83,VWS V14.01,2013-03-01 01:44:00,
2013-02-28 20:45:00,37.0,34.7,29.23,ENE,68,2.0,2.0,91,0.00,,---,1.83,VWS V14.01,2013-03-01 01:45:00,
2013-02-28 20:46:00,36.9,34.5,29.23,ENE,68,0.0,2.0,91,0.00,,---,1.83,VWS V14.01,2013-03-01 01:46:00,
2013-02-28 20:47:00,36.9,34.5,29.23,ENE,68,1.6,1.6,91,0.00,,---,1.83,VWS V14.01,2013-03-01 01:47:00,
2013-02-28 20:48:00,37.8,33.7,29.20,East,90,0.0,0.0,85,0.00,,---,1.83,VWS V14.01,2013-03-01 01:48:00,
2013-02-28 20:49:00,36.9,34.5,29.23,SE,135,0.0,1.1,91,0.00,,---,1.83,VWS V14.01,2013-03-01 01:49:00,
2013-02-28 20:50:00,36.9,34.5,29.23,East,90,2.5,2.5,91,0.00,,---,1.83,VWS V14.01,2013-03-01 01:50:00,
2013-02-28 20:51:00,36.9,34.5,29.23,East,90,0.0,2.5,91,0.00,,---,1.83,VWS V14.01,2013-03-01 01:51:00,
2013-02-28 20:52:00,36.9,34.5,29.20,East,90,1.3,2.0,91,0.00,,---,1.83,VWS V14.01,2013-03-01 01:52:00,
2013-02-28 20:53:00,37.6,33.5,29.20,East,90,0.0,0.0,85,0.00,,---,1.83,VWS V14.01,2013-03-01 01:53:00,
2013-02-28 20:54:00,36.9,34.5,29.20,ESE,112,0.9,2.0,91,0.00,,---,1.83,VWS V14.01,2013-03-01 01:54:00,
2013-02-28 20:55:00,36.9,34.8,29.20,East,90,1.1,1.1,92,0.00,,---,1.83,VWS V14.01,2013-03-01 01:55:00,
2013-02-28 20:56:00,36.9,34.8,29.20,East,90,0.9,1.1,92,0.00,,---,1.83,VWS V14.01,2013-03-01 01:56:00,
2013-02-28 20:57:00,36.9,34.8,29.20,East,90,0.0,2.2,92,0.00,,---,1.83,VWS V14.01,2013-03-01 01:57:00,
2013-02-28 20:58:00,37.4,33.3,29.20,East,90,0.0,0.9,85,0.00,,---,1.83,VWS V14.01,2013-03-01 01:58:00,
2013-02-28 20:59:00,36.9,34.8,29.20,East,90,3.1,3.1,92,0.00,,---,1.83,VWS V14.01,2013-03-01 01:59:00,
2013-02-28 21:00:00,36.9,34.8,29.20,East,90,1.1,3.1,92,0.00,,---,1.83,VWS V14.01,2013-03-01 02:00:00,
2013-02-28 21:01:00,36.9,34.8,29.20,NE,45,0.9,2.2,92,0.00,,---,1.83,VWS V14.01,2013-03-01 02:01:00,
2013-02-28 21:02:00,36.9,34.8,29.20,East,90,2.0,2.0,92,0.00,,---,1.83,VWS V14.01,2013-03-01 02:02:00,
2013-02-28 21:03:00,37.0,33.2,29.20,East,90,0.0,0.0,86,0.00,,---,1.83,VWS V14.01,2013-03-01 02:03:00,
2013-02-28 21:04:00,36.9,34.8,29.20,NE,45,1.3,1.3,92,0.00,,---,1.83,VWS V14.01,2013-03-01 02:04:00,
2013-02-28 21:05:00,36.9,34.8,29.20,NE,45,0.9,2.5,92,0.00,,---,1.83,VWS V14.01,2013-03-01 02:05:00,
2013-02-28 21:06:00,36.9,34.8,29.20,ENE,68,1.6,1.6,92,0.00,,---,1.83,VWS V14.01,2013-03-01 02:06:00,
2013-02-28 21:07:00,37.0,33.2,29.23,East,90,0.0,0.9,86,0.00,,---,1.83,VWS V14.01,2013-03-01 02:07:00,
2013-02-28 21:08:00,36.9,34.8,29.23,ENE,68,0.0,2.2,92,0.00,,---,1.83,VWS V14.01,2013-03-01 02:08:00,
2013-02-28 21:09:00,36.9,34.8,29.23,ENE,68,0.0,0.0,92,0.00,,---,1.83,VWS V14.01,2013-03-01 02:09:00,
2013-02-28 21:10:00,36.9,34.8,29.23,ENE,68,1.6,1.6,92,0.00,,---,1.83,VWS V14.01,2013-03-01 02:10:00,
2013-02-28 21:11:00,36.9,34.8,29.23,ENE,68,1.6,1.6,92,0.00,,---,1.83,VWS V14.01,2013-03-01 02:11:00,
2013-02-28 21:12:00,37.0,33.5,29.23,ENE,68,0.0,0.0,87,0.00,,---,1.83,VWS V14.01,2013-03-01 02:12:00,
2013-02-28 21:13:00,36.9,34.8,29.23,East,90,1.6,2.2,92,0.00,,---,1.83,VWS V14.01,2013-03-01 02:13:00,
2013-02-28 21:14:00,36.7,34.6,29.23,East,90,0.0,1.6,92,0.00,,---,1.83,VWS V14.01,2013-03-01 02:14:00,
2013-02-28 21:15:00,36.7,34.6,29.23,East,90,1.1,1.6,92,0.00,,---,1.83,VWS V14.01,2013-03-01 02:15:00,
2013-02-28 21:16:00,36.7,34.6,29.23,NW,315,0.0,1.3,92,0.00,,---,1.83,VWS V14.01,2013-03-01 02:16:00,
2013-02-28 21:17:00,36.9,33.7,29.23,WSW,248,0.9,1.3,88,0.00,,---,1.83,VWS V14.01,2013-03-01 02:17:00,
2013-02-28 21:18:00,36.7,34.6,29.23,East,90,1.6,1.6,92,0.00,,---,1.83,VWS V14.01,2013-03-01 02:18:00,
2013-02-28 21:19:00,36.7,34.6,29.23,East,90,0.0,1.6,92,0.00,,---,1.83,VWS V14.01,2013-03-01 02:19:00,
2013-02-28 21:20:00,36.7,34.6,29.23,East,90,0.0,0.0,92,0.00,,---,1.83,VWS V14.01,2013-03-01 02:20:00,
2013-02-28 21:21:00,36.7,34.6,29.23,East,90,0.0,1.6,92,0.00,,---,1.83,VWS V14.01,2013-03-01 02:21:00,
2013-02-28 21:22:00,36.9,33.7,29.23,NE,45,0.9,0.9,88,0.00,,---,1.83,VWS V14.01,2013-03-01 02:22:00,
2013-02-28 21:23:00,36.7,34.6,29.20,North,0,0.0,2.5,92,0.00,,---,1.83,VWS V14.01,2013-03-01 02:23:00,
2013-02-28 21:24:00,36.7,34.6,29.20,NE,45,1.1,1.6,92,0.00,,---,1.83,VWS V14.01,2013-03-01 02:24:00,
2013-02-28 21:25:00,36.7,34.6,29.20,NE,45,0.0,1.1,92,0.00,,---,1.83,VWS V14.01,2013-03-01 02:25:00,
2013-02-28 21:26:00,36.7,34.6,29.20,NE,45,0.9,0.9,92,0.00,,---,1.83,VWS V14.01,2013-03-01 02:26:00,
2013-02-28 21:27:00,36.9,33.9,29.23,NE,45,1.3,1.3,89,0.00,,---,1.83,VWS V14.01,2013-03-01 02:27:00,
2013-02-28 21:28:00,36.7,34.6,29.20,North,0,2.0,2.9,92,0.00,,---,1.83,VWS V14.01,2013-03-01 02:28:00,
2013-02-28 21:29:00,36.5,34.4,29.20,SSW,202,0.0,2.0,92,0.00,,---,1.83,VWS V14.01,2013-03-01 02:29:00,
2013-02-28 21:30:00,36.5,34.4,29.20,East,90,0.0,0.0,92,0.00,,---,1.83,VWS V14.01,2013-03-01 02:30:00,
2013-02-28 21:31:00,36.5,34.4,29.20,East,90,1.6,1.6,92,0.00,,---,1.83,VWS V14.01,2013-03-01 02:31:00,
2013-02-28 21:32:00,36.9,33.9,29.23,NE,45,0.0,1.6,89,0.00,,---,1.83,VWS V14.01,2013-03-01 02:32:00,
2013-02-28 21:33:00,36.3,34.2,29.20,NNE,22,0.0,1.6,92,0.00,,---,1.83,VWS V14.01,2013-03-01 02:33:00,
2013-02-28 21:34:00,36.3,34.2,29.20,NW,315,1.6,1.6,92,0.00,,---,1.83,VWS V14.01,2013-03-01 02:34:00,
2013-02-28 21:35:00,36.3,34.2,29.20,WNW,292,0.9,1.6,92,0.00,,---,1.83,VWS V14.01,2013-03-01 02:35:00,
2013-02-28 21:36:00,36.3,34.2,29.20,ENE,68,1.3,1.3,92,0.00,,---,1.83,VWS V14.01,2013-03-01 02:36:00,
2013-02-28 21:37:00,36.9,33.9,29.23,NE,45,0.0,0.0,89,0.00,,---,1.83,VWS V14.01,2013-03-01 02:37:00,
2013-02-28 21:38:00,36.3,34.2,29.20,East,90,2.0,2.0,92,0.00,,---,1.83,VWS V14.01,2013-03-01 02:38:00,
2013-02-28 21:39:00,36.3,34.2,29.20,NE,45,1.1,2.0,92,0.00,,---,1.83,VWS V14.01,2013-03-01 02:39:00,
2013-02-28 21:40:00,36.3,34.2,29.20,NE,45,0.9,1.6,92,0.00,,---,1.83,VWS V14.01,2013-03-01 02:40:00,
2013-02-28 21:41:00,36.3,34.2,29.20,NE,45,0.0,1.3,92,0.00,,---,1.83,VWS V14.01,2013-03-01 02:41:00,
2013-02-28 21:42:00,36.3,34.2,29.20,South,180,0.9,1.1,92,0.00,,---,1.83,VWS V14.01,2013-03-01 02:42:00,
2013-02-28 21:43:00,37.0,34.7,29.23,ENE,68,1.3,1.3,91,0.00,,---,1.83,VWS V14.01,2013-03-01 02:43:00,
2013-02-28 21:44:00,36.3,34.2,29.20,East,90,1.3,2.0,92,0.00,,---,1.83,VWS V14.01,2013-03-01 02:44:00,
2013-02-28 21:45:00,36.3,34.2,29.20,East,90,0.9,1.3,92,0.00,,---,1.83,VWS V14.01,2013-03-01 02:45:00,
2013-02-28 21:46:00,36.3,34.2,29.20,East,90,0.0,0.9,92,0.00,,---,1.83,VWS V14.01,2013-03-01 02:46:00,
2013-02-28 21:47:00,36.3,34.2,29.20,East,90,0.0,0.0,92,0.00,,---,1.83,VWS V14.01,2013-03-01 02:47:00,
2013-02-28 21:48:00,36.9,34.5,29.23,ENE,68,0.9,1.6,91,0.00,,---,1.83,VWS V14.01,2013-03-01 02:48:00,
2013-02-28 21:49:00,36.3,34.2,29.20,East,90,1.1,2.0,92,0.00,,---,1.83,VWS V14.01,2013-03-01 02:49:00,
2013-02-28 21:50:00,36.3,34.5,29.20,East,90,0.0,2.0,93,0.00,,---,1.83,VWS V14.01,2013-03-01 02:50:00,
2013-02-28 21:51:00,36.3,34.5,29.20,East,90,2.5,2.5,93,0.00,,---,1.83,VWS V14.01,2013-03-01 02:51:00,
2013-02-28 21:52:00,36.9,34.5,29.20,East,90,0.9,1.3,91,0.00,,---,1.83,VWS V14.01,2013-03-01 02:52:00,
2013-02-28 21:53:00,36.3,34.5,29.20,ENE,68,0.9,2.5,93,0.00,,---,1.83,VWS V14.01,2013-03-01 02:53:00,
2013-02-28 21:54:00,36.3,34.5,29.20,ENE,68,0.0,0.9,93,0.00,,---,1.83,VWS V14.01,2013-03-01 02:54:00,
2013-02-28 21:55:00,36.3,34.5,29.20,ENE,68,1.1,1.3,93,0.00,,---,1.83,VWS V14.01,2013-03-01 02:55:00,
2013-02-28 21:56:00,36.3,34.5,29.20,ENE,68,1.1,2.0,93,0.00,,---,1.83,VWS V14.01,2013-03-01 02:56:00,
2013-02-28 21:57:00,36.9,34.8,29.20,North,0,0.9,0.9,92,0.00,,---,1.83,VWS V14.01,2013-03-01 02:57:00,
2013-02-28 21:58:00,36.3,34.5,29.20,East,90,0.9,2.5,93,0.00,,---,1.83,VWS V14.01,2013-03-01 02:58:00,
2013-02-28 21:59:00,36.3,34.5,29.20,East,90,1.1,1.1,93,0.00,,---,1.83,VWS V14.01,2013-03-01 02:59:00,
2013-02-28 22:00:00,36.3,34.5,29.20,East,90,1.1,2.0,93,0.00,,---,1.83,VWS V14.01,2013-03-01 03:00:00,
2013-02-28 22:01:00,36.3,34.5,29.20,East,90,2.0,2.0,93,0.00,,---,1.83,VWS V14.01,2013-03-01 03:01:00,
2013-02-28 22:02:00,36.9,34.8,29.20,ENE,68,1.1,2.7,92,0.00,,---,1.83,VWS V14.01,2013-03-01 03:02:00,
2013-02-28 22:03:00,36.3,34.5,29.20,East,90,1.1,2.7,93,0.00,,---,1.83,VWS V14.01,2013-03-01 03:03:00,
2013-02-28 22:04:00,36.3,34.5,29.20,East,90,0.0,1.1,93,0.00,,---,1.83,VWS V14.01,2013-03-01 03:04:00,
2013-02-28 22:05:00,36.3,34.5,29.20,ENE,68,1.6,3.1,93,0.00,,---,1.83,VWS V14.01,2013-03-01 03:05:00,
2013-02-28 22:06:00,36.1,34.3,29.20,WNW,292,0.0,1.6,93,0.00,,---,1.83,VWS V14.01,2013-03-01 03:06:00,
2013-02-28 22:07:00,36.9,34.8,29.23,ENE,68,0.9,2.2,92,0.00,,---,1.83,VWS V14.01,2013-03-01 03:07:00,
2013-02-28 22:08:00,36.1,34.3,29.20,East,90,0.0,2.2,93,0.00,,---,1.83,VWS V14.01,2013-03-01 03:08:00,
2013-02-28 22:09:00,36.1,34.3,29.20,East,90,0.0,0.0,93,0.00,,---,1.83,VWS V14.01,2013-03-01 03:09:00,
2013-02-28 22:10:00,36.1,34.3,29.20,SE,135,1.6,2.5,93,0.00,,---,1.83,VWS V14.01,2013-03-01 03:10:00,
2013-02-28 22:11:00,36.1,34.3,29.20,East,90,1.1,2.0,93,0.00,,---,1.83,VWS V14.01,2013-03-01 03:11:00,
2013-02-28 22:12:00,36.9,34.8,29.23,SW,225,0.9,2.2,92,0.00,,---,1.83,VWS V14.01,2013-03-01 03:12:00,
2013-02-28 22:13:00,36.1,34.3,29.20,East,90,1.3,1.6,93,0.00,,---,1.83,VWS V14.01,2013-03-01 03:13:00,
2013-02-28 22:14:00,36.1,34.3,29.20,East,90,0.0,1.3,93,0.00,,---,1.83,VWS V14.01,2013-03-01 03:14:00,
2013-02-28 22:15:00,36.1,34.3,29.20,NE,45,1.1,1.1,93,0.00,,---,1.83,VWS V14.01,2013-03-01 03:15:00,
2013-02-28 22:16:00,36.1,34.3,29.20,ENE,68,2.7,2.7,93,0.00,,---,1.83,VWS V14.01,2013-03-01 03:16:00,
2013-02-28 22:17:00,36.7,34.6,29.23,East,90,1.6,1.6,92,0.00,,---,1.83,VWS V14.01,2013-03-01 03:17:00,
2013-02-28 22:18:00,36.1,34.3,29.20,West,270,1.3,2.5,93,0.00,,---,1.83,VWS V14.01,2013-03-01 03:18:00,
2013-02-28 22:19:00,36.1,34.3,29.20,West,270,0.0,1.3,93,0.00,,---,1.83,VWS V14.01,2013-03-01 03:19:00,
2013-02-28 22:20:00,36.1,34.3,29.20,East,90,1.6,1.6,93,0.00,,---,1.83,VWS V14.01,2013-03-01 03:20:00,
2013-02-28 22:21:00,36.0,34.1,29.20,East,90,0.0,1.6,93,0.00,,---,1.83,VWS V14.01,2013-03-01 03:21:00,
2013-02-28 22:22:00,36.7,34.6,29.20,ENE,68,1.3,2.5,92,0.00,,---,1.83,VWS V14.01,2013-03-01 03:22:00,
2013-02-28 22:23:00,36.0,34.1,29.17,SE,135,1.6,3.8,93,0.00,,---,1.83,VWS V14.01,2013-03-01 03:23:00,
2013-02-28 22:24:00,36.0,34.1,29.17,ENE,68,2.9,2.9,93,0.00,,---,1.83,VWS V14.01,2013-03-01 03:24:00,
2013-02-28 22:25:00,36.0,34.1,29.17,ENE,68,2.5,3.1,93,0.00,,---,1.83,VWS V14.01,2013-03-01 03:25:00,
2013-02-28 22:26:00,36.0,34.1,29.17,East,90,1.3,2.5,93,0.00,,---,1.83,VWS V14.01,2013-03-01 03:26:00,
2013-02-28 22:27:00,36.0,34.1,29.17,East,90,0.0,2.0,93,0.00,,---,1.83,VWS V14.01,2013-03-01 03:27:00,
2013-02-28 22:28:00,36.0,34.1,29.17,East,90,0.0,1.1,93,0.00,,---,1.83,VWS V14.01,2013-03-01 03:28:00,
2013-02-28 22:29:00,36.5,34.4,29.20,East,90,0.0,0.0,92,0.00,,---,1.83,VWS V14.01,2013-03-01 03:29:00,
2013-02-28 22:30:00,35.8,34.0,29.17,North,0,2.0,2.0,93,0.00,,---,1.83,VWS V14.01,2013-03-01 03:30:00,
2013-02-28 22:31:00,35.8,33.7,29.17,ENE,68,2.9,2.9,92,0.00,,---,1.83,VWS V14.01,2013-03-01 03:31:00,
2013-02-28 22:32:00,35.8,33.7,29.17,East,90,2.0,2.9,92,0.00,,---,1.83,VWS V14.01,2013-03-01 03:32:00,
2013-02-28 22:33:00,35.8,33.7,29.17,NW,315,0.0,2.0,92,0.00,,---,1.83,VWS V14.01,2013-03-01 03:33:00,
2013-02-28 22:34:00,36.3,34.2,29.20,NW,315,0.9,1.6,92,0.00,,---,1.83,VWS V14.01,2013-03-01 03:34:00,
2013-02-28 22:35:00,35.8,33.7,29.17,East,90,1.1,2.7,92,0.00,,---,1.83,VWS V14.01,2013-03-01 03:35:00,
2013-02-28 22:36:00,35.8,33.7,29.17,East,90,1.3,1.3,92,0.00,,---,1.83,VWS V14.01,2013-03-01 03:36:00,
2013-02-28 22:37:00,35.8,33.7,29.17,East,90,1.1,1.3,92,0.00,,---,1.83,VWS V14.01,2013-03-01 03:37:00,
2013-02-28 22:38:00,35.8,33.7,29.17,East,90,0.9,1.1,92,0.00,,---,1.83,VWS V14.01,2013-03-01 03:38:00,
2013-02-28 22:39:00,36.3,34.2,29.20,NE,45,0.0,1.1,92,0.00,,---,1.83,VWS V14.01,2013-03-01 03:39:00,
2013-02-28 22:40:00,35.6,33.2,29.17,East,90,1.6,2.0,91,0.00,,---,1.83,VWS V14.01,2013-03-01 03:40:00,
2013-02-28 22:41:00,35.6,33.2,29.17,NNW,338,0.0,1.6,91,0.00,,---,1.83,VWS V14.01,2013-03-01 03:41:00,
2013-02-28 22:42:00,35.6,33.2,29.17,NE,45,0.9,1.1,91,0.00,,---,1.83,VWS V14.01,2013-03-01 03:42:00,
2013-02-28 22:43:00,35.6,33.2,29.17,NE,45,2.2,2.2,91,0.00,,---,1.83,VWS V14.01,2013-03-01 03:43:00,
2013-02-28 22:44:00,36.3,34.2,29.20,East,90,1.3,1.3,92,0.00,,---,1.83,VWS V14.01,2013-03-01 03:44:00,
2013-02-28 22:45:00,35.6,33.2,29.17,NE,45,0.0,0.9,91,0.00,,---,1.83,VWS V14.01,2013-03-01 03:45:00,
2013-02-28 22:46:00,35.6,33.2,29.17,East,90,2.0,2.0,91,0.00,,---,1.83,VWS V14.01,2013-03-01 03:46:00,
2013-02-28 22:47:00,35.6,33.2,29.17,East,90,0.0,2.0,91,0.00,,---,1.83,VWS V14.01,2013-03-01 03:47:00,
2013-02-28 22:48:00,35.6,33.2,29.17,North,0,1.1,1.1,91,0.00,,---,1.83,VWS V14.01,2013-03-01 03:48:00,
2013-02-28 22:49:00,36.3,34.2,29.20,East,90,1.3,2.0,92,0.00,,---,1.83,VWS V14.01,2013-03-01 03:49:00,
2013-02-28 22:50:00,35.6,33.2,29.17,East,90,0.0,2.5,91,0.00,,---,1.83,VWS V14.01,2013-03-01 03:50:00,
2013-02-28 22:51:00,35.6,33.2,29.17,NE,45,2.5,2.5,91,0.00,,---,1.83,VWS V14.01,2013-03-01 03:51:00,
2013-02-28 22:53:00,35.6,33.2,29.20,NW,315,2.0,2.0,91,0.00,,---,1.83,VWS V14.01,2013-03-01 03:53:00,
2013-02-28 22:54:00,36.3,34.5,29.20,ENE,68,0.0,0.0,93,0.00,,---,1.83,VWS V14.01,2013-03-01 03:54:00,
2013-02-28 22:55:00,35.4,33.1,29.20,East,90,1.6,2.2,91,0.00,,---,1.83,VWS V14.01,2013-03-01 03:55:00,
2013-02-28 22:56:00,35.4,33.1,29.20,NE,45,2.0,2.0,91,0.00,,---,1.83,VWS V14.01,2013-03-01 03:56:00,
2013-02-28 22:57:00,35.4,33.1,29.20,NE,45,0.0,2.2,91,0.00,,---,1.83,VWS V14.01,2013-03-01 03:57:00,
2013-02-28 22:58:00,35.4,33.1,29.20,ENE,68,1.1,1.6,91,0.00,,---,1.83,VWS V14.01,2013-03-01 03:58:00,
2013-02-28 22:59:00,36.3,34.5,29.20,East,90,2.0,2.0,93,0.00,,---,1.83,VWS V14.01,2013-03-01 03:59:00,
2013-02-28 23:00:00,35.4,33.1,29.20,ENE,68,1.1,2.0,91,0.00,,---,1.83,VWS V14.01,2013-03-01 04:00:00,
2013-02-28 23:01:00,35.4,33.1,29.20,NNW,338,2.0,2.5,91,0.00,,---,1.83,VWS V14.01,2013-03-01 04:01:00,
2013-02-28 23:02:00,35.4,33.1,29.20,ENE,68,1.3,2.0,91,0.00,,---,1.83,VWS V14.01,2013-03-01 04:02:00,
2013-02-28 23:03:00,35.4,33.1,29.20,ENE,68,0.0,1.3,91,0.00,,---,1.83,VWS V14.01,2013-03-01 04:03:00,
2013-02-28 23:04:00,36.3,34.5,29.20,ENE,68,2.0,2.0,93,0.00,,---,1.83,VWS V14.01,2013-03-01 04:04:00,
2013-02-28 23:05:00,35.4,33.1,29.20,ENE,68,0.9,0.9,91,0.00,,---,1.83,VWS V14.01,2013-03-01 04:05:00,
2013-02-28 23:06:00,35.2,32.6,29.20,ENE,68,0.0,0.9,90,0.00,,---,1.83,VWS V14.01,2013-03-01 04:06:00,
2013-02-28 23:07:00,35.2,32.6,29.20,ENE,68,0.0,0.0,90,0.00,,---,1.83,VWS V14.01,2013-03-01 04:07:00,
2013-02-28 23:09:00,36.1,34.3,29.20,East,90,1.3,1.3,93,0.00,,---,1.83,VWS V14.01,2013-03-01 04:09:00,
2013-02-28 23:11:00,35.1,32.4,29.20,East,90,0.0,1.1,90,0.00,,---,1.83,VWS V14.01,2013-03-01 04:11:00,
2013-02-28 23:12:00,35.1,32.4,29.20,East,90,0.0,0.0,90,0.00,,---,1.83,VWS V14.01,2013-03-01 04:12:00,
2013-02-28 23:13:00,35.1,32.4,29.20,East,90,1.6,1.6,90,0.00,,---,1.83,VWS V14.01,2013-03-01 04:13:00,
2013-02-28 23:14:00,36.1,34.3,29.20,East,90,1.1,1.1,93,0.00,,---,1.83,VWS V14.01,2013-03-01 04:14:00,
2013-02-28 23:15:00,35.1,32.4,29.20,East,90,1.1,1.1,90,0.00,,---,1.83,VWS V14.01,2013-03-01 04:15:00,
2013-02-28 23:16:00,35.1,32.4,29.20,East,90,0.0,1.1,90,0.00,,---,1.83,VWS V14.01,2013-03-01 04:16:00,
2013-02-28 23:17:00,35.1,32.4,29.20,East,90,1.6,1.6,90,0.00,,---,1.83,VWS V14.01,2013-03-01 04:17:00,
2013-02-28 23:18:00,35.1,32.4,29.20,East,90,0.0,1.6,90,0.00,,---,1.83,VWS V14.01,2013-03-01 04:18:00,
2013-02-28 23:19:00,36.1,34.3,29.20,West,270,0.0,0.0,93,0.00,,---,1.83,VWS V14.01,2013-03-01 04:19:00,
2013-02-28 23:20:00,35.1,32.4,29.20,East,90,0.9,1.6,90,0.00,,---,1.83,VWS V14.01,2013-03-01 04:20:00,
2013-02-28 23:21:00,35.1,32.4,29.20,East,90,0.0,2.0,90,0.00,,---,1.83,VWS V14.01,2013-03-01 04:21:00,
2013-02-28 23:22:00,35.1,32.4,29.20,East,90,0.0,1.3,90,0.00,,---,1.83,VWS V14.01,2013-03-01 04:22:00,
2013-02-28 23:23:00,35.1,32.4,29.20,East,90,0.0,0.0,90,0.00,,---,1.83,VWS V14.01,2013-03-01 04:23:00,
2013-02-28 23:24:00,36.0,34.1,29.17,East,90,3.1,3.1,93,0.00,,---,1.83,VWS V14.01,2013-03-01 04:24:00,
2013-02-28 23:25:00,34.9,32.0,29.20,East,90,0.0,1.1,89,0.00,,---,1.83,VWS V14.01,2013-03-01 04:25:00,
2013-02-28 23:26:00,35.1,32.2,29.20,East,90,0.0,0.0,89,0.00,,---,1.83,VWS V14.01,2013-03-01 04:26:00,
2013-02-28 23:27:00,35.1,32.2,29.20,East,90,0.9,0.9,89,0.00,,---,1.83,VWS V14.01,2013-03-01 04:27:00,
2013-02-28 23:28:00,35.1,32.2,29.20,East,90,0.0,0.9,89,0.00,,---,1.83,VWS V14.01,2013-03-01 04:28:00,
2013-02-28 23:29:00,35.8,34.0,29.17,West,270,1.1,1.3,93,0.00,,---,1.83,VWS V14.01,2013-03-01 04:29:00,
2013-02-28 23:30:00,34.9,32.0,29.20,East,90,0.0,1.3,89,0.00,,---,1.83,VWS V14.01,2013-03-01 04:30:00,
2013-02-28 23:31:00,34.9,32.0,29.20,East,90,1.1,1.3,89,0.00,,---,1.83,VWS V14.01,2013-03-01 04:31:00,
2013-02-28 23:32:00,34.9,32.0,29.20,NW,315,0.0,1.3,89,0.00,,---,1.83,VWS V14.01,2013-03-01 04:32:00,
2013-02-28 23:33:00,34.9,32.0,29.20,NW,315,0.0,0.0,89,0.00,,---,1.83,VWS V14.01,2013-03-01 04:33:00,
2013-02-28 23:34:00,35.8,33.7,29.17,East,90,2.7,2.7,92,0.00,,---,1.83,VWS V14.01,2013-03-01 04:34:00,
2013-02-28 23:35:00,34.9,32.0,29.20,NW,315,0.0,0.0,89,0.00,,---,1.83,VWS V14.01,2013-03-01 04:35:00,
2013-02-28 23:36:00,34.9,32.0,29.20,NE,45,0.0,0.0,89,0.00,,---,1.83,VWS V14.01,2013-03-01 04:36:00,
2013-02-28 23:37:00,34.9,32.0,29.20,NE,45,0.0,1.1,89,0.00,,---,1.83,VWS V14.01,2013-03-01 04:37:00,
2013-02-28 23:38:00,34.9,32.0,29.20,NE,45,0.0,0.9,89,0.00,,---,1.83,VWS V14.01,2013-03-01 04:38:00,
2013-02-28 23:39:00,35.6,33.2,29.17,East,90,1.3,2.0,91,0.00,,---,1.83,VWS V14.01,2013-03-01 04:39:00,
2013-02-28 23:40:00,34.9,32.0,29.20,NE,45,0.0,0.0,89,0.00,,---,1.83,VWS V14.01,2013-03-01 04:40:00,
2013-02-28 23:41:00,34.9,32.0,29.20,NE,45,0.0,0.0,89,0.00,,---,1.83,VWS V14.01,2013-03-01 04:41:00,
2013-02-28 23:42:00,34.9,32.0,29.20,NE,45,0.0,0.0,89,0.00,,---,1.83,VWS V14.01,2013-03-01 04:42:00,
2013-02-28 23:43:00,34.9,32.0,29.20,NE,45,0.0,0.0,89,0.00,,---,1.83,VWS V14.01,2013-03-01 04:43:00,
2013-02-28 23:44:00,35.6,33.2,29.17,NE,45,0.0,0.9,91,0.00,,---,1.83,VWS V14.01,2013-03-01 04:44:00,
2013-02-28 23:45:00,34.9,32.0,29.20,NE,45,0.0,0.0,89,0.00,,---,1.83,VWS V14.01,2013-03-01 04:45:00,
2013-02-28 23:46:00,34.7,31.8,29.20,NE,45,0.0,0.9,89,0.00,,---,1.83,VWS V14.01,2013-03-01 04:46:00,
2013-02-28 23:47:00,34.9,32.0,29.20,NE,45,0.0,1.3,89,0.00,,---,1.83,VWS V14.01,2013-03-01 04:47:00,
2013-02-28 23:48:00,34.9,32.0,29.20,NE,45,0.0,0.9,89,0.00,,---,1.83,VWS V14.01,2013-03-01 04:48:00,
2013-02-28 23:49:00,35.6,33.2,29.17,NE,45,1.6,1.6,91,0.00,,---,1.83,VWS V14.01,2013-03-01 04:49:00,
2013-02-28 23:50:00,34.9,32.0,29.20,NE,45,0.0,1.1,89,0.00,,---,1.83,VWS V14.01,2013-03-01 04:50:00,
2013-02-28 23:51:00,34.9,32.0,29.20,NE,45,0.0,0.0,89,0.00,,---,1.83,VWS V14.01,2013-03-01 04:51:00,
2013-02-28 23:52:00,34.9,32.0,29.20,NE,45,0.0,0.0,89,0.00,,---,1.83,VWS V14.01,2013-03-01 04:52:00,
2013-02-28 23:53:00,34.9,32.0,29.20,NE,45,0.0,0.0,89,0.00,,---,1.83,VWS V14.01,2013-03-01 04:53:00,
2013-02-28 23:54:00,35.6,33.2,29.20,East,90,1.3,2.2,91,0.00,,---,1.83,VWS V14.01,2013-03-01 04:54:00,
2013-02-28 23:55:00,34.7,31.8,29.20,NE,45,0.9,0.9,89,0.00,,---,1.83,VWS V14.01,2013-03-01 04:55:00,
2013-02-28 23:56:00,34.9,32.0,29.20,NE,45,1.3,1.3,89,0.00,,---,1.83,VWS V14.01,2013-03-01 04:56:00,
2013-02-28 23:57:00,34.9,32.0,29.20,NE,45,0.0,1.3,89,0.00,,---,1.83,VWS V14.01,2013-03-01 04:57:00,
2013-02-28 23:58:00,34.7,31.8,29.20,NE,45,0.0,0.0,89,0.00,,---,1.83,VWS V14.01,2013-03-01 04:58:00,
2013-02-28 23:59:00,35.4,33.1,29.20,NNE,22,1.3,1.3,91,0.00,,---,1.83,VWS V14.01,2013-03-01 04:59:00,